Wetterdaten: Donnerstag, 19.04.2018
Datum Zeit Temp. A. Feuchte A. Luftdruck Regen Wind Richtung Richtung Sonnenschein ET UV Solar Taupunkt Windchill Windböen
19.04.2018 00:00 7,8 °C 82 % 1028,5 hPa 0,0 mm 0,0 km/h (0 Bft) NO 56 ° 0 min 0,000 mm 0,0 UV-I 0 W/m² 4,9 °C 7,8 °C 0,0 km/h (0 Bft)
19.04.2018 00:01 7,7 °C 82 % 1028,5 hPa 0,0 mm 0,0 km/h (0 Bft) NO 56 ° 0 min 0,000 mm 0,0 UV-I 0 W/m² 4,8 °C 7,7 °C 0,0 km/h (0 Bft)
19.04.2018 00:02 7,7 °C 83 % 1028,5 hPa 0,0 mm 0,0 km/h (0 Bft) NO 56 ° 0 min 0,000 mm 0,0 UV-I 0 W/m² 5,0 °C 7,7 °C 0,0 km/h (0 Bft)
19.04.2018 00:03 7,6 °C 83 % 1028,6 hPa 0,0 mm 0,0 km/h (0 Bft) NO 56 ° 0 min 0,000 mm 0,0 UV-I 0 W/m² 4,9 °C 7,6 °C 0,0 km/h (0 Bft)
19.04.2018 00:04 7,4 °C 83 % 1028,5 hPa 0,0 mm 0,0 km/h (0 Bft) NO 56 ° 0 min 0,000 mm 0,0 UV-I 0 W/m² 4,7 °C 7,4 °C 0,0 km/h (0 Bft)
19.04.2018 00:05 7,3 °C 83 % 1028,6 hPa 0,0 mm 0,0 km/h (0 Bft) NO 56 ° 0 min 0,000 mm 0,0 UV-I 0 W/m² 4,6 °C 7,3 °C 0,0 km/h (0 Bft)
19.04.2018 00:06 7,2 °C 84 % 1028,5 hPa 0,0 mm 0,0 km/h (0 Bft) NO 56 ° 0 min 0,000 mm 0,0 UV-I 0 W/m² 4,7 °C 7,2 °C 0,0 km/h (0 Bft)
19.04.2018 00:07 7,2 °C 84 % 1028,5 hPa 0,0 mm 0,0 km/h (0 Bft) NO 56 ° 0 min 0,000 mm 0,0 UV-I 0 W/m² 4,7 °C 7,2 °C 0,0 km/h (0 Bft)
19.04.2018 00:08 7,2 °C 85 % 1028,5 hPa 0,0 mm 0,0 km/h (0 Bft) NO 56 ° 0 min 0,000 mm 0,0 UV-I 0 W/m² 4,9 °C 7,2 °C 0,0 km/h (0 Bft)
19.04.2018 00:09 7,2 °C 85 % 1028,5 hPa 0,0 mm 0,0 km/h (0 Bft) NO 56 ° 0 min 0,000 mm 0,0 UV-I 0 W/m² 4,9 °C 7,2 °C 0,0 km/h (0 Bft)
19.04.2018 00:10 7,2 °C 85 % 1028,5 hPa 0,0 mm 0,0 km/h (0 Bft) NO 56 ° 0 min 0,000 mm 0,0 UV-I 0 W/m² 4,9 °C 7,2 °C 0,0 km/h (0 Bft)
19.04.2018 00:11 7,2 °C 85 % 1028,4 hPa 0,0 mm 0,0 km/h (0 Bft) NO 56 ° 0 min 0,000 mm 0,0 UV-I 0 W/m² 4,9 °C 7,2 °C 0,0 km/h (0 Bft)
19.04.2018 00:12 7,2 °C 85 % 1028,4 hPa 0,0 mm 0,0 km/h (0 Bft) NO 56 ° 0 min 0,000 mm 0,0 UV-I 0 W/m² 4,9 °C 7,2 °C 0,0 km/h (0 Bft)
19.04.2018 00:13 7,2 °C 84 % 1028,4 hPa 0,0 mm 0,0 km/h (0 Bft) NO 56 ° 0 min 0,000 mm 0,0 UV-I 0 W/m² 4,7 °C 7,2 °C 0,0 km/h (0 Bft)
19.04.2018 00:14 7,3 °C 84 % 1028,5 hPa 0,0 mm 0,0 km/h (0 Bft) NO 56 ° 0 min 0,000 mm 0,0 UV-I 0 W/m² 4,8 °C 7,3 °C 0,0 km/h (0 Bft)
19.04.2018 00:15 7,2 °C 84 % 1028,5 hPa 0,0 mm 0,0 km/h (0 Bft) NO 56 ° 0 min 0,000 mm 0,0 UV-I 0 W/m² 4,7 °C 7,2 °C 0,0 km/h (0 Bft)
19.04.2018 00:16 7,2 °C 84 % 1028,5 hPa 0,0 mm 0,0 km/h (0 Bft) NO 56 ° 0 min 0,000 mm 0,0 UV-I 0 W/m² 4,7 °C 7,2 °C 0,0 km/h (0 Bft)
19.04.2018 00:17 7,1 °C 84 % 1028,4 hPa 0,0 mm 0,0 km/h (0 Bft) NO 56 ° 0 min 0,000 mm 0,0 UV-I 0 W/m² 4,6 °C 7,1 °C 0,0 km/h (0 Bft)
19.04.2018 00:18 7,1 °C 84 % 1028,4 hPa 0,0 mm 0,0 km/h (0 Bft) NO 56 ° 0 min 0,000 mm 0,0 UV-I 0 W/m² 4,6 °C 7,1 °C 0,0 km/h (0 Bft)
19.04.2018 00:19 7,0 °C 85 % 1028,4 hPa 0,0 mm 0,0 km/h (0 Bft) NO 56 ° 0 min 0,000 mm 0,0 UV-I 0 W/m² 4,7 °C 7,0 °C 0,0 km/h (0 Bft)
19.04.2018 00:20 7,0 °C 85 % 1028,4 hPa 0,0 mm 0,0 km/h (0 Bft) NO 56 ° 0 min 0,000 mm 0,0 UV-I 0 W/m² 4,7 °C 7,0 °C 0,0 km/h (0 Bft)
19.04.2018 00:21 6,9 °C 85 % 1028,4 hPa 0,0 mm 0,0 km/h (0 Bft) NO 56 ° 0 min 0,000 mm 0,0 UV-I 0 W/m² 4,6 °C 6,9 °C 0,0 km/h (0 Bft)
19.04.2018 00:22 6,9 °C 85 % 1028,4 hPa 0,0 mm 0,0 km/h (0 Bft) NO 56 ° 0 min 0,000 mm 0,0 UV-I 0 W/m² 4,6 °C 6,9 °C 0,0 km/h (0 Bft)
19.04.2018 00:23 6,9 °C 85 % 1028,4 hPa 0,0 mm 0,0 km/h (0 Bft) NO 56 ° 0 min 0,000 mm 0,0 UV-I 0 W/m² 4,6 °C 6,9 °C 0,0 km/h (0 Bft)
19.04.2018 00:24 6,9 °C 85 % 1028,4 hPa 0,0 mm 0,0 km/h (0 Bft) NO 56 ° 0 min 0,000 mm 0,0 UV-I 0 W/m² 4,6 °C 6,9 °C 0,0 km/h (0 Bft)
19.04.2018 00:25 6,9 °C 86 % 1028,4 hPa 0,0 mm 0,0 km/h (0 Bft) NO 56 ° 0 min 0,000 mm 0,0 UV-I 0 W/m² 4,7 °C 6,9 °C 0,0 km/h (0 Bft)
19.04.2018 00:26 6,9 °C 85 % 1028,4 hPa 0,0 mm 0,0 km/h (0 Bft) NO 56 ° 0 min 0,000 mm 0,0 UV-I 0 W/m² 4,6 °C 6,9 °C 0,0 km/h (0 Bft)
19.04.2018 00:27 6,9 °C 85 % 1028,4 hPa 0,0 mm 0,0 km/h (0 Bft) NO 56 ° 0 min 0,000 mm 0,0 UV-I 0 W/m² 4,6 °C 6,9 °C 0,0 km/h (0 Bft)
19.04.2018 00:28 6,9 °C 85 % 1028,4 hPa 0,0 mm 0,1 km/h (0 Bft) NO 56 ° 0 min 0,000 mm 0,0 UV-I 0 W/m² 4,6 °C 6,9 °C 1,6 km/h (1 Bft)
19.04.2018 00:29 6,8 °C 85 % 1028,5 hPa 0,0 mm 1,1 km/h (1 Bft) NO 56 ° 0 min 0,000 mm 0,0 UV-I 0 W/m² 4,5 °C 6,8 °C 1,6 km/h (1 Bft)
19.04.2018 00:30 7,1 °C 86 % 1028,4 hPa 0,0 mm 0,0 km/h (0 Bft) NO 56 ° 0 min 0,000 mm 0,0 UV-I 0 W/m² 4,9 °C 7,1 °C 0,0 km/h (0 Bft)
19.04.2018 00:31 7,6 °C 85 % 1028,4 hPa 0,0 mm 0,0 km/h (0 Bft) NO 56 ° 0 min 0,000 mm 0,0 UV-I 0 W/m² 5,2 °C 7,6 °C 0,0 km/h (0 Bft)
19.04.2018 00:32 8,0 °C 83 % 1028,4 hPa 0,0 mm 0,0 km/h (0 Bft) NO 56 ° 0 min 0,000 mm 0,0 UV-I 0 W/m² 5,3 °C 8,0 °C 0,0 km/h (0 Bft)
19.04.2018 00:33 8,3 °C 82 % 1028,4 hPa 0,0 mm 0,0 km/h (0 Bft) NO 56 ° 0 min 0,000 mm 0,0 UV-I 0 W/m² 5,4 °C 8,3 °C 0,0 km/h (0 Bft)
19.04.2018 00:34 8,2 °C 80 % 1028,4 hPa 0,0 mm 0,0 km/h (0 Bft) NO 56 ° 0 min 0,000 mm 0,0 UV-I 0 W/m² 5,0 °C 8,2 °C 0,0 km/h (0 Bft)
19.04.2018 00:35 8,1 °C 80 % 1028,4 hPa 0,0 mm 0,0 km/h (0 Bft) NO 56 ° 0 min 0,000 mm 0,0 UV-I 0 W/m² 4,9 °C 8,1 °C 0,0 km/h (0 Bft)
19.04.2018 00:36 7,8 °C 80 % 1028,4 hPa 0,0 mm 0,0 km/h (0 Bft) NO 56 ° 0 min 0,000 mm 0,0 UV-I 0 W/m² 4,6 °C 7,8 °C 0,0 km/h (0 Bft)
19.04.2018 00:37 7,7 °C 81 % 1028,4 hPa 0,0 mm 0,0 km/h (0 Bft) NO 56 ° 0 min 0,000 mm 0,0 UV-I 0 W/m² 4,7 °C 7,7 °C 0,0 km/h (0 Bft)
19.04.2018 00:38 7,6 °C 82 % 1028,4 hPa 0,0 mm 0,0 km/h (0 Bft) NO 56 ° 0 min 0,000 mm 0,0 UV-I 0 W/m² 4,7 °C 7,6 °C 0,0 km/h (0 Bft)
19.04.2018 00:39 7,5 °C 82 % 1028,4 hPa 0,0 mm 0,0 km/h (0 Bft) NO 56 ° 0 min 0,000 mm 0,0 UV-I 0 W/m² 4,6 °C 7,5 °C 0,0 km/h (0 Bft)
19.04.2018 00:40 7,4 °C 82 % 1028,4 hPa 0,0 mm 0,0 km/h (0 Bft) NO 56 ° 0 min 0,000 mm 0,0 UV-I 0 W/m² 4,5 °C 7,4 °C 0,0 km/h (0 Bft)
19.04.2018 00:41 7,3 °C 82 % 1028,4 hPa 0,0 mm 0,0 km/h (0 Bft) NO 56 ° 0 min 0,000 mm 0,0 UV-I 0 W/m² 4,4 °C 7,3 °C 0,0 km/h (0 Bft)
19.04.2018 00:42 7,2 °C 82 % 1028,4 hPa 0,0 mm 0,0 km/h (0 Bft) NO 56 ° 0 min 0,000 mm 0,0 UV-I 0 W/m² 4,3 °C 7,2 °C 0,0 km/h (0 Bft)
19.04.2018 00:43 7,2 °C 83 % 1028,4 hPa 0,0 mm 0,0 km/h (0 Bft) NO 56 ° 0 min 0,000 mm 0,0 UV-I 0 W/m² 4,5 °C 7,2 °C 0,0 km/h (0 Bft)
19.04.2018 00:44 7,4 °C 84 % 1028,4 hPa 0,0 mm 0,0 km/h (0 Bft) NO 56 ° 0 min 0,000 mm 0,0 UV-I 0 W/m² 4,9 °C 7,4 °C 0,0 km/h (0 Bft)
19.04.2018 00:45 7,8 °C 84 % 1028,4 hPa 0,0 mm 0,0 km/h (0 Bft) NO 56 ° 0 min 0,000 mm 0,0 UV-I 0 W/m² 5,3 °C 7,8 °C 0,0 km/h (0 Bft)
19.04.2018 00:46 8,3 °C 82 % 1028,4 hPa 0,0 mm 0,0 km/h (0 Bft) NO 56 ° 0 min 0,000 mm 0,0 UV-I 0 W/m² 5,4 °C 8,3 °C 0,0 km/h (0 Bft)
19.04.2018 00:47 8,6 °C 81 % 1028,4 hPa 0,0 mm 0,0 km/h (0 Bft) NO 56 ° 0 min 0,000 mm 0,0 UV-I 0 W/m² 5,5 °C 8,6 °C 0,0 km/h (0 Bft)
19.04.2018 00:48 8,4 °C 78 % 1028,4 hPa 0,0 mm 0,0 km/h (0 Bft) NO 56 ° 0 min 0,000 mm 0,0 UV-I 0 W/m² 4,8 °C 8,4 °C 0,0 km/h (0 Bft)
19.04.2018 00:49 8,2 °C 78 % 1028,4 hPa 0,0 mm 0,0 km/h (0 Bft) NO 56 ° 0 min 0,000 mm 0,0 UV-I 0 W/m² 4,6 °C 8,2 °C 0,0 km/h (0 Bft)
19.04.2018 00:50 7,9 °C 79 % 1028,4 hPa 0,0 mm 0,0 km/h (0 Bft) NO 56 ° 0 min 0,000 mm 0,0 UV-I 0 W/m² 4,5 °C 7,9 °C 0,0 km/h (0 Bft)
19.04.2018 00:51 7,7 °C 80 % 1028,4 hPa 0,0 mm 0,0 km/h (0 Bft) NO 56 ° 0 min 0,000 mm 0,0 UV-I 0 W/m² 4,5 °C 7,7 °C 0,0 km/h (0 Bft)
19.04.2018 00:52 7,4 °C 80 % 1028,4 hPa 0,0 mm 0,0 km/h (0 Bft) NO 56 ° 0 min 0,000 mm 0,0 UV-I 0 W/m² 4,2 °C 7,4 °C 0,0 km/h (0 Bft)
19.04.2018 00:53 7,2 °C 81 % 1028,3 hPa 0,0 mm 0,0 km/h (0 Bft) NO 56 ° 0 min 0,000 mm 0,0 UV-I 0 W/m² 4,2 °C 7,2 °C 0,0 km/h (0 Bft)
19.04.2018 00:54 7,1 °C 83 % 1028,3 hPa 0,0 mm 0,0 km/h (0 Bft) NO 56 ° 0 min 0,000 mm 0,0 UV-I 0 W/m² 4,4 °C 7,1 °C 0,0 km/h (0 Bft)
19.04.2018 00:55 6,9 °C 83 % 1028,4 hPa 0,0 mm 0,0 km/h (0 Bft) NO 56 ° 0 min 0,000 mm 0,0 UV-I 0 W/m² 4,2 °C 6,9 °C 0,0 km/h (0 Bft)
19.04.2018 00:56 6,9 °C 83 % 1028,3 hPa 0,0 mm 0,0 km/h (0 Bft) NO 56 ° 0 min 0,000 mm 0,0 UV-I 0 W/m² 4,2 °C 6,9 °C 0,0 km/h (0 Bft)
19.04.2018 00:57 6,8 °C 83 % 1028,3 hPa 0,0 mm 0,0 km/h (0 Bft) NO 56 ° 0 min 0,000 mm 0,0 UV-I 0 W/m² 4,1 °C 6,8 °C 0,0 km/h (0 Bft)
19.04.2018 00:58 6,7 °C 83 % 1028,3 hPa 0,0 mm 0,0 km/h (0 Bft) NO 56 ° 0 min 0,000 mm 0,0 UV-I 0 W/m² 4,0 °C 6,7 °C 0,0 km/h (0 Bft)
19.04.2018 00:59 6,7 °C 84 % 1028,3 hPa 0,0 mm 0,0 km/h (0 Bft) NO 56 ° 0 min 0,000 mm 0,0 UV-I 0 W/m² 4,2 °C 6,7 °C 0,0 km/h (0 Bft)
19.04.2018 01:00 6,8 °C 84 % 1028,3 hPa 0,0 mm 0,0 km/h (0 Bft) NO 56 ° 0 min 0,000 mm 0,0 UV-I 0 W/m² 4,3 °C 6,8 °C 0,0 km/h (0 Bft)
19.04.2018 01:01 6,7 °C 84 % 1028,3 hPa 0,0 mm 0,0 km/h (0 Bft) NO 56 ° 0 min 0,000 mm 0,0 UV-I 0 W/m² 4,2 °C 6,7 °C 0,0 km/h (0 Bft)
19.04.2018 01:02 6,8 °C 84 % 1028,3 hPa 0,0 mm 0,0 km/h (0 Bft) NO 56 ° 0 min 0,000 mm 0,0 UV-I 0 W/m² 4,3 °C 6,8 °C 0,0 km/h (0 Bft)
19.04.2018 01:03 6,8 °C 84 % 1028,3 hPa 0,0 mm 0,0 km/h (0 Bft) NO 56 ° 0 min 0,000 mm 0,0 UV-I 0 W/m² 4,3 °C 6,8 °C 0,0 km/h (0 Bft)
19.04.2018 01:04 6,8 °C 84 % 1028,3 hPa 0,0 mm 0,0 km/h (0 Bft) NO 56 ° 0 min 0,000 mm 0,0 UV-I 0 W/m² 4,3 °C 6,8 °C 0,0 km/h (0 Bft)
19.04.2018 01:05 7,1 °C 85 % 1028,2 hPa 0,0 mm 0,0 km/h (0 Bft) NO 56 ° 0 min 0,000 mm 0,0 UV-I 0 W/m² 4,8 °C 7,1 °C 0,0 km/h (0 Bft)
19.04.2018 01:06 7,5 °C 84 % 1028,2 hPa 0,0 mm 0,0 km/h (0 Bft) NO 56 ° 0 min 0,000 mm 0,0 UV-I 0 W/m² 5,0 °C 7,5 °C 0,0 km/h (0 Bft)
19.04.2018 01:07 7,8 °C 82 % 1028,2 hPa 0,0 mm 0,0 km/h (0 Bft) NO 56 ° 0 min 0,000 mm 0,0 UV-I 0 W/m² 4,9 °C 7,8 °C 0,0 km/h (0 Bft)
19.04.2018 01:08 7,7 °C 81 % 1028,2 hPa 0,0 mm 0,0 km/h (0 Bft) NO 56 ° 0 min 0,000 mm 0,0 UV-I 0 W/m² 4,7 °C 7,7 °C 0,0 km/h (0 Bft)
19.04.2018 01:09 7,5 °C 81 % 1028,2 hPa 0,0 mm 0,0 km/h (0 Bft) NO 56 ° 0 min 0,000 mm 0,0 UV-I 0 W/m² 4,5 °C 7,5 °C 0,0 km/h (0 Bft)
19.04.2018 01:10 7,2 °C 82 % 1028,2 hPa 0,0 mm 0,0 km/h (0 Bft) NO 56 ° 0 min 0,000 mm 0,0 UV-I 0 W/m² 4,3 °C 7,2 °C 0,0 km/h (0 Bft)
19.04.2018 01:11 7,1 °C 83 % 1028,2 hPa 0,0 mm 0,0 km/h (0 Bft) NO 56 ° 0 min 0,000 mm 0,0 UV-I 0 W/m² 4,4 °C 7,1 °C 0,0 km/h (0 Bft)
19.04.2018 01:12 6,9 °C 83 % 1028,2 hPa 0,0 mm 0,0 km/h (0 Bft) NO 56 ° 0 min 0,000 mm 0,0 UV-I 0 W/m² 4,2 °C 6,9 °C 0,0 km/h (0 Bft)
19.04.2018 01:13 6,8 °C 84 % 1028,2 hPa 0,0 mm 0,0 km/h (0 Bft) NO 56 ° 0 min 0,000 mm 0,0 UV-I 0 W/m² 4,3 °C 6,8 °C 0,0 km/h (0 Bft)
19.04.2018 01:14 6,7 °C 84 % 1028,2 hPa 0,0 mm 0,0 km/h (0 Bft) NO 56 ° 0 min 0,000 mm 0,0 UV-I 0 W/m² 4,2 °C 6,7 °C 0,0 km/h (0 Bft)
19.04.2018 01:15 6,6 °C 84 % 1028,2 hPa 0,0 mm 0,0 km/h (0 Bft) NO 56 ° 0 min 0,000 mm 0,0 UV-I 0 W/m² 4,1 °C 6,6 °C 0,0 km/h (0 Bft)
19.04.2018 01:16 6,5 °C 84 % 1028,2 hPa 0,0 mm 0,0 km/h (0 Bft) NO 56 ° 0 min 0,000 mm 0,0 UV-I 0 W/m² 4,0 °C 6,5 °C 0,0 km/h (0 Bft)
19.04.2018 01:17 6,4 °C 85 % 1028,2 hPa 0,0 mm 0,0 km/h (0 Bft) NO 56 ° 0 min 0,000 mm 0,0 UV-I 0 W/m² 4,1 °C 6,4 °C 0,0 km/h (0 Bft)
19.04.2018 01:18 6,4 °C 86 % 1028,2 hPa 0,0 mm 0,0 km/h (0 Bft) NO 56 ° 0 min 0,000 mm 0,0 UV-I 0 W/m² 4,2 °C 6,4 °C 0,0 km/h (0 Bft)
19.04.2018 01:19 6,3 °C 86 % 1028,2 hPa 0,0 mm 0,0 km/h (0 Bft) NO 56 ° 0 min 0,000 mm 0,0 UV-I 0 W/m² 4,1 °C 6,3 °C 0,0 km/h (0 Bft)
19.04.2018 01:20 6,3 °C 86 % 1028,2 hPa 0,0 mm 0,0 km/h (0 Bft) NO 56 ° 0 min 0,000 mm 0,0 UV-I 0 W/m² 4,1 °C 6,3 °C 0,0 km/h (0 Bft)
19.04.2018 01:21 6,3 °C 86 % 1028,1 hPa 0,0 mm 0,0 km/h (0 Bft) NO 56 ° 0 min 0,000 mm 0,0 UV-I 0 W/m² 4,1 °C 6,3 °C 0,0 km/h (0 Bft)
19.04.2018 01:22 6,3 °C 86 % 1028,2 hPa 0,0 mm 0,0 km/h (0 Bft) NO 56 ° 0 min 0,000 mm 0,0 UV-I 0 W/m² 4,1 °C 6,3 °C 0,0 km/h (0 Bft)
19.04.2018 01:23 6,3 °C 86 % 1028,2 hPa 0,0 mm 0,0 km/h (0 Bft) NO 56 ° 0 min 0,000 mm 0,0 UV-I 0 W/m² 4,1 °C 6,3 °C 0,0 km/h (0 Bft)
19.04.2018 01:24 6,2 °C 85 % 1028,2 hPa 0,0 mm 0,0 km/h (0 Bft) NO 56 ° 0 min 0,000 mm 0,0 UV-I 0 W/m² 3,9 °C 6,2 °C 0,0 km/h (0 Bft)
19.04.2018 01:25 6,1 °C 85 % 1028,2 hPa 0,0 mm 0,0 km/h (0 Bft) NO 56 ° 0 min 0,000 mm 0,0 UV-I 0 W/m² 3,8 °C 6,1 °C 0,0 km/h (0 Bft)
19.04.2018 01:26 6,1 °C 86 % 1028,2 hPa 0,0 mm 0,0 km/h (0 Bft) NO 56 ° 0 min 0,000 mm 0,0 UV-I 0 W/m² 3,9 °C 6,1 °C 0,0 km/h (0 Bft)
19.04.2018 01:27 6,2 °C 87 % 1028,2 hPa 0,0 mm 0,0 km/h (0 Bft) NO 56 ° 0 min 0,000 mm 0,0 UV-I 0 W/m² 4,2 °C 6,2 °C 0,0 km/h (0 Bft)
19.04.2018 01:28 6,3 °C 87 % 1028,1 hPa 0,0 mm 0,0 km/h (0 Bft) NO 56 ° 0 min 0,000 mm 0,0 UV-I 0 W/m² 4,3 °C 6,3 °C 0,0 km/h (0 Bft)
19.04.2018 01:29 6,3 °C 87 % 1028,1 hPa 0,0 mm 0,0 km/h (0 Bft) NO 56 ° 0 min 0,000 mm 0,0 UV-I 0 W/m² 4,3 °C 6,3 °C 0,0 km/h (0 Bft)
19.04.2018 01:30 6,3 °C 86 % 1028,1 hPa 0,0 mm 0,0 km/h (0 Bft) NO 56 ° 0 min 0,000 mm 0,0 UV-I 0 W/m² 4,1 °C 6,3 °C 0,0 km/h (0 Bft)
19.04.2018 01:31 6,3 °C 86 % 1028,2 hPa 0,0 mm 0,0 km/h (0 Bft) NO 56 ° 0 min 0,000 mm 0,0 UV-I 0 W/m² 4,1 °C 6,3 °C 0,0 km/h (0 Bft)
19.04.2018 01:32 6,2 °C 86 % 1028,2 hPa 0,0 mm 0,0 km/h (0 Bft) NO 56 ° 0 min 0,000 mm 0,0 UV-I 0 W/m² 4,0 °C 6,2 °C 0,0 km/h (0 Bft)
19.04.2018 01:33 6,1 °C 86 % 1028,2 hPa 0,0 mm 0,0 km/h (0 Bft) NO 56 ° 0 min 0,000 mm 0,0 UV-I 0 W/m² 3,9 °C 6,1 °C 0,0 km/h (0 Bft)
19.04.2018 01:34 6,1 °C 86 % 1028,2 hPa 0,0 mm 0,0 km/h (0 Bft) NO 56 ° 0 min 0,000 mm 0,0 UV-I 0 W/m² 3,9 °C 6,1 °C 0,0 km/h (0 Bft)
19.04.2018 01:35 6,1 °C 87 % 1028,2 hPa 0,0 mm 0,0 km/h (0 Bft) NO 56 ° 0 min 0,000 mm 0,0 UV-I 0 W/m² 4,1 °C 6,1 °C 0,0 km/h (0 Bft)
19.04.2018 01:36 6,1 °C 87 % 1028,2 hPa 0,0 mm 0,0 km/h (0 Bft) NO 56 ° 0 min 0,000 mm 0,0 UV-I 0 W/m² 4,1 °C 6,1 °C 0,0 km/h (0 Bft)
19.04.2018 01:37 6,1 °C 87 % 1028,2 hPa 0,0 mm 0,0 km/h (0 Bft) NO 56 ° 0 min 0,000 mm 0,0 UV-I 0 W/m² 4,1 °C 6,1 °C 0,0 km/h (0 Bft)
19.04.2018 01:38 6,1 °C 87 % 1028,2 hPa 0,0 mm 0,0 km/h (0 Bft) NO 56 ° 0 min 0,000 mm 0,0 UV-I 0 W/m² 4,1 °C 6,1 °C 0,0 km/h (0 Bft)
19.04.2018 01:39 6,0 °C 86 % 1028,3 hPa 0,0 mm 0,0 km/h (0 Bft) NO 56 ° 0 min 0,000 mm 0,0 UV-I 0 W/m² 3,8 °C 6,0 °C 0,0 km/h (0 Bft)
19.04.2018 01:40 5,9 °C 87 % 1028,2 hPa 0,0 mm 0,0 km/h (0 Bft) NO 56 ° 0 min 0,000 mm 0,0 UV-I 0 W/m² 3,9 °C 5,9 °C 0,0 km/h (0 Bft)
19.04.2018 01:41 5,9 °C 87 % 1028,2 hPa 0,0 mm 0,0 km/h (0 Bft) NO 56 ° 0 min 0,000 mm 0,0 UV-I 0 W/m² 3,9 °C 5,9 °C 0,0 km/h (0 Bft)
19.04.2018 01:42 6,1 °C 88 % 1028,2 hPa 0,0 mm 0,0 km/h (0 Bft) NO 56 ° 0 min 0,000 mm 0,0 UV-I 0 W/m² 4,3 °C 6,1 °C 0,0 km/h (0 Bft)
19.04.2018 01:43 6,1 °C 87 % 1028,2 hPa 0,0 mm 0,0 km/h (0 Bft) NO 56 ° 0 min 0,000 mm 0,0 UV-I 0 W/m² 4,1 °C 6,1 °C 0,0 km/h (0 Bft)
19.04.2018 01:44 6,1 °C 87 % 1028,2 hPa 0,0 mm 0,0 km/h (0 Bft) NO 56 ° 0 min 0,000 mm 0,0 UV-I 0 W/m² 4,1 °C 6,1 °C 0,0 km/h (0 Bft)
19.04.2018 01:45 6,1 °C 87 % 1028,2 hPa 0,0 mm 0,0 km/h (0 Bft) NO 56 ° 0 min 0,000 mm 0,0 UV-I 0 W/m² 4,1 °C 6,1 °C 0,0 km/h (0 Bft)
19.04.2018 01:46 6,1 °C 87 % 1028,2 hPa 0,0 mm 0,0 km/h (0 Bft) NO 56 ° 0 min 0,000 mm 0,0 UV-I 0 W/m² 4,1 °C 6,1 °C 0,0 km/h (0 Bft)
19.04.2018 01:47 6,1 °C 87 % 1028,2 hPa 0,0 mm 0,0 km/h (0 Bft) NO 56 ° 0 min 0,000 mm 0,0 UV-I 0 W/m² 4,1 °C 6,1 °C 0,0 km/h (0 Bft)
19.04.2018 01:48 6,1 °C 87 % 1028,2 hPa 0,0 mm 0,0 km/h (0 Bft) NO 56 ° 0 min 0,000 mm 0,0 UV-I 0 W/m² 4,1 °C 6,1 °C 0,0 km/h (0 Bft)
19.04.2018 01:49 6,0 °C 87 % 1028,2 hPa 0,0 mm 0,0 km/h (0 Bft) NO 56 ° 0 min 0,000 mm 0,0 UV-I 0 W/m² 4,0 °C 6,0 °C 0,0 km/h (0 Bft)
19.04.2018 01:50 6,0 °C 87 % 1028,2 hPa 0,0 mm 0,0 km/h (0 Bft) NO 56 ° 0 min 0,000 mm 0,0 UV-I 0 W/m² 4,0 °C 6,0 °C 0,0 km/h (0 Bft)
19.04.2018 01:51 6,1 °C 87 % 1028,1 hPa 0,0 mm 0,0 km/h (0 Bft) NO 56 ° 0 min 0,000 mm 0,0 UV-I 0 W/m² 4,1 °C 6,1 °C 0,0 km/h (0 Bft)
19.04.2018 01:52 6,1 °C 88 % 1028,1 hPa 0,0 mm 0,0 km/h (0 Bft) NO 56 ° 0 min 0,000 mm 0,0 UV-I 0 W/m² 4,3 °C 6,1 °C 0,0 km/h (0 Bft)
19.04.2018 01:53 6,2 °C 88 % 1028,1 hPa 0,0 mm 0,0 km/h (0 Bft) NO 56 ° 0 min 0,000 mm 0,0 UV-I 0 W/m² 4,4 °C 6,2 °C 0,0 km/h (0 Bft)
19.04.2018 01:54 6,3 °C 88 % 1028,1 hPa 0,0 mm 0,0 km/h (0 Bft) NO 56 ° 0 min 0,000 mm 0,0 UV-I 0 W/m² 4,5 °C 6,3 °C 0,0 km/h (0 Bft)
19.04.2018 01:55 6,2 °C 87 % 1028,1 hPa 0,0 mm 0,0 km/h (0 Bft) NO 56 ° 0 min 0,000 mm 0,0 UV-I 0 W/m² 4,2 °C 6,2 °C 0,0 km/h (0 Bft)
19.04.2018 01:56 6,1 °C 86 % 1028,1 hPa 0,0 mm 0,0 km/h (0 Bft) NO 56 ° 0 min 0,000 mm 0,0 UV-I 0 W/m² 3,9 °C 6,1 °C 0,0 km/h (0 Bft)
19.04.2018 01:57 6,0 °C 86 % 1028,1 hPa 0,0 mm 0,0 km/h (0 Bft) NO 56 ° 0 min 0,000 mm 0,0 UV-I 0 W/m² 3,8 °C 6,0 °C 0,0 km/h (0 Bft)
19.04.2018 01:58 5,8 °C 86 % 1028,1 hPa 0,0 mm 0,0 km/h (0 Bft) NO 56 ° 0 min 0,000 mm 0,0 UV-I 0 W/m² 3,6 °C 5,8 °C 0,0 km/h (0 Bft)
19.04.2018 01:59 5,7 °C 86 % 1028,1 hPa 0,0 mm 0,0 km/h (0 Bft) NO 56 ° 0 min 0,000 mm 0,0 UV-I 0 W/m² 3,5 °C 5,7 °C 0,0 km/h (0 Bft)
19.04.2018 02:00 5,6 °C 87 % 1028,1 hPa 0,0 mm 0,0 km/h (0 Bft) NO 56 ° 0 min 0,000 mm 0,0 UV-I 0 W/m² 3,6 °C 5,6 °C 0,0 km/h (0 Bft)
19.04.2018 02:01 5,6 °C 87 % 1028,1 hPa 0,0 mm 0,0 km/h (0 Bft) NO 56 ° 0 min 0,000 mm 0,0 UV-I 0 W/m² 3,6 °C 5,6 °C 0,0 km/h (0 Bft)
19.04.2018 02:02 5,5 °C 87 % 1028,1 hPa 0,0 mm 0,0 km/h (0 Bft) NO 56 ° 0 min 0,000 mm 0,0 UV-I 0 W/m² 3,5 °C 5,5 °C 0,0 km/h (0 Bft)
19.04.2018 02:03 5,5 °C 87 % 1028,1 hPa 0,0 mm 0,0 km/h (0 Bft) NO 56 ° 0 min 0,000 mm 0,0 UV-I 0 W/m² 3,5 °C 5,5 °C 0,0 km/h (0 Bft)
19.04.2018 02:04 5,5 °C 87 % 1028,1 hPa 0,0 mm 0,0 km/h (0 Bft) NO 56 ° 0 min 0,000 mm 0,0 UV-I 0 W/m² 3,5 °C 5,5 °C 0,0 km/h (0 Bft)
19.04.2018 02:05 5,3 °C 86 % 1028,1 hPa 0,0 mm 0,0 km/h (0 Bft) NO 56 ° 0 min 0,000 mm 0,0 UV-I 0 W/m² 3,2 °C 5,3 °C 0,0 km/h (0 Bft)
19.04.2018 02:06 5,3 °C 87 % 1028,1 hPa 0,0 mm 0,0 km/h (0 Bft) NO 56 ° 0 min 0,000 mm 0,0 UV-I 0 W/m² 3,3 °C 5,3 °C 0,0 km/h (0 Bft)
19.04.2018 02:07 5,2 °C 88 % 1028,1 hPa 0,0 mm 0,0 km/h (0 Bft) NO 56 ° 0 min 0,000 mm 0,0 UV-I 0 W/m² 3,4 °C 5,2 °C 0,0 km/h (0 Bft)
19.04.2018 02:08 5,3 °C 88 % 1028,1 hPa 0,0 mm 0,0 km/h (0 Bft) NO 56 ° 0 min 0,000 mm 0,0 UV-I 0 W/m² 3,5 °C 5,3 °C 0,0 km/h (0 Bft)
19.04.2018 02:09 5,4 °C 88 % 1028,1 hPa 0,0 mm 0,0 km/h (0 Bft) NO 56 ° 0 min 0,000 mm 0,0 UV-I 0 W/m² 3,6 °C 5,4 °C 0,0 km/h (0 Bft)
19.04.2018 02:10 5,4 °C 89 % 1028,1 hPa 0,0 mm 0,0 km/h (0 Bft) NO 56 ° 0 min 0,000 mm 0,0 UV-I 0 W/m² 3,7 °C 5,4 °C 0,0 km/h (0 Bft)
19.04.2018 02:11 5,5 °C 89 % 1028,1 hPa 0,0 mm 0,0 km/h (0 Bft) NO 56 ° 0 min 0,000 mm 0,0 UV-I 0 W/m² 3,8 °C 5,5 °C 0,0 km/h (0 Bft)
19.04.2018 02:12 5,6 °C 89 % 1028,1 hPa 0,0 mm 0,0 km/h (0 Bft) NO 56 ° 0 min 0,000 mm 0,0 UV-I 0 W/m² 3,9 °C 5,6 °C 0,0 km/h (0 Bft)
19.04.2018 02:13 5,7 °C 89 % 1028,1 hPa 0,0 mm 0,0 km/h (0 Bft) NO 56 ° 0 min 0,000 mm 0,0 UV-I 0 W/m² 4,0 °C 5,7 °C 0,0 km/h (0 Bft)
19.04.2018 02:14 5,7 °C 88 % 1028,0 hPa 0,0 mm 0,0 km/h (0 Bft) NO 56 ° 0 min 0,000 mm 0,0 UV-I 0 W/m² 3,9 °C 5,7 °C 0,0 km/h (0 Bft)
19.04.2018 02:15 5,7 °C 87 % 1028,0 hPa 0,0 mm 0,0 km/h (0 Bft) NO 56 ° 0 min 0,000 mm 0,0 UV-I 0 W/m² 3,7 °C 5,7 °C 0,0 km/h (0 Bft)
19.04.2018 02:16 5,6 °C 87 % 1028,0 hPa 0,0 mm 0,0 km/h (0 Bft) NO 56 ° 0 min 0,000 mm 0,0 UV-I 0 W/m² 3,6 °C 5,6 °C 0,0 km/h (0 Bft)
19.04.2018 02:17 5,5 °C 87 % 1028,0 hPa 0,0 mm 0,0 km/h (0 Bft) NO 56 ° 0 min 0,000 mm 0,0 UV-I 0 W/m² 3,5 °C 5,5 °C 0,0 km/h (0 Bft)
19.04.2018 02:18 5,4 °C 87 % 1028,0 hPa 0,0 mm 0,0 km/h (0 Bft) NO 56 ° 0 min 0,000 mm 0,0 UV-I 0 W/m² 3,4 °C 5,4 °C 0,0 km/h (0 Bft)
19.04.2018 02:19 5,4 °C 87 % 1028,0 hPa 0,0 mm 0,0 km/h (0 Bft) NO 56 ° 0 min 0,000 mm 0,0 UV-I 0 W/m² 3,4 °C 5,4 °C 0,0 km/h (0 Bft)
19.04.2018 02:20 5,3 °C 87 % 1028,0 hPa 0,0 mm 0,0 km/h (0 Bft) NO 56 ° 0 min 0,000 mm 0,0 UV-I 0 W/m² 3,3 °C 5,3 °C 0,0 km/h (0 Bft)
19.04.2018 02:21 5,3 °C 88 % 1028,0 hPa 0,0 mm 0,0 km/h (0 Bft) NO 56 ° 0 min 0,000 mm 0,0 UV-I 0 W/m² 3,5 °C 5,3 °C 0,0 km/h (0 Bft)
19.04.2018 02:22 5,2 °C 88 % 1028,0 hPa 0,0 mm 0,0 km/h (0 Bft) NO 56 ° 0 min 0,000 mm 0,0 UV-I 0 W/m² 3,4 °C 5,2 °C 0,0 km/h (0 Bft)
19.04.2018 02:23 5,3 °C 88 % 1027,9 hPa 0,0 mm 0,0 km/h (0 Bft) NO 56 ° 0 min 0,000 mm 0,0 UV-I 0 W/m² 3,5 °C 5,3 °C 0,0 km/h (0 Bft)
19.04.2018 02:24 5,2 °C 88 % 1027,9 hPa 0,0 mm 0,0 km/h (0 Bft) NO 56 ° 0 min 0,000 mm 0,0 UV-I 0 W/m² 3,4 °C 5,2 °C 0,0 km/h (0 Bft)
19.04.2018 02:25 5,3 °C 88 % 1027,9 hPa 0,0 mm 0,0 km/h (0 Bft) NO 56 ° 0 min 0,000 mm 0,0 UV-I 0 W/m² 3,5 °C 5,3 °C 0,0 km/h (0 Bft)
19.04.2018 02:26 5,2 °C 87 % 1028,0 hPa 0,0 mm 0,0 km/h (0 Bft) NO 56 ° 0 min 0,000 mm 0,0 UV-I 0 W/m² 3,2 °C 5,2 °C 0,0 km/h (0 Bft)
19.04.2018 02:27 5,1 °C 87 % 1027,9 hPa 0,0 mm 0,0 km/h (0 Bft) NO 56 ° 0 min 0,000 mm 0,0 UV-I 0 W/m² 3,1 °C 5,1 °C 0,0 km/h (0 Bft)
19.04.2018 02:28 5,1 °C 88 % 1027,9 hPa 0,0 mm 0,0 km/h (0 Bft) NO 56 ° 0 min 0,000 mm 0,0 UV-I 0 W/m² 3,3 °C 5,1 °C 0,0 km/h (0 Bft)
19.04.2018 02:29 5,2 °C 88 % 1027,9 hPa 0,0 mm 0,0 km/h (0 Bft) NO 56 ° 0 min 0,000 mm 0,0 UV-I 0 W/m² 3,4 °C 5,2 °C 0,0 km/h (0 Bft)
19.04.2018 02:30 5,2 °C 88 % 1027,9 hPa 0,0 mm 0,0 km/h (0 Bft) NO 56 ° 0 min 0,000 mm 0,0 UV-I 0 W/m² 3,4 °C 5,2 °C 0,0 km/h (0 Bft)
19.04.2018 02:31 5,3 °C 88 % 1027,9 hPa 0,0 mm 0,0 km/h (0 Bft) NO 56 ° 0 min 0,000 mm 0,0 UV-I 0 W/m² 3,5 °C 5,3 °C 0,0 km/h (0 Bft)
19.04.2018 02:32 5,3 °C 89 % 1027,9 hPa 0,0 mm 0,0 km/h (0 Bft) NO 56 ° 0 min 0,000 mm 0,0 UV-I 0 W/m² 3,6 °C 5,3 °C 0,0 km/h (0 Bft)
19.04.2018 02:33 5,4 °C 89 % 1027,9 hPa 0,0 mm 0,0 km/h (0 Bft) NO 56 ° 0 min 0,000 mm 0,0 UV-I 0 W/m² 3,7 °C 5,4 °C 0,0 km/h (0 Bft)
19.04.2018 02:34 5,5 °C 89 % 1027,9 hPa 0,0 mm 0,0 km/h (0 Bft) NO 56 ° 0 min 0,000 mm 0,0 UV-I 0 W/m² 3,8 °C 5,5 °C 0,0 km/h (0 Bft)
19.04.2018 02:35 5,6 °C 89 % 1027,9 hPa 0,0 mm 0,0 km/h (0 Bft) NO 56 ° 0 min 0,000 mm 0,0 UV-I 0 W/m² 3,9 °C 5,6 °C 0,0 km/h (0 Bft)
19.04.2018 02:36 5,7 °C 88 % 1027,9 hPa 0,0 mm 0,0 km/h (0 Bft) NO 56 ° 0 min 0,000 mm 0,0 UV-I 0 W/m² 3,9 °C 5,7 °C 0,0 km/h (0 Bft)
19.04.2018 02:37 5,7 °C 88 % 1027,9 hPa 0,0 mm 0,0 km/h (0 Bft) NO 56 ° 0 min 0,000 mm 0,0 UV-I 0 W/m² 3,9 °C 5,7 °C 0,0 km/h (0 Bft)
19.04.2018 02:38 5,8 °C 88 % 1027,9 hPa 0,0 mm 0,0 km/h (0 Bft) NO 56 ° 0 min 0,000 mm 0,0 UV-I 0 W/m² 4,0 °C 5,8 °C 0,0 km/h (0 Bft)
19.04.2018 02:39 5,9 °C 88 % 1027,9 hPa 0,0 mm 0,0 km/h (0 Bft) NO 56 ° 0 min 0,000 mm 0,0 UV-I 0 W/m² 4,1 °C 5,9 °C 0,0 km/h (0 Bft)
19.04.2018 02:40 5,9 °C 88 % 1027,9 hPa 0,0 mm 0,0 km/h (0 Bft) NO 56 ° 0 min 0,000 mm 0,0 UV-I 0 W/m² 4,1 °C 5,9 °C 0,0 km/h (0 Bft)
19.04.2018 02:41 5,8 °C 86 % 1027,9 hPa 0,0 mm 0,0 km/h (0 Bft) NO 56 ° 0 min 0,000 mm 0,0 UV-I 0 W/m² 3,6 °C 5,8 °C 0,0 km/h (0 Bft)
19.04.2018 02:42 5,6 °C 86 % 1027,9 hPa 0,0 mm 0,0 km/h (0 Bft) NO 56 ° 0 min 0,000 mm 0,0 UV-I 0 W/m² 3,4 °C 5,6 °C 0,0 km/h (0 Bft)
19.04.2018 02:43 5,4 °C 86 % 1027,9 hPa 0,0 mm 0,0 km/h (0 Bft) NO 56 ° 0 min 0,000 mm 0,0 UV-I 0 W/m² 3,3 °C 5,4 °C 0,0 km/h (0 Bft)
19.04.2018 02:44 5,3 °C 86 % 1027,9 hPa 0,0 mm 0,0 km/h (0 Bft) NO 56 ° 0 min 0,000 mm 0,0 UV-I 0 W/m² 3,2 °C 5,3 °C 0,0 km/h (0 Bft)
19.04.2018 02:45 5,3 °C 88 % 1027,9 hPa 0,0 mm 0,0 km/h (0 Bft) NO 56 ° 0 min 0,000 mm 0,0 UV-I 0 W/m² 3,5 °C 5,3 °C 0,0 km/h (0 Bft)
19.04.2018 02:46 5,2 °C 87 % 1027,9 hPa 0,0 mm 0,0 km/h (0 Bft) NO 56 ° 0 min 0,000 mm 0,0 UV-I 0 W/m² 3,2 °C 5,2 °C 0,0 km/h (0 Bft)
19.04.2018 02:47 5,2 °C 87 % 1027,9 hPa 0,0 mm 0,0 km/h (0 Bft) NO 56 ° 0 min 0,000 mm 0,0 UV-I 0 W/m² 3,2 °C 5,2 °C 0,0 km/h (0 Bft)
19.04.2018 02:48 5,0 °C 87 % 1027,9 hPa 0,0 mm 0,0 km/h (0 Bft) NO 56 ° 0 min 0,000 mm 0,0 UV-I 0 W/m² 3,0 °C 5,0 °C 0,0 km/h (0 Bft)
19.04.2018 02:49 4,8 °C 87 % 1027,9 hPa 0,0 mm 0,0 km/h (0 Bft) NO 56 ° 0 min 0,000 mm 0,0 UV-I 0 W/m² 2,8 °C 4,8 °C 0,0 km/h (0 Bft)
19.04.2018 02:50 4,9 °C 88 % 1027,9 hPa 0,0 mm 0,0 km/h (0 Bft) NO 56 ° 0 min 0,000 mm 0,0 UV-I 0 W/m² 3,1 °C 4,9 °C 0,0 km/h (0 Bft)
19.04.2018 02:51 5,1 °C 89 % 1027,9 hPa 0,0 mm 0,0 km/h (0 Bft) NO 56 ° 0 min 0,000 mm 0,0 UV-I 0 W/m² 3,4 °C 5,1 °C 0,0 km/h (0 Bft)
19.04.2018 02:52 5,1 °C 88 % 1027,9 hPa 0,0 mm 0,0 km/h (0 Bft) NO 56 ° 0 min 0,000 mm 0,0 UV-I 0 W/m² 3,3 °C 5,1 °C 0,0 km/h (0 Bft)
19.04.2018 02:53 4,9 °C 87 % 1027,9 hPa 0,0 mm 0,0 km/h (0 Bft) NO 56 ° 0 min 0,000 mm 0,0 UV-I 0 W/m² 2,9 °C 4,9 °C 0,0 km/h (0 Bft)
19.04.2018 02:54 4,7 °C 87 % 1027,9 hPa 0,0 mm 0,0 km/h (0 Bft) NO 56 ° 0 min 0,000 mm 0,0 UV-I 0 W/m² 2,7 °C 4,7 °C 0,0 km/h (0 Bft)
19.04.2018 02:55 4,6 °C 87 % 1027,9 hPa 0,0 mm 0,0 km/h (0 Bft) NO 56 ° 0 min 0,000 mm 0,0 UV-I 0 W/m² 2,6 °C 4,6 °C 0,0 km/h (0 Bft)
19.04.2018 02:56 4,7 °C 88 % 1027,9 hPa 0,0 mm 0,0 km/h (0 Bft) NO 56 ° 0 min 0,000 mm 0,0 UV-I 0 W/m² 2,9 °C 4,7 °C 0,0 km/h (0 Bft)
19.04.2018 02:57 4,7 °C 88 % 1027,8 hPa 0,0 mm 0,0 km/h (0 Bft) NO 56 ° 0 min 0,000 mm 0,0 UV-I 0 W/m² 2,9 °C 4,7 °C 0,0 km/h (0 Bft)
19.04.2018 02:58 4,6 °C 87 % 1027,8 hPa 0,0 mm 0,0 km/h (0 Bft) NO 56 ° 0 min 0,000 mm 0,0 UV-I 0 W/m² 2,6 °C 4,6 °C 0,0 km/h (0 Bft)
19.04.2018 02:59 4,5 °C 88 % 1027,8 hPa 0,0 mm 0,0 km/h (0 Bft) NO 56 ° 0 min 0,000 mm 0,0 UV-I 0 W/m² 2,7 °C 4,5 °C 0,0 km/h (0 Bft)
19.04.2018 03:00 4,6 °C 89 % 1027,8 hPa 0,0 mm 0,0 km/h (0 Bft) NO 56 ° 0 min 0,000 mm 0,0 UV-I 0 W/m² 2,9 °C 4,6 °C 0,0 km/h (0 Bft)
19.04.2018 03:01 4,6 °C 89 % 1027,8 hPa 0,0 mm 0,0 km/h (0 Bft) NO 56 ° 0 min 0,000 mm 0,0 UV-I 0 W/m² 2,9 °C 4,6 °C 0,0 km/h (0 Bft)
19.04.2018 03:02 4,6 °C 89 % 1027,8 hPa 0,0 mm 0,0 km/h (0 Bft) NO 56 ° 0 min 0,000 mm 0,0 UV-I 0 W/m² 2,9 °C 4,6 °C 0,0 km/h (0 Bft)
19.04.2018 03:03 4,6 °C 88 % 1027,8 hPa 0,0 mm 0,0 km/h (0 Bft) NO 56 ° 0 min 0,000 mm 0,0 UV-I 0 W/m² 2,8 °C 4,6 °C 0,0 km/h (0 Bft)
19.04.2018 03:04 4,6 °C 89 % 1027,8 hPa 0,0 mm 0,0 km/h (0 Bft) NO 56 ° 0 min 0,000 mm 0,0 UV-I 0 W/m² 2,9 °C 4,6 °C 0,0 km/h (0 Bft)
19.04.2018 03:05 4,7 °C 90 % 1027,8 hPa 0,0 mm 0,0 km/h (0 Bft) NO 56 ° 0 min 0,000 mm 0,0 UV-I 0 W/m² 3,2 °C 4,7 °C 0,0 km/h (0 Bft)
19.04.2018 03:06 4,8 °C 89 % 1027,8 hPa 0,0 mm 0,0 km/h (0 Bft) NO 56 ° 0 min 0,000 mm 0,0 UV-I 0 W/m² 3,1 °C 4,8 °C 0,0 km/h (0 Bft)
19.04.2018 03:07 4,8 °C 89 % 1027,8 hPa 0,0 mm 0,0 km/h (0 Bft) NO 56 ° 0 min 0,000 mm 0,0 UV-I 0 W/m² 3,1 °C 4,8 °C 0,0 km/h (0 Bft)
19.04.2018 03:08 4,8 °C 89 % 1027,8 hPa 0,0 mm 0,0 km/h (0 Bft) NO 56 ° 0 min 0,000 mm 0,0 UV-I 0 W/m² 3,1 °C 4,8 °C 0,0 km/h (0 Bft)
19.04.2018 03:09 4,9 °C 89 % 1027,8 hPa 0,0 mm 0,0 km/h (0 Bft) NO 56 ° 0 min 0,000 mm 0,0 UV-I 0 W/m² 3,2 °C 4,9 °C 0,0 km/h (0 Bft)
19.04.2018 03:10 4,9 °C 89 % 1027,7 hPa 0,0 mm 0,0 km/h (0 Bft) NO 56 ° 0 min 0,000 mm 0,0 UV-I 0 W/m² 3,2 °C 4,9 °C 0,0 km/h (0 Bft)
19.04.2018 03:11 4,9 °C 89 % 1027,7 hPa 0,0 mm 0,0 km/h (0 Bft) NO 56 ° 0 min 0,000 mm 0,0 UV-I 0 W/m² 3,2 °C 4,9 °C 0,0 km/h (0 Bft)
19.04.2018 03:12 4,8 °C 88 % 1027,7 hPa 0,0 mm 0,0 km/h (0 Bft) NO 56 ° 0 min 0,000 mm 0,0 UV-I 0 W/m² 3,0 °C 4,8 °C 0,0 km/h (0 Bft)
19.04.2018 03:13 4,7 °C 87 % 1027,7 hPa 0,0 mm 0,0 km/h (0 Bft) NO 56 ° 0 min 0,000 mm 0,0 UV-I 0 W/m² 2,7 °C 4,7 °C 0,0 km/h (0 Bft)
19.04.2018 03:14 4,6 °C 87 % 1027,7 hPa 0,0 mm 0,0 km/h (0 Bft) NO 56 ° 0 min 0,000 mm 0,0 UV-I 0 W/m² 2,6 °C 4,6 °C 0,0 km/h (0 Bft)
19.04.2018 03:15 4,5 °C 88 % 1027,7 hPa 0,0 mm 0,0 km/h (0 Bft) NO 56 ° 0 min 0,000 mm 0,0 UV-I 0 W/m² 2,7 °C 4,5 °C 0,0 km/h (0 Bft)
19.04.2018 03:16 4,5 °C 89 % 1027,6 hPa 0,0 mm 0,0 km/h (0 Bft) NO 56 ° 0 min 0,000 mm 0,0 UV-I 0 W/m² 2,8 °C 4,5 °C 0,0 km/h (0 Bft)
19.04.2018 03:17 4,6 °C 89 % 1027,7 hPa 0,0 mm 0,0 km/h (0 Bft) NO 56 ° 0 min 0,000 mm 0,0 UV-I 0 W/m² 2,9 °C 4,6 °C 0,0 km/h (0 Bft)
19.04.2018 03:18 4,7 °C 89 % 1027,7 hPa 0,0 mm 0,0 km/h (0 Bft) NO 56 ° 0 min 0,000 mm 0,0 UV-I 0 W/m² 3,0 °C 4,7 °C 0,0 km/h (0 Bft)
19.04.2018 03:19 4,7 °C 89 % 1027,6 hPa 0,0 mm 0,0 km/h (0 Bft) NO 56 ° 0 min 0,000 mm 0,0 UV-I 0 W/m² 3,0 °C 4,7 °C 0,0 km/h (0 Bft)
19.04.2018 03:20 4,7 °C 88 % 1027,7 hPa 0,0 mm 0,0 km/h (0 Bft) NO 56 ° 0 min 0,000 mm 0,0 UV-I 0 W/m² 2,9 °C 4,7 °C 0,0 km/h (0 Bft)
19.04.2018 03:21 4,6 °C 88 % 1027,6 hPa 0,0 mm 0,0 km/h (0 Bft) NO 56 ° 0 min 0,000 mm 0,0 UV-I 0 W/m² 2,8 °C 4,6 °C 0,0 km/h (0 Bft)
19.04.2018 03:22 4,4 °C 88 % 1027,6 hPa 0,0 mm 0,0 km/h (0 Bft) NO 56 ° 0 min 0,000 mm 0,0 UV-I 0 W/m² 2,6 °C 4,4 °C 0,0 km/h (0 Bft)
19.04.2018 03:23 4,3 °C 88 % 1027,6 hPa 0,0 mm 0,0 km/h (0 Bft) NO 56 ° 0 min 0,000 mm 0,0 UV-I 0 W/m² 2,5 °C 4,3 °C 0,0 km/h (0 Bft)
19.04.2018 03:24 4,3 °C 88 % 1027,6 hPa 0,0 mm 0,0 km/h (0 Bft) NO 56 ° 0 min 0,000 mm 0,0 UV-I 0 W/m² 2,5 °C 4,3 °C 0,0 km/h (0 Bft)
19.04.2018 03:25 4,3 °C 89 % 1027,6 hPa 0,0 mm 0,0 km/h (0 Bft) NO 56 ° 0 min 0,000 mm 0,0 UV-I 0 W/m² 2,7 °C 4,3 °C 0,0 km/h (0 Bft)
19.04.2018 03:26 4,4 °C 89 % 1027,6 hPa 0,0 mm 0,0 km/h (0 Bft) NO 56 ° 0 min 0,000 mm 0,0 UV-I 0 W/m² 2,7 °C 4,4 °C 0,0 km/h (0 Bft)
19.04.2018 03:27 4,4 °C 89 % 1027,6 hPa 0,0 mm 0,0 km/h (0 Bft) NO 56 ° 0 min 0,000 mm 0,0 UV-I 0 W/m² 2,7 °C 4,4 °C 0,0 km/h (0 Bft)
19.04.2018 03:28 4,5 °C 89 % 1027,6 hPa 0,0 mm 0,0 km/h (0 Bft) NO 56 ° 0 min 0,000 mm 0,0 UV-I 0 W/m² 2,8 °C 4,5 °C 0,0 km/h (0 Bft)
19.04.2018 03:29 4,5 °C 89 % 1027,6 hPa 0,0 mm 0,0 km/h (0 Bft) NO 56 ° 0 min 0,000 mm 0,0 UV-I 0 W/m² 2,8 °C 4,5 °C 0,0 km/h (0 Bft)
19.04.2018 03:30 4,4 °C 89 % 1027,6 hPa 0,0 mm 0,0 km/h (0 Bft) NO 56 ° 0 min 0,000 mm 0,0 UV-I 0 W/m² 2,7 °C 4,4 °C 0,0 km/h (0 Bft)
19.04.2018 03:31 4,3 °C 88 % 1027,5 hPa 0,0 mm 0,0 km/h (0 Bft) NO 56 ° 0 min 0,000 mm 0,0 UV-I 0 W/m² 2,5 °C 4,3 °C 0,0 km/h (0 Bft)
19.04.2018 03:32 4,3 °C 89 % 1027,6 hPa 0,0 mm 0,0 km/h (0 Bft) NO 56 ° 0 min 0,000 mm 0,0 UV-I 0 W/m² 2,7 °C 4,3 °C 0,0 km/h (0 Bft)
19.04.2018 03:33 4,3 °C 89 % 1027,6 hPa 0,0 mm 0,0 km/h (0 Bft) NO 56 ° 0 min 0,000 mm 0,0 UV-I 0 W/m² 2,7 °C 4,3 °C 0,0 km/h (0 Bft)
19.04.2018 03:34 4,3 °C 89 % 1027,6 hPa 0,0 mm 0,0 km/h (0 Bft) NO 56 ° 0 min 0,000 mm 0,0 UV-I 0 W/m² 2,7 °C 4,3 °C 0,0 km/h (0 Bft)
19.04.2018 03:35 4,3 °C 89 % 1027,6 hPa 0,0 mm 0,0 km/h (0 Bft) NO 56 ° 0 min 0,000 mm 0,0 UV-I 0 W/m² 2,7 °C 4,3 °C 0,0 km/h (0 Bft)
19.04.2018 03:36 4,3 °C 89 % 1027,5 hPa 0,0 mm 0,0 km/h (0 Bft) NO 56 ° 0 min 0,000 mm 0,0 UV-I 0 W/m² 2,7 °C 4,3 °C 0,0 km/h (0 Bft)
19.04.2018 03:37 4,3 °C 89 % 1027,5 hPa 0,0 mm 0,0 km/h (0 Bft) NO 56 ° 0 min 0,000 mm 0,0 UV-I 0 W/m² 2,7 °C 4,3 °C 0,0 km/h (0 Bft)
19.04.2018 03:38 4,3 °C 89 % 1027,5 hPa 0,0 mm 0,0 km/h (0 Bft) NO 56 ° 0 min 0,000 mm 0,0 UV-I 0 W/m² 2,7 °C 4,3 °C 0,0 km/h (0 Bft)
19.04.2018 03:39 4,3 °C 89 % 1027,5 hPa 0,0 mm 0,0 km/h (0 Bft) NO 56 ° 0 min 0,000 mm 0,0 UV-I 0 W/m² 2,7 °C 4,3 °C 0,0 km/h (0 Bft)
19.04.2018 03:40 4,3 °C 89 % 1027,6 hPa 0,0 mm 0,0 km/h (0 Bft) NO 56 ° 0 min 0,000 mm 0,0 UV-I 0 W/m² 2,7 °C 4,3 °C 0,0 km/h (0 Bft)
19.04.2018 03:41 4,4 °C 89 % 1027,5 hPa 0,0 mm 0,0 km/h (0 Bft) NO 56 ° 0 min 0,000 mm 0,0 UV-I 0 W/m² 2,7 °C 4,4 °C 0,0 km/h (0 Bft)
19.04.2018 03:42 4,5 °C 90 % 1027,5 hPa 0,0 mm 0,0 km/h (0 Bft) NO 56 ° 0 min 0,000 mm 0,0 UV-I 0 W/m² 3,0 °C 4,5 °C 0,0 km/h (0 Bft)
19.04.2018 03:43 4,5 °C 89 % 1027,5 hPa 0,0 mm 0,0 km/h (0 Bft) NO 56 ° 0 min 0,000 mm 0,0 UV-I 0 W/m² 2,8 °C 4,5 °C 0,0 km/h (0 Bft)
19.04.2018 03:44 4,6 °C 89 % 1027,5 hPa 0,0 mm 0,0 km/h (0 Bft) NO 56 ° 0 min 0,000 mm 0,0 UV-I 0 W/m² 2,9 °C 4,6 °C 0,0 km/h (0 Bft)
19.04.2018 03:45 4,6 °C 89 % 1027,5 hPa 0,0 mm 0,0 km/h (0 Bft) NO 56 ° 0 min 0,000 mm 0,0 UV-I 0 W/m² 2,9 °C 4,6 °C 0,0 km/h (0 Bft)
19.04.2018 03:46 4,6 °C 89 % 1027,5 hPa 0,0 mm 0,0 km/h (0 Bft) NO 56 ° 0 min 0,000 mm 0,0 UV-I 0 W/m² 2,9 °C 4,6 °C 0,0 km/h (0 Bft)
19.04.2018 03:47 4,6 °C 90 % 1027,5 hPa 0,0 mm 0,0 km/h (0 Bft) NO 56 ° 0 min 0,000 mm 0,0 UV-I 0 W/m² 3,1 °C 4,6 °C 0,0 km/h (0 Bft)
19.04.2018 03:48 4,6 °C 90 % 1027,5 hPa 0,0 mm 0,0 km/h (0 Bft) NO 56 ° 0 min 0,000 mm 0,0 UV-I 0 W/m² 3,1 °C 4,6 °C 0,0 km/h (0 Bft)
19.04.2018 03:49 4,7 °C 89 % 1027,5 hPa 0,0 mm 0,0 km/h (0 Bft) NO 56 ° 0 min 0,000 mm 0,0 UV-I 0 W/m² 3,0 °C 4,7 °C 0,0 km/h (0 Bft)
19.04.2018 03:50 4,7 °C 89 % 1027,5 hPa 0,0 mm 0,0 km/h (0 Bft) NO 56 ° 0 min 0,000 mm 0,0 UV-I 0 W/m² 3,0 °C 4,7 °C 0,0 km/h (0 Bft)
19.04.2018 03:51 4,7 °C 89 % 1027,4 hPa 0,0 mm 0,0 km/h (0 Bft) NO 56 ° 0 min 0,000 mm 0,0 UV-I 0 W/m² 3,0 °C 4,7 °C 0,0 km/h (0 Bft)
19.04.2018 03:52 4,8 °C 89 % 1027,4 hPa 0,0 mm 0,0 km/h (0 Bft) NO 56 ° 0 min 0,000 mm 0,0 UV-I 0 W/m² 3,1 °C 4,8 °C 0,0 km/h (0 Bft)
19.04.2018 03:53 4,8 °C 90 % 1027,4 hPa 0,0 mm 0,0 km/h (0 Bft) NO 56 ° 0 min 0,000 mm 0,0 UV-I 0 W/m² 3,3 °C 4,8 °C 0,0 km/h (0 Bft)
19.04.2018 03:54 4,9 °C 89 % 1027,4 hPa 0,0 mm 0,0 km/h (0 Bft) NO 56 ° 0 min 0,000 mm 0,0 UV-I 0 W/m² 3,2 °C 4,9 °C 0,0 km/h (0 Bft)
19.04.2018 03:55 4,9 °C 89 % 1027,5 hPa 0,0 mm 0,0 km/h (0 Bft) NO 56 ° 0 min 0,000 mm 0,0 UV-I 0 W/m² 3,2 °C 4,9 °C 0,0 km/h (0 Bft)
19.04.2018 03:56 4,8 °C 88 % 1027,5 hPa 0,0 mm 0,0 km/h (0 Bft) NO 56 ° 0 min 0,000 mm 0,0 UV-I 0 W/m² 3,0 °C 4,8 °C 0,0 km/h (0 Bft)
19.04.2018 03:57 4,7 °C 88 % 1027,4 hPa 0,0 mm 0,0 km/h (0 Bft) NO 56 ° 0 min 0,000 mm 0,0 UV-I 0 W/m² 2,9 °C 4,7 °C 0,0 km/h (0 Bft)
19.04.2018 03:58 4,6 °C 88 % 1027,4 hPa 0,0 mm 0,0 km/h (0 Bft) NO 56 ° 0 min 0,000 mm 0,0 UV-I 0 W/m² 2,8 °C 4,6 °C 0,0 km/h (0 Bft)
19.04.2018 03:59 4,6 °C 89 % 1027,4 hPa 0,0 mm 0,0 km/h (0 Bft) NO 56 ° 0 min 0,000 mm 0,0 UV-I 0 W/m² 2,9 °C 4,6 °C 0,0 km/h (0 Bft)
19.04.2018 04:00 4,6 °C 89 % 1027,4 hPa 0,0 mm 0,0 km/h (0 Bft) NO 56 ° 0 min 0,000 mm 0,0 UV-I 0 W/m² 2,9 °C 4,6 °C 0,0 km/h (0 Bft)
19.04.2018 04:02 4,2 °C 88 % 1027,4 hPa 0,0 mm 0,0 km/h (0 Bft) NO 56 ° 0 min 0,000 mm 0,0 UV-I 0 W/m² 2,4 °C 4,2 °C 0,0 km/h (0 Bft)
19.04.2018 04:03 4,1 °C 87 % 1027,4 hPa 0,0 mm 0,0 km/h (0 Bft) NO 56 ° 0 min 0,000 mm 0,0 UV-I 0 W/m² 2,1 °C 4,1 °C 0,0 km/h (0 Bft)
19.04.2018 04:04 3,9 °C 88 % 1027,4 hPa 0,0 mm 0,0 km/h (0 Bft) NO 56 ° 0 min 0,000 mm 0,0 UV-I 0 W/m² 2,1 °C 3,9 °C 0,0 km/h (0 Bft)
19.04.2018 04:05 3,8 °C 88 % 1027,4 hPa 0,0 mm 0,0 km/h (0 Bft) NO 56 ° 0 min 0,000 mm 0,0 UV-I 0 W/m² 2,0 °C 3,8 °C 0,0 km/h (0 Bft)
19.04.2018 04:06 3,8 °C 88 % 1027,4 hPa 0,0 mm 0,0 km/h (0 Bft) NO 56 ° 0 min 0,000 mm 0,0 UV-I 0 W/m² 2,0 °C 3,8 °C 0,0 km/h (0 Bft)
19.04.2018 04:07 3,7 °C 88 % 1027,4 hPa 0,0 mm 0,0 km/h (0 Bft) NO 56 ° 0 min 0,000 mm 0,0 UV-I 0 W/m² 1,9 °C 3,7 °C 0,0 km/h (0 Bft)
19.04.2018 04:08 3,5 °C 89 % 1027,4 hPa 0,0 mm 0,0 km/h (0 Bft) NO 56 ° 0 min 0,000 mm 0,0 UV-I 0 W/m² 1,9 °C 3,5 °C 0,0 km/h (0 Bft)
19.04.2018 04:09 3,4 °C 89 % 1027,4 hPa 0,0 mm 0,0 km/h (0 Bft) NO 56 ° 0 min 0,000 mm 0,0 UV-I 0 W/m² 1,8 °C 3,4 °C 0,0 km/h (0 Bft)
19.04.2018 04:10 3,5 °C 89 % 1027,4 hPa 0,0 mm 0,0 km/h (0 Bft) NO 56 ° 0 min 0,000 mm 0,0 UV-I 0 W/m² 1,9 °C 3,5 °C 0,0 km/h (0 Bft)
19.04.2018 04:11 3,6 °C 90 % 1027,4 hPa 0,0 mm 0,0 km/h (0 Bft) NO 56 ° 0 min 0,000 mm 0,0 UV-I 0 W/m² 2,1 °C 3,6 °C 0,0 km/h (0 Bft)
19.04.2018 04:12 3,8 °C 90 % 1027,4 hPa 0,0 mm 0,0 km/h (0 Bft) NO 56 ° 0 min 0,000 mm 0,0 UV-I 0 W/m² 2,3 °C 3,8 °C 0,0 km/h (0 Bft)
19.04.2018 04:13 3,8 °C 90 % 1027,4 hPa 0,0 mm 0,0 km/h (0 Bft) NO 56 ° 0 min 0,000 mm 0,0 UV-I 0 W/m² 2,3 °C 3,8 °C 0,0 km/h (0 Bft)
19.04.2018 04:14 3,8 °C 90 % 1027,4 hPa 0,0 mm 0,0 km/h (0 Bft) NO 56 ° 0 min 0,000 mm 0,0 UV-I 0 W/m² 2,3 °C 3,8 °C 0,0 km/h (0 Bft)
19.04.2018 04:15 3,8 °C 90 % 1027,3 hPa 0,0 mm 0,0 km/h (0 Bft) NO 56 ° 0 min 0,000 mm 0,0 UV-I 0 W/m² 2,3 °C 3,8 °C 0,0 km/h (0 Bft)
19.04.2018 04:16 3,8 °C 90 % 1027,3 hPa 0,0 mm 0,0 km/h (0 Bft) NO 56 ° 0 min 0,000 mm 0,0 UV-I 0 W/m² 2,3 °C 3,8 °C 0,0 km/h (0 Bft)
19.04.2018 04:17 3,8 °C 90 % 1027,3 hPa 0,0 mm 0,0 km/h (0 Bft) NO 56 ° 0 min 0,000 mm 0,0 UV-I 0 W/m² 2,3 °C 3,8 °C 0,0 km/h (0 Bft)
19.04.2018 04:18 3,9 °C 90 % 1027,3 hPa 0,0 mm 0,0 km/h (0 Bft) NO 56 ° 0 min 0,000 mm 0,0 UV-I 0 W/m² 2,4 °C 3,9 °C 0,0 km/h (0 Bft)
19.04.2018 04:19 3,9 °C 90 % 1027,3 hPa 0,0 mm 0,0 km/h (0 Bft) NO 56 ° 0 min 0,000 mm 0,0 UV-I 0 W/m² 2,4 °C 3,9 °C 0,0 km/h (0 Bft)
19.04.2018 04:20 3,9 °C 90 % 1027,3 hPa 0,0 mm 0,0 km/h (0 Bft) NO 56 ° 0 min 0,000 mm 0,0 UV-I 0 W/m² 2,4 °C 3,9 °C 0,0 km/h (0 Bft)
19.04.2018 04:21 4,0 °C 90 % 1027,3 hPa 0,0 mm 0,0 km/h (0 Bft) NO 56 ° 0 min 0,000 mm 0,0 UV-I 0 W/m² 2,5 °C 4,0 °C 0,0 km/h (0 Bft)
19.04.2018 04:22 4,0 °C 90 % 1027,3 hPa 0,0 mm 0,0 km/h (0 Bft) NO 56 ° 0 min 0,000 mm 0,0 UV-I 0 W/m² 2,5 °C 4,0 °C 0,0 km/h (0 Bft)
19.04.2018 04:23 4,1 °C 90 % 1027,2 hPa 0,0 mm 0,0 km/h (0 Bft) NO 56 ° 0 min 0,000 mm 0,0 UV-I 0 W/m² 2,6 °C 4,1 °C 0,0 km/h (0 Bft)
19.04.2018 04:24 4,1 °C 91 % 1027,2 hPa 0,0 mm 0,0 km/h (0 Bft) NO 56 ° 0 min 0,000 mm 0,0 UV-I 0 W/m² 2,8 °C 4,1 °C 0,0 km/h (0 Bft)
19.04.2018 04:25 4,2 °C 91 % 1027,2 hPa 0,0 mm 0,0 km/h (0 Bft) NO 56 ° 0 min 0,000 mm 0,0 UV-I 0 W/m² 2,9 °C 4,2 °C 0,0 km/h (0 Bft)
19.04.2018 04:26 4,3 °C 91 % 1027,2 hPa 0,0 mm 0,0 km/h (0 Bft) NO 56 ° 0 min 0,000 mm 0,0 UV-I 0 W/m² 3,0 °C 4,3 °C 0,0 km/h (0 Bft)
19.04.2018 04:27 4,2 °C 90 % 1027,2 hPa 0,0 mm 0,0 km/h (0 Bft) NO 56 ° 0 min 0,000 mm 0,0 UV-I 0 W/m² 2,7 °C 4,2 °C 0,0 km/h (0 Bft)
19.04.2018 04:28 4,2 °C 90 % 1027,2 hPa 0,0 mm 0,0 km/h (0 Bft) NO 56 ° 0 min 0,000 mm 0,0 UV-I 0 W/m² 2,7 °C 4,2 °C 0,0 km/h (0 Bft)
19.04.2018 04:29 4,1 °C 90 % 1027,2 hPa 0,0 mm 0,0 km/h (0 Bft) NO 56 ° 0 min 0,000 mm 0,0 UV-I 0 W/m² 2,6 °C 4,1 °C 0,0 km/h (0 Bft)
19.04.2018 04:30 4,0 °C 90 % 1027,2 hPa 0,0 mm 0,0 km/h (0 Bft) NO 56 ° 0 min 0,000 mm 0,0 UV-I 0 W/m² 2,5 °C 4,0 °C 0,0 km/h (0 Bft)
19.04.2018 04:31 4,0 °C 90 % 1027,2 hPa 0,0 mm 0,0 km/h (0 Bft) NO 56 ° 0 min 0,000 mm 0,0 UV-I 0 W/m² 2,5 °C 4,0 °C 0,0 km/h (0 Bft)
19.04.2018 04:32 4,0 °C 90 % 1027,2 hPa 0,0 mm 0,0 km/h (0 Bft) NO 56 ° 0 min 0,000 mm 0,0 UV-I 0 W/m² 2,5 °C 4,0 °C 0,0 km/h (0 Bft)
19.04.2018 04:33 4,0 °C 90 % 1027,1 hPa 0,0 mm 0,0 km/h (0 Bft) NO 56 ° 0 min 0,000 mm 0,0 UV-I 0 W/m² 2,5 °C 4,0 °C 0,0 km/h (0 Bft)
19.04.2018 04:34 4,1 °C 91 % 1027,1 hPa 0,0 mm 0,0 km/h (0 Bft) NO 56 ° 0 min 0,000 mm 0,0 UV-I 0 W/m² 2,8 °C 4,1 °C 0,0 km/h (0 Bft)
19.04.2018 04:35 4,2 °C 91 % 1027,1 hPa 0,0 mm 0,0 km/h (0 Bft) NO 56 ° 0 min 0,000 mm 0,0 UV-I 0 W/m² 2,9 °C 4,2 °C 0,0 km/h (0 Bft)
19.04.2018 04:36 4,1 °C 90 % 1027,1 hPa 0,0 mm 0,0 km/h (0 Bft) NO 56 ° 0 min 0,000 mm 0,0 UV-I 0 W/m² 2,6 °C 4,1 °C 0,0 km/h (0 Bft)
19.04.2018 04:37 4,0 °C 90 % 1027,1 hPa 0,0 mm 0,0 km/h (0 Bft) NO 56 ° 0 min 0,000 mm 0,0 UV-I 0 W/m² 2,5 °C 4,0 °C 0,0 km/h (0 Bft)
19.04.2018 04:38 3,9 °C 90 % 1027,1 hPa 0,0 mm 0,0 km/h (0 Bft) NO 56 ° 0 min 0,000 mm 0,0 UV-I 0 W/m² 2,4 °C 3,9 °C 0,0 km/h (0 Bft)
19.04.2018 04:39 3,9 °C 90 % 1027,1 hPa 0,0 mm 0,0 km/h (0 Bft) NO 56 ° 0 min 0,000 mm 0,0 UV-I 0 W/m² 2,4 °C 3,9 °C 0,0 km/h (0 Bft)
19.04.2018 04:40 3,9 °C 90 % 1027,1 hPa 0,0 mm 0,0 km/h (0 Bft) NO 56 ° 0 min 0,000 mm 0,0 UV-I 0 W/m² 2,4 °C 3,9 °C 0,0 km/h (0 Bft)
19.04.2018 04:41 4,0 °C 90 % 1027,1 hPa 0,0 mm 0,0 km/h (0 Bft) NO 56 ° 0 min 0,000 mm 0,0 UV-I 0 W/m² 2,5 °C 4,0 °C 0,0 km/h (0 Bft)
19.04.2018 04:42 4,1 °C 91 % 1027,1 hPa 0,0 mm 0,0 km/h (0 Bft) NO 56 ° 0 min 0,000 mm 0,0 UV-I 0 W/m² 2,8 °C 4,1 °C 0,0 km/h (0 Bft)
19.04.2018 04:43 4,2 °C 91 % 1027,1 hPa 0,0 mm 0,0 km/h (0 Bft) NO 56 ° 0 min 0,000 mm 0,0 UV-I 0 W/m² 2,9 °C 4,2 °C 0,0 km/h (0 Bft)
19.04.2018 04:44 4,2 °C 91 % 1027,1 hPa 0,0 mm 0,0 km/h (0 Bft) NO 56 ° 0 min 0,000 mm 0,0 UV-I 0 W/m² 2,9 °C 4,2 °C 0,0 km/h (0 Bft)
19.04.2018 04:45 4,2 °C 90 % 1027,1 hPa 0,0 mm 0,0 km/h (0 Bft) NO 56 ° 0 min 0,000 mm 0,0 UV-I 0 W/m² 2,7 °C 4,2 °C 0,0 km/h (0 Bft)
19.04.2018 04:46 4,2 °C 91 % 1027,1 hPa 0,0 mm 0,0 km/h (0 Bft) NO 56 ° 0 min 0,000 mm 0,0 UV-I 0 W/m² 2,9 °C 4,2 °C 0,0 km/h (0 Bft)
19.04.2018 04:47 4,2 °C 90 % 1027,1 hPa 0,0 mm 0,3 km/h (0 Bft) NO 56 ° 0 min 0,000 mm 0,0 UV-I 0 W/m² 2,7 °C 4,2 °C 1,6 km/h (1 Bft)
19.04.2018 04:48 4,0 °C 90 % 1027,1 hPa 0,0 mm 1,1 km/h (1 Bft) NO 56 ° 0 min 0,000 mm 0,0 UV-I 0 W/m² 2,5 °C 4,0 °C 1,6 km/h (1 Bft)
19.04.2018 04:49 3,9 °C 90 % 1027,1 hPa 0,0 mm 0,0 km/h (0 Bft) NO 56 ° 0 min 0,000 mm 0,0 UV-I 0 W/m² 2,4 °C 3,9 °C 0,0 km/h (0 Bft)
19.04.2018 04:50 3,8 °C 90 % 1027,1 hPa 0,0 mm 0,0 km/h (0 Bft) NO 56 ° 0 min 0,000 mm 0,0 UV-I 0 W/m² 2,3 °C 3,8 °C 0,0 km/h (0 Bft)
19.04.2018 04:51 3,8 °C 90 % 1027,0 hPa 0,0 mm 0,0 km/h (0 Bft) NO 56 ° 0 min 0,000 mm 0,0 UV-I 0 W/m² 2,3 °C 3,8 °C 0,0 km/h (0 Bft)
19.04.2018 04:52 3,8 °C 90 % 1027,0 hPa 0,0 mm 0,0 km/h (0 Bft) NO 56 ° 0 min 0,000 mm 0,0 UV-I 0 W/m² 2,3 °C 3,8 °C 0,0 km/h (0 Bft)
19.04.2018 04:53 3,8 °C 90 % 1027,1 hPa 0,0 mm 0,0 km/h (0 Bft) NO 56 ° 0 min 0,000 mm 0,0 UV-I 0 W/m² 2,3 °C 3,8 °C 0,0 km/h (0 Bft)
19.04.2018 04:54 3,9 °C 90 % 1027,1 hPa 0,0 mm 0,0 km/h (0 Bft) NO 56 ° 0 min 0,000 mm 0,0 UV-I 0 W/m² 2,4 °C 3,9 °C 0,0 km/h (0 Bft)
19.04.2018 04:55 3,8 °C 90 % 1027,1 hPa 0,0 mm 0,0 km/h (0 Bft) NO 56 ° 0 min 0,000 mm 0,0 UV-I 0 W/m² 2,3 °C 3,8 °C 0,0 km/h (0 Bft)
19.04.2018 04:56 3,8 °C 90 % 1027,1 hPa 0,0 mm 0,0 km/h (0 Bft) NO 56 ° 0 min 0,000 mm 0,0 UV-I 0 W/m² 2,3 °C 3,8 °C 0,0 km/h (0 Bft)
19.04.2018 04:57 3,8 °C 90 % 1027,1 hPa 0,0 mm 0,0 km/h (0 Bft) NO 56 ° 0 min 0,000 mm 0,0 UV-I 0 W/m² 2,3 °C 3,8 °C 0,0 km/h (0 Bft)
19.04.2018 04:58 3,8 °C 91 % 1027,1 hPa 0,0 mm 0,0 km/h (0 Bft) NO 56 ° 0 min 0,000 mm 0,0 UV-I 0 W/m² 2,5 °C 3,8 °C 0,0 km/h (0 Bft)
19.04.2018 04:59 3,9 °C 91 % 1027,0 hPa 0,0 mm 0,0 km/h (0 Bft) NO 56 ° 0 min 0,000 mm 0,0 UV-I 0 W/m² 2,6 °C 3,9 °C 0,0 km/h (0 Bft)
19.04.2018 05:00 4,1 °C 91 % 1027,0 hPa 0,0 mm 0,0 km/h (0 Bft) NO 56 ° 0 min 0,000 mm 0,0 UV-I 0 W/m² 2,8 °C 4,1 °C 0,0 km/h (0 Bft)
19.04.2018 05:01 4,2 °C 91 % 1027,0 hPa 0,0 mm 0,0 km/h (0 Bft) NO 56 ° 0 min 0,000 mm 0,0 UV-I 0 W/m² 2,9 °C 4,2 °C 0,0 km/h (0 Bft)
19.04.2018 05:02 4,2 °C 91 % 1027,0 hPa 0,0 mm 0,0 km/h (0 Bft) NO 56 ° 0 min 0,000 mm 0,0 UV-I 0 W/m² 2,9 °C 4,2 °C 0,0 km/h (0 Bft)
19.04.2018 05:03 4,1 °C 90 % 1027,0 hPa 0,0 mm 0,0 km/h (0 Bft) NO 56 ° 0 min 0,000 mm 0,0 UV-I 0 W/m² 2,6 °C 4,1 °C 0,0 km/h (0 Bft)
19.04.2018 05:04 4,0 °C 90 % 1027,0 hPa 0,0 mm 0,0 km/h (0 Bft) NO 56 ° 0 min 0,000 mm 0,0 UV-I 0 W/m² 2,5 °C 4,0 °C 0,0 km/h (0 Bft)
19.04.2018 05:05 3,9 °C 90 % 1027,0 hPa 0,0 mm 0,0 km/h (0 Bft) NO 56 ° 0 min 0,000 mm 0,0 UV-I 0 W/m² 2,4 °C 3,9 °C 0,0 km/h (0 Bft)
19.04.2018 05:06 3,9 °C 90 % 1027,0 hPa 0,0 mm 0,0 km/h (0 Bft) NO 56 ° 0 min 0,000 mm 0,0 UV-I 0 W/m² 2,4 °C 3,9 °C 0,0 km/h (0 Bft)
19.04.2018 05:07 4,0 °C 90 % 1027,0 hPa 0,0 mm 0,0 km/h (0 Bft) NO 56 ° 0 min 0,000 mm 0,0 UV-I 0 W/m² 2,5 °C 4,0 °C 0,0 km/h (0 Bft)
19.04.2018 05:08 4,1 °C 91 % 1027,0 hPa 0,0 mm 0,0 km/h (0 Bft) NO 56 ° 0 min 0,000 mm 0,0 UV-I 0 W/m² 2,8 °C 4,1 °C 0,0 km/h (0 Bft)
19.04.2018 05:09 4,1 °C 91 % 1027,0 hPa 0,0 mm 0,0 km/h (0 Bft) NO 56 ° 0 min 0,000 mm 0,0 UV-I 0 W/m² 2,8 °C 4,1 °C 0,0 km/h (0 Bft)
19.04.2018 05:10 4,1 °C 90 % 1026,9 hPa 0,0 mm 0,0 km/h (0 Bft) NO 56 ° 0 min 0,000 mm 0,0 UV-I 0 W/m² 2,6 °C 4,1 °C 0,0 km/h (0 Bft)
19.04.2018 05:11 3,9 °C 90 % 1026,9 hPa 0,0 mm 0,0 km/h (0 Bft) NO 56 ° 0 min 0,000 mm 0,0 UV-I 0 W/m² 2,4 °C 3,9 °C 0,0 km/h (0 Bft)
19.04.2018 05:12 3,8 °C 90 % 1026,9 hPa 0,0 mm 0,0 km/h (0 Bft) NO 56 ° 0 min 0,000 mm 0,0 UV-I 0 W/m² 2,3 °C 3,8 °C 0,0 km/h (0 Bft)
19.04.2018 05:13 3,9 °C 90 % 1026,9 hPa 0,0 mm 0,0 km/h (0 Bft) NO 56 ° 0 min 0,000 mm 0,0 UV-I 0 W/m² 2,4 °C 3,9 °C 0,0 km/h (0 Bft)
19.04.2018 05:14 3,8 °C 90 % 1026,9 hPa 0,0 mm 0,0 km/h (0 Bft) NO 56 ° 0 min 0,000 mm 0,0 UV-I 0 W/m² 2,3 °C 3,8 °C 0,0 km/h (0 Bft)
19.04.2018 05:15 3,8 °C 90 % 1027,0 hPa 0,0 mm 0,0 km/h (0 Bft) NO 56 ° 0 min 0,000 mm 0,0 UV-I 0 W/m² 2,3 °C 3,8 °C 0,0 km/h (0 Bft)
19.04.2018 05:16 3,7 °C 90 % 1027,0 hPa 0,0 mm 0,0 km/h (0 Bft) NO 56 ° 0 min 0,000 mm 0,0 UV-I 0 W/m² 2,2 °C 3,7 °C 0,0 km/h (0 Bft)
19.04.2018 05:17 3,7 °C 89 % 1027,0 hPa 0,0 mm 0,0 km/h (0 Bft) NO 56 ° 0 min 0,000 mm 0,0 UV-I 0 W/m² 2,1 °C 3,7 °C 0,0 km/h (0 Bft)
19.04.2018 05:18 3,7 °C 90 % 1026,9 hPa 0,0 mm 0,0 km/h (0 Bft) NO 56 ° 0 min 0,000 mm 0,0 UV-I 0 W/m² 2,2 °C 3,7 °C 0,0 km/h (0 Bft)
19.04.2018 05:19 3,7 °C 91 % 1026,9 hPa 0,0 mm 0,0 km/h (0 Bft) NO 56 ° 0 min 0,000 mm 0,0 UV-I 0 W/m² 2,4 °C 3,7 °C 0,0 km/h (0 Bft)
19.04.2018 05:20 3,8 °C 91 % 1026,9 hPa 0,0 mm 0,0 km/h (0 Bft) NO 56 ° 0 min 0,000 mm 0,0 UV-I 0 W/m² 2,5 °C 3,8 °C 0,0 km/h (0 Bft)
19.04.2018 05:21 3,7 °C 90 % 1026,8 hPa 0,0 mm 0,0 km/h (0 Bft) NO 56 ° 0 min 0,000 mm 0,0 UV-I 0 W/m² 2,2 °C 3,7 °C 0,0 km/h (0 Bft)
19.04.2018 05:22 3,7 °C 90 % 1026,8 hPa 0,0 mm 0,0 km/h (0 Bft) NO 56 ° 0 min 0,000 mm 0,0 UV-I 0 W/m² 2,2 °C 3,7 °C 0,0 km/h (0 Bft)
19.04.2018 05:23 3,7 °C 90 % 1026,9 hPa 0,0 mm 0,0 km/h (0 Bft) NO 56 ° 0 min 0,000 mm 0,0 UV-I 0 W/m² 2,2 °C 3,7 °C 0,0 km/h (0 Bft)
19.04.2018 05:24 3,6 °C 90 % 1026,9 hPa 0,0 mm 0,0 km/h (0 Bft) NO 56 ° 0 min 0,000 mm 0,0 UV-I 0 W/m² 2,1 °C 3,6 °C 0,0 km/h (0 Bft)
19.04.2018 05:25 3,7 °C 91 % 1026,8 hPa 0,0 mm 0,0 km/h (0 Bft) NO 56 ° 0 min 0,000 mm 0,0 UV-I 0 W/m² 2,4 °C 3,7 °C 0,0 km/h (0 Bft)
19.04.2018 05:26 3,7 °C 91 % 1026,8 hPa 0,0 mm 0,0 km/h (0 Bft) NO 56 ° 0 min 0,000 mm 0,0 UV-I 0 W/m² 2,4 °C 3,7 °C 0,0 km/h (0 Bft)
19.04.2018 05:27 3,7 °C 91 % 1026,9 hPa 0,0 mm 0,0 km/h (0 Bft) NO 56 ° 0 min 0,000 mm 0,0 UV-I 0 W/m² 2,4 °C 3,7 °C 0,0 km/h (0 Bft)
19.04.2018 05:28 3,6 °C 90 % 1026,9 hPa 0,0 mm 0,0 km/h (0 Bft) NO 56 ° 0 min 0,000 mm 0,0 UV-I 0 W/m² 2,1 °C 3,6 °C 0,0 km/h (0 Bft)
19.04.2018 05:29 3,6 °C 90 % 1026,9 hPa 0,0 mm 0,0 km/h (0 Bft) NO 56 ° 0 min 0,000 mm 0,0 UV-I 0 W/m² 2,1 °C 3,6 °C 0,0 km/h (0 Bft)
19.04.2018 05:30 3,6 °C 91 % 1026,9 hPa 0,0 mm 0,0 km/h (0 Bft) NO 56 ° 0 min 0,000 mm 0,0 UV-I 0 W/m² 2,3 °C 3,6 °C 0,0 km/h (0 Bft)
19.04.2018 05:31 3,6 °C 91 % 1026,8 hPa 0,0 mm 0,0 km/h (0 Bft) NO 56 ° 0 min 0,000 mm 0,0 UV-I 0 W/m² 2,3 °C 3,6 °C 0,0 km/h (0 Bft)
19.04.2018 05:32 3,7 °C 91 % 1026,8 hPa 0,0 mm 0,0 km/h (0 Bft) NO 56 ° 0 min 0,000 mm 0,0 UV-I 0 W/m² 2,4 °C 3,7 °C 0,0 km/h (0 Bft)
19.04.2018 05:33 3,7 °C 91 % 1026,8 hPa 0,0 mm 0,0 km/h (0 Bft) NO 56 ° 0 min 0,000 mm 0,0 UV-I 0 W/m² 2,4 °C 3,7 °C 0,0 km/h (0 Bft)
19.04.2018 05:34 3,7 °C 91 % 1026,8 hPa 0,0 mm 0,0 km/h (0 Bft) NO 56 ° 0 min 0,000 mm 0,0 UV-I 0 W/m² 2,4 °C 3,7 °C 0,0 km/h (0 Bft)
19.04.2018 05:35 3,7 °C 91 % 1026,8 hPa 0,0 mm 0,0 km/h (0 Bft) NO 56 ° 0 min 0,000 mm 0,0 UV-I 0 W/m² 2,4 °C 3,7 °C 0,0 km/h (0 Bft)
19.04.2018 05:36 3,7 °C 91 % 1026,8 hPa 0,0 mm 0,0 km/h (0 Bft) NO 56 ° 0 min 0,000 mm 0,0 UV-I 0 W/m² 2,4 °C 3,7 °C 0,0 km/h (0 Bft)
19.04.2018 05:37 3,8 °C 91 % 1026,8 hPa 0,0 mm 0,0 km/h (0 Bft) NO 56 ° 0 min 0,000 mm 0,0 UV-I 0 W/m² 2,5 °C 3,8 °C 0,0 km/h (0 Bft)
19.04.2018 05:38 3,9 °C 91 % 1026,8 hPa 0,0 mm 0,0 km/h (0 Bft) NO 56 ° 0 min 0,000 mm 0,0 UV-I 0 W/m² 2,6 °C 3,9 °C 0,0 km/h (0 Bft)
19.04.2018 05:39 4,0 °C 92 % 1026,8 hPa 0,0 mm 0,0 km/h (0 Bft) NO 56 ° 0 min 0,000 mm 0,0 UV-I 0 W/m² 2,8 °C 4,0 °C 0,0 km/h (0 Bft)
19.04.2018 05:40 4,1 °C 91 % 1026,8 hPa 0,0 mm 0,0 km/h (0 Bft) NO 56 ° 0 min 0,000 mm 0,0 UV-I 0 W/m² 2,8 °C 4,1 °C 0,0 km/h (0 Bft)
19.04.2018 05:41 4,0 °C 91 % 1026,7 hPa 0,0 mm 0,0 km/h (0 Bft) NO 56 ° 0 min 0,000 mm 0,0 UV-I 0 W/m² 2,7 °C 4,0 °C 0,0 km/h (0 Bft)
19.04.2018 05:42 3,9 °C 90 % 1026,8 hPa 0,0 mm 0,0 km/h (0 Bft) NO 56 ° 0 min 0,000 mm 0,0 UV-I 0 W/m² 2,4 °C 3,9 °C 0,0 km/h (0 Bft)
19.04.2018 05:43 3,8 °C 90 % 1026,8 hPa 0,0 mm 0,0 km/h (0 Bft) NO 56 ° 0 min 0,000 mm 0,0 UV-I 0 W/m² 2,3 °C 3,8 °C 0,0 km/h (0 Bft)
19.04.2018 05:44 3,6 °C 90 % 1026,7 hPa 0,0 mm 0,0 km/h (0 Bft) NO 56 ° 0 min 0,000 mm 0,0 UV-I 0 W/m² 2,1 °C 3,6 °C 0,0 km/h (0 Bft)
19.04.2018 05:45 3,5 °C 89 % 1026,7 hPa 0,0 mm 0,0 km/h (0 Bft) NO 56 ° 0 min 0,000 mm 0,0 UV-I 0 W/m² 1,9 °C 3,5 °C 0,0 km/h (0 Bft)
19.04.2018 05:46 3,5 °C 90 % 1026,8 hPa 0,0 mm 0,0 km/h (0 Bft) NO 56 ° 0 min 0,000 mm 0,0 UV-I 0 W/m² 2,0 °C 3,5 °C 0,0 km/h (0 Bft)
19.04.2018 05:47 3,5 °C 90 % 1026,7 hPa 0,0 mm 0,0 km/h (0 Bft) NO 56 ° 0 min 0,000 mm 0,0 UV-I 0 W/m² 2,0 °C 3,5 °C 0,0 km/h (0 Bft)
19.04.2018 05:48 3,4 °C 90 % 1026,7 hPa 0,0 mm 0,0 km/h (0 Bft) NO 56 ° 0 min 0,000 mm 0,0 UV-I 0 W/m² 1,9 °C 3,4 °C 0,0 km/h (0 Bft)
19.04.2018 05:49 3,3 °C 90 % 1026,7 hPa 0,0 mm 0,0 km/h (0 Bft) NO 56 ° 0 min 0,000 mm 0,0 UV-I 0 W/m² 1,8 °C 3,3 °C 0,0 km/h (0 Bft)
19.04.2018 05:50 3,2 °C 89 % 1026,8 hPa 0,0 mm 0,0 km/h (0 Bft) NO 56 ° 0 min 0,000 mm 0,0 UV-I 0 W/m² 1,6 °C 3,2 °C 0,0 km/h (0 Bft)
19.04.2018 05:51 3,1 °C 90 % 1026,8 hPa 0,0 mm 0,0 km/h (0 Bft) NO 56 ° 0 min 0,000 mm 0,0 UV-I 0 W/m² 1,6 °C 3,1 °C 0,0 km/h (0 Bft)
19.04.2018 05:52 2,9 °C 89 % 1026,8 hPa 0,0 mm 0,0 km/h (0 Bft) NO 56 ° 0 min 0,000 mm 0,0 UV-I 0 W/m² 1,3 °C 2,9 °C 0,0 km/h (0 Bft)
19.04.2018 05:53 2,9 °C 90 % 1026,8 hPa 0,0 mm 0,0 km/h (0 Bft) NO 56 ° 0 min 0,000 mm 0,0 UV-I 0 W/m² 1,4 °C 2,9 °C 0,0 km/h (0 Bft)
19.04.2018 05:54 2,9 °C 90 % 1026,8 hPa 0,0 mm 0,0 km/h (0 Bft) NO 56 ° 0 min 0,000 mm 0,0 UV-I 0 W/m² 1,4 °C 2,9 °C 0,0 km/h (0 Bft)
19.04.2018 05:55 2,9 °C 90 % 1026,8 hPa 0,0 mm 0,0 km/h (0 Bft) NO 56 ° 0 min 0,000 mm 0,0 UV-I 0 W/m² 1,4 °C 2,9 °C 0,0 km/h (0 Bft)
19.04.2018 05:56 3,1 °C 91 % 1026,8 hPa 0,0 mm 0,0 km/h (0 Bft) NO 56 ° 0 min 0,000 mm 0,0 UV-I 0 W/m² 1,8 °C 3,1 °C 0,0 km/h (0 Bft)
19.04.2018 05:57 3,2 °C 91 % 1026,8 hPa 0,0 mm 0,0 km/h (0 Bft) NO 56 ° 0 min 0,000 mm 0,0 UV-I 0 W/m² 1,9 °C 3,2 °C 0,0 km/h (0 Bft)
19.04.2018 05:58 3,3 °C 91 % 1026,8 hPa 0,0 mm 0,0 km/h (0 Bft) NO 56 ° 0 min 0,000 mm 0,0 UV-I 0 W/m² 2,0 °C 3,3 °C 0,0 km/h (0 Bft)
19.04.2018 05:59 3,3 °C 91 % 1026,8 hPa 0,0 mm 0,0 km/h (0 Bft) NO 56 ° 0 min 0,000 mm 0,0 UV-I 0 W/m² 2,0 °C 3,3 °C 0,0 km/h (0 Bft)
19.04.2018 06:00 3,2 °C 91 % 1026,8 hPa 0,0 mm 0,0 km/h (0 Bft) NO 56 ° 0 min 0,000 mm 0,0 UV-I 0 W/m² 1,9 °C 3,2 °C 0,0 km/h (0 Bft)
19.04.2018 06:01 3,2 °C 91 % 1026,8 hPa 0,0 mm 0,0 km/h (0 Bft) NO 56 ° 0 min 0,000 mm 0,0 UV-I 0 W/m² 1,9 °C 3,2 °C 0,0 km/h (0 Bft)
19.04.2018 06:02 3,2 °C 91 % 1026,8 hPa 0,0 mm 0,0 km/h (0 Bft) NO 56 ° 0 min 0,000 mm 0,0 UV-I 0 W/m² 1,9 °C 3,2 °C 0,0 km/h (0 Bft)
19.04.2018 06:03 3,2 °C 91 % 1026,8 hPa 0,0 mm 0,0 km/h (0 Bft) NO 56 ° 0 min 0,000 mm 0,0 UV-I 0 W/m² 1,9 °C 3,2 °C 0,0 km/h (0 Bft)
19.04.2018 06:04 3,2 °C 91 % 1026,8 hPa 0,0 mm 0,0 km/h (0 Bft) NO 56 ° 0 min 0,000 mm 0,0 UV-I 0 W/m² 1,9 °C 3,2 °C 0,0 km/h (0 Bft)
19.04.2018 06:05 3,3 °C 91 % 1026,8 hPa 0,0 mm 0,0 km/h (0 Bft) NO 56 ° 0 min 0,000 mm 0,0 UV-I 0 W/m² 2,0 °C 3,3 °C 0,0 km/h (0 Bft)
19.04.2018 06:06 3,3 °C 91 % 1026,8 hPa 0,0 mm 0,0 km/h (0 Bft) NO 56 ° 0 min 0,000 mm 0,0 UV-I 0 W/m² 2,0 °C 3,3 °C 0,0 km/h (0 Bft)
19.04.2018 06:07 3,3 °C 91 % 1026,8 hPa 0,0 mm 0,0 km/h (0 Bft) NO 56 ° 0 min 0,000 mm 0,0 UV-I 0 W/m² 2,0 °C 3,3 °C 0,0 km/h (0 Bft)
19.04.2018 06:08 3,3 °C 91 % 1026,8 hPa 0,0 mm 0,0 km/h (0 Bft) NO 56 ° 0 min 0,000 mm 0,0 UV-I 0 W/m² 2,0 °C 3,3 °C 0,0 km/h (0 Bft)
19.04.2018 06:09 3,3 °C 91 % 1026,8 hPa 0,0 mm 0,0 km/h (0 Bft) NO 56 ° 0 min 0,000 mm 0,0 UV-I 0 W/m² 2,0 °C 3,3 °C 0,0 km/h (0 Bft)
19.04.2018 06:10 3,3 °C 91 % 1026,8 hPa 0,0 mm 0,0 km/h (0 Bft) NO 56 ° 0 min 0,000 mm 0,0 UV-I 0 W/m² 2,0 °C 3,3 °C 0,0 km/h (0 Bft)
19.04.2018 06:11 3,2 °C 91 % 1026,8 hPa 0,0 mm 0,0 km/h (0 Bft) NO 56 ° 0 min 0,000 mm 0,0 UV-I 0 W/m² 1,9 °C 3,2 °C 0,0 km/h (0 Bft)
19.04.2018 06:12 3,2 °C 91 % 1026,8 hPa 0,0 mm 0,0 km/h (0 Bft) NO 56 ° 0 min 0,000 mm 0,0 UV-I 0 W/m² 1,9 °C 3,2 °C 0,0 km/h (0 Bft)
19.04.2018 06:13 3,2 °C 91 % 1026,9 hPa 0,0 mm 0,0 km/h (0 Bft) NO 56 ° 0 min 0,000 mm 0,0 UV-I 0 W/m² 1,9 °C 3,2 °C 0,0 km/h (0 Bft)
19.04.2018 06:14 3,2 °C 91 % 1026,9 hPa 0,0 mm 0,0 km/h (0 Bft) NO 56 ° 0 min 0,000 mm 0,0 UV-I 0 W/m² 1,9 °C 3,2 °C 0,0 km/h (0 Bft)
19.04.2018 06:15 3,1 °C 91 % 1026,8 hPa 0,0 mm 0,0 km/h (0 Bft) NO 56 ° 0 min 0,000 mm 0,0 UV-I 0 W/m² 1,8 °C 3,1 °C 0,0 km/h (0 Bft)
19.04.2018 06:16 3,1 °C 91 % 1026,8 hPa 0,0 mm 0,0 km/h (0 Bft) NO 56 ° 0 min 0,000 mm 0,0 UV-I 0 W/m² 1,8 °C 3,1 °C 0,0 km/h (0 Bft)
19.04.2018 06:17 3,0 °C 91 % 1026,9 hPa 0,0 mm 0,0 km/h (0 Bft) NO 56 ° 0 min 0,000 mm 0,0 UV-I 0 W/m² 1,7 °C 3,0 °C 0,0 km/h (0 Bft)
19.04.2018 06:18 2,9 °C 90 % 1026,9 hPa 0,0 mm 0,0 km/h (0 Bft) NO 56 ° 0 min 0,000 mm 0,0 UV-I 0 W/m² 1,4 °C 2,9 °C 0,0 km/h (0 Bft)
19.04.2018 06:19 2,8 °C 90 % 1026,9 hPa 0,0 mm 0,0 km/h (0 Bft) NO 56 ° 0 min 0,000 mm 0,0 UV-I 0 W/m² 1,3 °C 2,8 °C 0,0 km/h (0 Bft)
19.04.2018 06:20 2,9 °C 90 % 1026,9 hPa 0,0 mm 0,0 km/h (0 Bft) NO 56 ° 0 min 0,000 mm 0,0 UV-I 0 W/m² 1,4 °C 2,9 °C 0,0 km/h (0 Bft)
19.04.2018 06:21 3,1 °C 91 % 1026,9 hPa 0,0 mm 0,0 km/h (0 Bft) NO 56 ° 0 min 0,000 mm 0,0 UV-I 5 W/m² 1,8 °C 3,1 °C 0,0 km/h (0 Bft)
19.04.2018 06:22 3,3 °C 92 % 1026,9 hPa 0,0 mm 0,0 km/h (0 Bft) NO 56 ° 0 min 0,000 mm 0,0 UV-I 5 W/m² 2,1 °C 3,3 °C 0,0 km/h (0 Bft)
19.04.2018 06:23 3,3 °C 91 % 1026,9 hPa 0,0 mm 0,0 km/h (0 Bft) NO 56 ° 0 min 0,000 mm 0,0 UV-I 5 W/m² 2,0 °C 3,3 °C 0,0 km/h (0 Bft)
19.04.2018 06:24 3,3 °C 91 % 1026,9 hPa 0,0 mm 0,0 km/h (0 Bft) NO 56 ° 0 min 0,000 mm 0,0 UV-I 5 W/m² 2,0 °C 3,3 °C 0,0 km/h (0 Bft)
19.04.2018 06:25 3,2 °C 91 % 1026,9 hPa 0,0 mm 0,0 km/h (0 Bft) NO 56 ° 0 min 0,000 mm 0,0 UV-I 5 W/m² 1,9 °C 3,2 °C 0,0 km/h (0 Bft)
19.04.2018 06:26 3,2 °C 91 % 1026,9 hPa 0,0 mm 0,0 km/h (0 Bft) NO 56 ° 0 min 0,000 mm 0,0 UV-I 7 W/m² 1,9 °C 3,2 °C 0,0 km/h (0 Bft)
19.04.2018 06:27 3,3 °C 91 % 1026,8 hPa 0,0 mm 0,0 km/h (0 Bft) NO 56 ° 0 min 0,000 mm 0,0 UV-I 7 W/m² 2,0 °C 3,3 °C 0,0 km/h (0 Bft)
19.04.2018 06:28 3,3 °C 91 % 1026,8 hPa 0,0 mm 0,0 km/h (0 Bft) NO 56 ° 0 min 0,000 mm 0,0 UV-I 7 W/m² 2,0 °C 3,3 °C 0,0 km/h (0 Bft)
19.04.2018 06:29 3,3 °C 91 % 1026,8 hPa 0,0 mm 0,0 km/h (0 Bft) NO 56 ° 0 min 0,000 mm 0,0 UV-I 7 W/m² 2,0 °C 3,3 °C 0,0 km/h (0 Bft)
19.04.2018 06:30 3,1 °C 90 % 1026,9 hPa 0,0 mm 0,0 km/h (0 Bft) NO 56 ° 0 min 0,000 mm 0,0 UV-I 9 W/m² 1,6 °C 3,1 °C 0,0 km/h (0 Bft)
19.04.2018 06:31 3,0 °C 90 % 1026,9 hPa 0,0 mm 0,0 km/h (0 Bft) NO 56 ° 0 min 0,000 mm 0,0 UV-I 9 W/m² 1,5 °C 3,0 °C 0,0 km/h (0 Bft)
19.04.2018 06:32 2,9 °C 90 % 1026,9 hPa 0,0 mm 0,0 km/h (0 Bft) NO 56 ° 0 min 0,000 mm 0,0 UV-I 9 W/m² 1,4 °C 2,9 °C 0,0 km/h (0 Bft)
19.04.2018 06:33 2,9 °C 90 % 1026,9 hPa 0,0 mm 0,0 km/h (0 Bft) NO 56 ° 0 min 0,000 mm 0,0 UV-I 9 W/m² 1,4 °C 2,9 °C 0,0 km/h (0 Bft)
19.04.2018 06:34 3,0 °C 91 % 1026,9 hPa 0,0 mm 0,0 km/h (0 Bft) NO 56 ° 0 min 0,000 mm 0,0 UV-I 11 W/m² 1,7 °C 3,0 °C 0,0 km/h (0 Bft)
19.04.2018 06:35 3,1 °C 91 % 1026,9 hPa 0,0 mm 0,0 km/h (0 Bft) NO 56 ° 0 min 0,000 mm 0,0 UV-I 11 W/m² 1,8 °C 3,1 °C 0,0 km/h (0 Bft)
19.04.2018 06:36 3,1 °C 91 % 1026,9 hPa 0,0 mm 0,0 km/h (0 Bft) NO 56 ° 0 min 0,000 mm 0,0 UV-I 11 W/m² 1,8 °C 3,1 °C 0,0 km/h (0 Bft)
19.04.2018 06:37 3,2 °C 91 % 1026,9 hPa 0,0 mm 0,0 km/h (0 Bft) NO 56 ° 0 min 0,000 mm 0,0 UV-I 11 W/m² 1,9 °C 3,2 °C 0,0 km/h (0 Bft)
19.04.2018 06:38 3,1 °C 91 % 1026,9 hPa 0,0 mm 0,0 km/h (0 Bft) NO 56 ° 0 min 0,000 mm 0,0 UV-I 12 W/m² 1,8 °C 3,1 °C 0,0 km/h (0 Bft)
19.04.2018 06:39 3,0 °C 91 % 1026,9 hPa 0,0 mm 0,0 km/h (0 Bft) NO 56 ° 0 min 0,000 mm 0,0 UV-I 12 W/m² 1,7 °C 3,0 °C 0,0 km/h (0 Bft)
19.04.2018 06:40 2,9 °C 90 % 1026,9 hPa 0,0 mm 0,0 km/h (0 Bft) NO 56 ° 0 min 0,000 mm 0,0 UV-I 12 W/m² 1,4 °C 2,9 °C 0,0 km/h (0 Bft)
19.04.2018 06:41 2,8 °C 90 % 1026,8 hPa 0,0 mm 0,0 km/h (0 Bft) NO 56 ° 0 min 0,000 mm 0,0 UV-I 12 W/m² 1,3 °C 2,8 °C 0,0 km/h (0 Bft)
19.04.2018 06:42 2,8 °C 90 % 1027,0 hPa 0,0 mm 0,0 km/h (0 Bft) NO 56 ° 0 min 0,000 mm 0,0 UV-I 14 W/m² 1,3 °C 2,8 °C 0,0 km/h (0 Bft)
19.04.2018 06:43 2,7 °C 91 % 1027,0 hPa 0,0 mm 0,0 km/h (0 Bft) NO 56 ° 0 min 0,000 mm 0,0 UV-I 14 W/m² 1,4 °C 2,7 °C 0,0 km/h (0 Bft)
19.04.2018 06:44 2,7 °C 91 % 1026,9 hPa 0,0 mm 0,0 km/h (0 Bft) NO 56 ° 0 min 0,000 mm 0,0 UV-I 14 W/m² 1,4 °C 2,7 °C 0,0 km/h (0 Bft)
19.04.2018 06:45 2,6 °C 90 % 1027,0 hPa 0,0 mm 0,0 km/h (0 Bft) NO 56 ° 0 min 0,000 mm 0,0 UV-I 14 W/m² 1,1 °C 2,6 °C 0,0 km/h (0 Bft)
19.04.2018 06:46 2,6 °C 91 % 1027,0 hPa 0,0 mm 0,0 km/h (0 Bft) NO 56 ° 0 min 0,000 mm 0,0 UV-I 16 W/m² 1,3 °C 2,6 °C 0,0 km/h (0 Bft)
19.04.2018 06:47 2,6 °C 91 % 1027,0 hPa 0,0 mm 0,0 km/h (0 Bft) NO 56 ° 0 min 0,000 mm 0,0 UV-I 16 W/m² 1,3 °C 2,6 °C 0,0 km/h (0 Bft)
19.04.2018 06:48 2,6 °C 91 % 1027,0 hPa 0,0 mm 0,0 km/h (0 Bft) NO 56 ° 0 min 0,000 mm 0,0 UV-I 16 W/m² 1,3 °C 2,6 °C 0,0 km/h (0 Bft)
19.04.2018 06:49 2,7 °C 91 % 1027,0 hPa 0,0 mm 0,0 km/h (0 Bft) NO 56 ° 0 min 0,000 mm 0,0 UV-I 16 W/m² 1,4 °C 2,7 °C 0,0 km/h (0 Bft)
19.04.2018 06:50 2,7 °C 91 % 1027,0 hPa 0,0 mm 0,0 km/h (0 Bft) NO 56 ° 0 min 0,000 mm 0,0 UV-I 16 W/m² 1,4 °C 2,7 °C 0,0 km/h (0 Bft)
19.04.2018 06:51 2,8 °C 92 % 1027,0 hPa 0,0 mm 0,0 km/h (0 Bft) NO 56 ° 0 min 0,000 mm 0,0 UV-I 18 W/m² 1,6 °C 2,8 °C 0,0 km/h (0 Bft)
19.04.2018 06:52 3,1 °C 92 % 1027,0 hPa 0,0 mm 0,0 km/h (0 Bft) NO 56 ° 0 min 0,000 mm 0,0 UV-I 18 W/m² 1,9 °C 3,1 °C 0,0 km/h (0 Bft)
19.04.2018 06:53 3,1 °C 92 % 1027,0 hPa 0,0 mm 0,0 km/h (0 Bft) NO 56 ° 0 min 0,000 mm 0,0 UV-I 18 W/m² 1,9 °C 3,1 °C 0,0 km/h (0 Bft)
19.04.2018 06:54 3,2 °C 91 % 1027,0 hPa 0,0 mm 0,0 km/h (0 Bft) NO 56 ° 0 min 0,000 mm 0,0 UV-I 18 W/m² 1,9 °C 3,2 °C 0,0 km/h (0 Bft)
19.04.2018 06:55 3,3 °C 91 % 1027,0 hPa 0,0 mm 0,0 km/h (0 Bft) NO 56 ° 0 min 0,000 mm 0,0 UV-I 19 W/m² 2,0 °C 3,3 °C 0,0 km/h (0 Bft)
19.04.2018 06:56 3,3 °C 91 % 1027,0 hPa 0,0 mm 0,0 km/h (0 Bft) NO 56 ° 0 min 0,000 mm 0,0 UV-I 19 W/m² 2,0 °C 3,3 °C 0,0 km/h (0 Bft)
19.04.2018 06:57 3,3 °C 91 % 1027,0 hPa 0,0 mm 0,0 km/h (0 Bft) NO 56 ° 0 min 0,000 mm 0,0 UV-I 19 W/m² 2,0 °C 3,3 °C 0,0 km/h (0 Bft)
19.04.2018 06:58 3,3 °C 91 % 1027,0 hPa 0,0 mm 0,0 km/h (0 Bft) NO 56 ° 0 min 0,000 mm 0,0 UV-I 19 W/m² 2,0 °C 3,3 °C 0,0 km/h (0 Bft)
19.04.2018 06:59 3,3 °C 91 % 1027,0 hPa 0,0 mm 0,0 km/h (0 Bft) NO 56 ° 0 min 0,000 mm 0,0 UV-I 19 W/m² 2,0 °C 3,3 °C 0,0 km/h (0 Bft)
19.04.2018 07:00 3,3 °C 91 % 1027,0 hPa 0,0 mm 0,0 km/h (0 Bft) NO 56 ° 0 min 0,000 mm 0,0 UV-I 21 W/m² 2,0 °C 3,3 °C 0,0 km/h (0 Bft)
19.04.2018 07:01 3,4 °C 91 % 1027,0 hPa 0,0 mm 0,0 km/h (0 Bft) NO 56 ° 0 min 0,000 mm 0,0 UV-I 21 W/m² 2,1 °C 3,4 °C 0,0 km/h (0 Bft)
19.04.2018 07:02 3,4 °C 91 % 1027,0 hPa 0,0 mm 0,0 km/h (0 Bft) NO 56 ° 0 min 0,000 mm 0,0 UV-I 21 W/m² 2,1 °C 3,4 °C 0,0 km/h (0 Bft)
19.04.2018 07:03 3,3 °C 90 % 1027,0 hPa 0,0 mm 0,0 km/h (0 Bft) NO 56 ° 0 min 0,000 mm 0,0 UV-I 21 W/m² 1,8 °C 3,3 °C 0,0 km/h (0 Bft)
19.04.2018 07:04 3,3 °C 90 % 1027,0 hPa 0,0 mm 0,0 km/h (0 Bft) NO 56 ° 0 min 0,000 mm 0,0 UV-I 21 W/m² 1,8 °C 3,3 °C 0,0 km/h (0 Bft)
19.04.2018 07:05 3,2 °C 90 % 1027,0 hPa 0,0 mm 0,0 km/h (0 Bft) NO 56 ° 0 min 0,000 mm 0,0 UV-I 23 W/m² 1,7 °C 3,2 °C 0,0 km/h (0 Bft)
19.04.2018 07:06 3,2 °C 90 % 1027,0 hPa 0,0 mm 0,0 km/h (0 Bft) NO 56 ° 0 min 0,000 mm 0,0 UV-I 23 W/m² 1,7 °C 3,2 °C 0,0 km/h (0 Bft)
19.04.2018 07:07 3,2 °C 90 % 1027,0 hPa 0,0 mm 0,0 km/h (0 Bft) NO 56 ° 0 min 0,000 mm 0,0 UV-I 23 W/m² 1,7 °C 3,2 °C 0,0 km/h (0 Bft)
19.04.2018 07:08 3,1 °C 90 % 1027,0 hPa 0,0 mm 0,0 km/h (0 Bft) NO 56 ° 0 min 0,000 mm 0,0 UV-I 23 W/m² 1,6 °C 3,1 °C 0,0 km/h (0 Bft)
19.04.2018 07:09 3,0 °C 90 % 1027,0 hPa 0,0 mm 0,0 km/h (0 Bft) NO 56 ° 0 min 0,000 mm 0,0 UV-I 25 W/m² 1,5 °C 3,0 °C 0,0 km/h (0 Bft)
19.04.2018 07:10 2,9 °C 90 % 1027,0 hPa 0,0 mm 0,0 km/h (0 Bft) NO 56 ° 0 min 0,000 mm 0,0 UV-I 25 W/m² 1,4 °C 2,9 °C 0,0 km/h (0 Bft)
19.04.2018 07:11 2,9 °C 90 % 1027,0 hPa 0,0 mm 0,0 km/h (0 Bft) NO 56 ° 0 min 0,000 mm 0,0 UV-I 25 W/m² 1,4 °C 2,9 °C 0,0 km/h (0 Bft)
19.04.2018 07:12 2,9 °C 90 % 1027,0 hPa 0,0 mm 0,0 km/h (0 Bft) NO 56 ° 0 min 0,000 mm 0,0 UV-I 25 W/m² 1,4 °C 2,9 °C 0,0 km/h (0 Bft)
19.04.2018 07:13 2,9 °C 91 % 1027,0 hPa 0,0 mm 0,0 km/h (0 Bft) NO 56 ° 0 min 0,000 mm 0,0 UV-I 26 W/m² 1,6 °C 2,9 °C 0,0 km/h (0 Bft)
19.04.2018 07:14 3,1 °C 91 % 1027,1 hPa 0,0 mm 0,0 km/h (0 Bft) NO 56 ° 0 min 0,000 mm 0,0 UV-I 28 W/m² 1,8 °C 3,1 °C 0,0 km/h (0 Bft)
19.04.2018 07:15 3,2 °C 91 % 1027,2 hPa 0,0 mm 0,0 km/h (0 Bft) NO 56 ° 0 min 0,000 mm 0,0 UV-I 30 W/m² 1,9 °C 3,2 °C 0,0 km/h (0 Bft)
19.04.2018 07:16 3,2 °C 91 % 1027,2 hPa 0,0 mm 0,0 km/h (0 Bft) NO 56 ° 0 min 0,000 mm 0,0 UV-I 30 W/m² 1,9 °C 3,2 °C 0,0 km/h (0 Bft)
19.04.2018 07:17 3,3 °C 91 % 1027,1 hPa 0,0 mm 0,0 km/h (0 Bft) NO 56 ° 0 min 0,000 mm 0,0 UV-I 30 W/m² 2,0 °C 3,3 °C 0,0 km/h (0 Bft)
19.04.2018 07:18 3,5 °C 92 % 1027,1 hPa 0,0 mm 0,0 km/h (0 Bft) NO 56 ° 0 min 0,000 mm 0,0 UV-I 30 W/m² 2,3 °C 3,5 °C 0,0 km/h (0 Bft)
19.04.2018 07:19 3,6 °C 92 % 1027,1 hPa 0,0 mm 0,0 km/h (0 Bft) NO 56 ° 0 min 0,000 mm 0,0 UV-I 32 W/m² 2,4 °C 3,6 °C 0,0 km/h (0 Bft)
19.04.2018 07:20 3,7 °C 92 % 1027,1 hPa 0,0 mm 0,0 km/h (0 Bft) NO 56 ° 0 min 0,000 mm 0,0 UV-I 32 W/m² 2,5 °C 3,7 °C 0,0 km/h (0 Bft)
19.04.2018 07:21 3,8 °C 91 % 1027,1 hPa 0,0 mm 0,0 km/h (0 Bft) NO 56 ° 0 min 0,000 mm 0,0 UV-I 30 W/m² 2,5 °C 3,8 °C 0,0 km/h (0 Bft)
19.04.2018 07:22 3,8 °C 91 % 1027,1 hPa 0,0 mm 0,0 km/h (0 Bft) NO 56 ° 0 min 0,000 mm 0,0 UV-I 28 W/m² 2,5 °C 3,8 °C 0,0 km/h (0 Bft)
19.04.2018 07:23 3,9 °C 91 % 1027,1 hPa 0,0 mm 0,0 km/h (0 Bft) NO 56 ° 0 min 0,000 mm 0,0 UV-I 28 W/m² 2,6 °C 3,9 °C 0,0 km/h (0 Bft)
19.04.2018 07:24 4,1 °C 91 % 1027,1 hPa 0,0 mm 0,0 km/h (0 Bft) NO 56 ° 0 min 0,000 mm 0,0 UV-I 32 W/m² 2,8 °C 4,1 °C 0,0 km/h (0 Bft)
19.04.2018 07:25 4,1 °C 91 % 1027,1 hPa 0,0 mm 0,0 km/h (0 Bft) NO 56 ° 0 min 0,000 mm 0,0 UV-I 30 W/m² 2,8 °C 4,1 °C 0,0 km/h (0 Bft)
19.04.2018 07:26 3,9 °C 90 % 1027,1 hPa 0,0 mm 0,0 km/h (0 Bft) NO 56 ° 0 min 0,000 mm 0,0 UV-I 30 W/m² 2,4 °C 3,9 °C 0,0 km/h (0 Bft)
19.04.2018 07:27 3,9 °C 90 % 1027,1 hPa 0,0 mm 0,0 km/h (0 Bft) NO 56 ° 0 min 0,000 mm 0,0 UV-I 30 W/m² 2,4 °C 3,9 °C 0,0 km/h (0 Bft)
19.04.2018 07:28 3,9 °C 90 % 1027,1 hPa 0,0 mm 0,0 km/h (0 Bft) NO 56 ° 0 min 0,000 mm 0,0 UV-I 30 W/m² 2,4 °C 3,9 °C 0,0 km/h (0 Bft)
19.04.2018 07:29 4,2 °C 91 % 1027,1 hPa 0,0 mm 0,0 km/h (0 Bft) NO 56 ° 0 min 0,000 mm 0,0 UV-I 30 W/m² 2,9 °C 4,2 °C 0,0 km/h (0 Bft)
19.04.2018 07:30 4,3 °C 91 % 1027,1 hPa 0,0 mm 0,0 km/h (0 Bft) NO 56 ° 0 min 0,000 mm 0,0 UV-I 30 W/m² 3,0 °C 4,3 °C 0,0 km/h (0 Bft)
19.04.2018 07:31 4,3 °C 90 % 1027,1 hPa 0,0 mm 0,0 km/h (0 Bft) NO 56 ° 0 min 0,000 mm 0,0 UV-I 30 W/m² 2,8 °C 4,3 °C 0,0 km/h (0 Bft)
19.04.2018 07:32 4,3 °C 90 % 1027,2 hPa 0,0 mm 0,0 km/h (0 Bft) NO 56 ° 0 min 0,000 mm 0,0 UV-I 30 W/m² 2,8 °C 4,3 °C 0,0 km/h (0 Bft)
19.04.2018 07:33 4,3 °C 90 % 1027,2 hPa 0,0 mm 0,0 km/h (0 Bft) NO 56 ° 0 min 0,000 mm 0,0 UV-I 30 W/m² 2,8 °C 4,3 °C 0,0 km/h (0 Bft)
19.04.2018 07:34 4,3 °C 90 % 1027,2 hPa 0,0 mm 0,0 km/h (0 Bft) NO 56 ° 0 min 0,000 mm 0,0 UV-I 30 W/m² 2,8 °C 4,3 °C 0,0 km/h (0 Bft)
19.04.2018 07:35 4,3 °C 90 % 1027,2 hPa 0,0 mm 0,0 km/h (0 Bft) NO 56 ° 0 min 0,000 mm 0,0 UV-I 30 W/m² 2,8 °C 4,3 °C 0,0 km/h (0 Bft)
19.04.2018 07:36 4,3 °C 90 % 1027,2 hPa 0,0 mm 0,0 km/h (0 Bft) NO 56 ° 0 min 0,000 mm 0,0 UV-I 32 W/m² 2,8 °C 4,3 °C 0,0 km/h (0 Bft)
19.04.2018 07:37 4,3 °C 90 % 1027,1 hPa 0,0 mm 0,0 km/h (0 Bft) NO 56 ° 0 min 0,000 mm 0,0 UV-I 32 W/m² 2,8 °C 4,3 °C 0,0 km/h (0 Bft)
19.04.2018 07:38 4,4 °C 90 % 1027,1 hPa 0,0 mm 0,0 km/h (0 Bft) NO 56 ° 0 min 0,000 mm 0,0 UV-I 32 W/m² 2,9 °C 4,4 °C 0,0 km/h (0 Bft)
19.04.2018 07:39 4,5 °C 90 % 1027,1 hPa 0,0 mm 0,0 km/h (0 Bft) NO 56 ° 0 min 0,000 mm 0,0 UV-I 35 W/m² 3,0 °C 4,5 °C 0,0 km/h (0 Bft)
19.04.2018 07:40 4,6 °C 90 % 1027,2 hPa 0,0 mm 0,0 km/h (0 Bft) NO 56 ° 0 min 0,000 mm 0,0 UV-I 53 W/m² 3,1 °C 4,6 °C 0,0 km/h (0 Bft)
19.04.2018 07:41 4,7 °C 90 % 1027,1 hPa 0,0 mm 0,0 km/h (0 Bft) NO 56 ° 0 min 0,000 mm 0,5 UV-I 125 W/m² 3,2 °C 4,7 °C 0,0 km/h (0 Bft)
19.04.2018 07:42 4,9 °C 90 % 1027,1 hPa 0,0 mm 0,0 km/h (0 Bft) NO 56 ° 0 min 0,000 mm 0,6 UV-I 148 W/m² 3,4 °C 4,9 °C 0,0 km/h (0 Bft)
19.04.2018 07:43 5,1 °C 90 % 1027,1 hPa 0,0 mm 0,0 km/h (0 Bft) NO 56 ° 0 min 0,000 mm 0,6 UV-I 148 W/m² 3,6 °C 5,1 °C 0,0 km/h (0 Bft)
19.04.2018 07:44 5,2 °C 89 % 1027,1 hPa 0,0 mm 0,0 km/h (0 Bft) NO 56 ° 0 min 0,000 mm 0,6 UV-I 153 W/m² 3,5 °C 5,2 °C 0,0 km/h (0 Bft)
19.04.2018 07:45 5,3 °C 89 % 1027,1 hPa 0,0 mm 0,0 km/h (0 Bft) NO 56 ° 0 min 0,000 mm 0,6 UV-I 156 W/m² 3,6 °C 5,3 °C 0,0 km/h (0 Bft)
19.04.2018 07:46 5,5 °C 89 % 1027,0 hPa 0,0 mm 0,0 km/h (0 Bft) NO 56 ° 0 min 0,000 mm 0,6 UV-I 162 W/m² 3,8 °C 5,5 °C 0,0 km/h (0 Bft)
19.04.2018 07:47 5,6 °C 89 % 1027,1 hPa 0,0 mm 0,0 km/h (0 Bft) NO 56 ° 0 min 0,000 mm 0,6 UV-I 163 W/m² 3,9 °C 5,6 °C 0,0 km/h (0 Bft)
19.04.2018 07:48 5,7 °C 88 % 1027,1 hPa 0,0 mm 0,0 km/h (0 Bft) NO 56 ° 0 min 0,000 mm 0,7 UV-I 167 W/m² 3,9 °C 5,7 °C 0,0 km/h (0 Bft)
19.04.2018 07:49 5,8 °C 89 % 1027,1 hPa 0,0 mm 0,0 km/h (0 Bft) NO 56 ° 0 min 0,000 mm 0,7 UV-I 169 W/m² 4,1 °C 5,8 °C 0,0 km/h (0 Bft)
19.04.2018 07:50 5,9 °C 89 % 1027,1 hPa 0,0 mm 0,0 km/h (0 Bft) NO 56 ° 0 min 0,000 mm 0,7 UV-I 172 W/m² 4,2 °C 5,9 °C 0,0 km/h (0 Bft)
19.04.2018 07:51 6,1 °C 89 % 1027,1 hPa 0,0 mm 0,0 km/h (0 Bft) NO 56 ° 0 min 0,000 mm 0,7 UV-I 174 W/m² 4,4 °C 6,1 °C 0,0 km/h (0 Bft)
19.04.2018 07:52 6,0 °C 88 % 1027,1 hPa 0,0 mm 0,0 km/h (0 Bft) NO 56 ° 0 min 0,000 mm 0,7 UV-I 179 W/m² 4,2 °C 6,0 °C 0,0 km/h (0 Bft)
19.04.2018 07:53 5,9 °C 88 % 1027,0 hPa 0,0 mm 0,0 km/h (0 Bft) NO 56 ° 0 min 0,000 mm 0,7 UV-I 181 W/m² 4,1 °C 5,9 °C 0,0 km/h (0 Bft)
19.04.2018 07:54 6,1 °C 88 % 1027,0 hPa 0,0 mm 0,0 km/h (0 Bft) NO 56 ° 0 min 0,000 mm 0,7 UV-I 185 W/m² 4,3 °C 6,1 °C 0,0 km/h (0 Bft)
19.04.2018 07:55 6,2 °C 88 % 1027,0 hPa 0,0 mm 0,0 km/h (0 Bft) NO 56 ° 0 min 0,000 mm 0,7 UV-I 186 W/m² 4,4 °C 6,2 °C 0,0 km/h (0 Bft)
19.04.2018 07:56 6,4 °C 87 % 1027,0 hPa 0,0 mm 0,0 km/h (0 Bft) NO 56 ° 0 min 0,000 mm 0,8 UV-I 188 W/m² 4,4 °C 6,4 °C 0,0 km/h (0 Bft)
19.04.2018 07:57 6,6 °C 87 % 1027,0 hPa 0,0 mm 0,0 km/h (0 Bft) NO 56 ° 0 min 0,000 mm 0,8 UV-I 192 W/m² 4,6 °C 6,6 °C 0,0 km/h (0 Bft)
19.04.2018 07:58 6,6 °C 87 % 1027,0 hPa 0,0 mm 0,0 km/h (0 Bft) NO 56 ° 0 min 0,000 mm 0,8 UV-I 197 W/m² 4,6 °C 6,6 °C 0,0 km/h (0 Bft)
19.04.2018 07:59 6,6 °C 86 % 1027,0 hPa 0,0 mm 0,0 km/h (0 Bft) NO 56 ° 0 min 0,000 mm 0,8 UV-I 197 W/m² 4,4 °C 6,6 °C 0,0 km/h (0 Bft)
19.04.2018 08:00 6,7 °C 86 % 1027,0 hPa 0,0 mm 0,0 km/h (0 Bft) NO 56 ° 0 min 0,000 mm 0,8 UV-I 200 W/m² 4,5 °C 6,7 °C 0,0 km/h (0 Bft)
19.04.2018 08:01 6,7 °C 87 % 1027,0 hPa 0,0 mm 0,0 km/h (0 Bft) NO 56 ° 0 min 0,025 mm 0,8 UV-I 200 W/m² 4,7 °C 6,7 °C 0,0 km/h (0 Bft)
19.04.2018 08:02 6,8 °C 86 % 1027,0 hPa 0,0 mm 0,0 km/h (0 Bft) NO 56 ° 0 min 0,000 mm 0,8 UV-I 200 W/m² 4,6 °C 6,8 °C 0,0 km/h (0 Bft)
19.04.2018 08:03 6,9 °C 85 % 1027,0 hPa 0,0 mm 0,0 km/h (0 Bft) NO 56 ° 0 min 0,000 mm 0,9 UV-I 207 W/m² 4,6 °C 6,9 °C 0,0 km/h (0 Bft)
19.04.2018 08:04 7,0 °C 85 % 1027,0 hPa 0,0 mm 0,0 km/h (0 Bft) NO 56 ° 0 min 0,000 mm 0,9 UV-I 213 W/m² 4,7 °C 7,0 °C 0,0 km/h (0 Bft)
19.04.2018 08:05 7,2 °C 85 % 1027,0 hPa 0,0 mm 0,0 km/h (0 Bft) NO 56 ° 0 min 0,000 mm 0,9 UV-I 214 W/m² 4,9 °C 7,2 °C 0,0 km/h (0 Bft)
19.04.2018 08:06 7,4 °C 86 % 1027,0 hPa 0,0 mm 0,0 km/h (0 Bft) NO 56 ° 0 min 0,000 mm 0,9 UV-I 216 W/m² 5,2 °C 7,4 °C 0,0 km/h (0 Bft)
19.04.2018 08:07 7,5 °C 84 % 1027,0 hPa 0,0 mm 0,0 km/h (0 Bft) NO 56 ° 0 min 0,000 mm 0,9 UV-I 218 W/m² 5,0 °C 7,5 °C 0,0 km/h (0 Bft)
19.04.2018 08:08 7,7 °C 84 % 1027,0 hPa 0,0 mm 0,0 km/h (0 Bft) NO 56 ° 0 min 0,000 mm 0,9 UV-I 221 W/m² 5,2 °C 7,7 °C 0,0 km/h (0 Bft)
19.04.2018 08:09 7,8 °C 82 % 1027,0 hPa 0,0 mm 0,0 km/h (0 Bft) NO 56 ° 0 min 0,000 mm 1,0 UV-I 223 W/m² 4,9 °C 7,8 °C 0,0 km/h (0 Bft)
19.04.2018 08:10 7,8 °C 82 % 1027,0 hPa 0,0 mm 0,0 km/h (0 Bft) NO 56 ° 0 min 0,000 mm 1,0 UV-I 229 W/m² 4,9 °C 7,8 °C 0,0 km/h (0 Bft)
19.04.2018 08:11 7,9 °C 83 % 1026,9 hPa 0,0 mm 0,0 km/h (0 Bft) NO 56 ° 0 min 0,000 mm 1,0 UV-I 230 W/m² 5,2 °C 7,9 °C 0,0 km/h (0 Bft)
19.04.2018 08:12 8,1 °C 82 % 1026,9 hPa 0,0 mm 0,0 km/h (0 Bft) NO 56 ° 0 min 0,000 mm 1,0 UV-I 234 W/m² 5,2 °C 8,1 °C 0,0 km/h (0 Bft)
19.04.2018 08:13 8,1 °C 81 % 1026,9 hPa 0,0 mm 0,0 km/h (0 Bft) NO 56 ° 0 min 0,000 mm 1,0 UV-I 236 W/m² 5,0 °C 8,1 °C 0,0 km/h (0 Bft)
19.04.2018 08:14 8,2 °C 83 % 1026,9 hPa 0,0 mm 0,0 km/h (0 Bft) NO 56 ° 0 min 0,000 mm 1,1 UV-I 239 W/m² 5,5 °C 8,2 °C 0,0 km/h (0 Bft)
19.04.2018 08:15 8,5 °C 85 % 1027,0 hPa 0,0 mm 0,0 km/h (0 Bft) NO 56 ° 0 min 0,000 mm 1,1 UV-I 241 W/m² 6,1 °C 8,5 °C 0,0 km/h (0 Bft)
19.04.2018 08:16 8,6 °C 83 % 1027,0 hPa 0,0 mm 0,0 km/h (0 Bft) NO 56 ° 0 min 0,000 mm 1,1 UV-I 246 W/m² 5,9 °C 8,6 °C 0,0 km/h (0 Bft)
19.04.2018 08:17 8,7 °C 82 % 1027,0 hPa 0,0 mm 0,0 km/h (0 Bft) NO 56 ° 0 min 0,000 mm 1,1 UV-I 248 W/m² 5,8 °C 8,7 °C 0,0 km/h (0 Bft)
19.04.2018 08:18 8,8 °C 81 % 1027,0 hPa 0,0 mm 0,0 km/h (0 Bft) NO 56 ° 0 min 0,000 mm 1,1 UV-I 251 W/m² 5,7 °C 8,8 °C 0,0 km/h (0 Bft)
19.04.2018 08:19 8,9 °C 81 % 1027,0 hPa 0,0 mm 0,0 km/h (0 Bft) NO 56 ° 0 min 0,000 mm 1,2 UV-I 251 W/m² 5,8 °C 8,9 °C 0,0 km/h (0 Bft)
19.04.2018 08:20 9,1 °C 80 % 1027,0 hPa 0,0 mm 0,0 km/h (0 Bft) NO 56 ° 0 min 0,000 mm 1,2 UV-I 257 W/m² 5,8 °C 9,1 °C 0,0 km/h (0 Bft)
19.04.2018 08:21 9,3 °C 83 % 1027,0 hPa 0,0 mm 0,0 km/h (0 Bft) NO 56 ° 0 min 0,000 mm 1,2 UV-I 260 W/m² 6,6 °C 9,3 °C 0,0 km/h (0 Bft)
19.04.2018 08:22 9,5 °C 82 % 1027,0 hPa 0,0 mm 0,0 km/h (0 Bft) NO 56 ° 0 min 0,000 mm 1,2 UV-I 264 W/m² 6,6 °C 9,5 °C 0,0 km/h (0 Bft)
19.04.2018 08:23 9,6 °C 83 % 1027,0 hPa 0,0 mm 0,0 km/h (0 Bft) NO 56 ° 0 min 0,000 mm 1,3 UV-I 265 W/m² 6,9 °C 9,6 °C 0,0 km/h (0 Bft)
19.04.2018 08:24 9,6 °C 80 % 1027,0 hPa 0,0 mm 0,0 km/h (0 Bft) NO 56 ° 0 min 0,000 mm 1,3 UV-I 269 W/m² 6,3 °C 9,6 °C 0,0 km/h (0 Bft)
19.04.2018 08:25 9,7 °C 82 % 1027,0 hPa 0,0 mm 0,0 km/h (0 Bft) NO 56 ° 0 min 0,000 mm 1,3 UV-I 272 W/m² 6,8 °C 9,7 °C 0,0 km/h (0 Bft)
19.04.2018 08:26 9,8 °C 81 % 1027,0 hPa 0,0 mm 0,0 km/h (0 Bft) NO 56 ° 0 min 0,000 mm 1,3 UV-I 274 W/m² 6,7 °C 9,8 °C 0,0 km/h (0 Bft)
19.04.2018 08:27 10,0 °C 80 % 1027,0 hPa 0,0 mm 0,0 km/h (0 Bft) NO 56 ° 0 min 0,000 mm 1,3 UV-I 281 W/m² 6,7 °C 10,0 °C 0,0 km/h (0 Bft)
19.04.2018 08:28 10,2 °C 80 % 1027,0 hPa 0,0 mm 0,0 km/h (0 Bft) NO 56 ° 0 min 0,000 mm 1,4 UV-I 285 W/m² 6,9 °C 10,2 °C 0,0 km/h (0 Bft)
19.04.2018 08:29 10,3 °C 79 % 1027,0 hPa 0,0 mm 0,0 km/h (0 Bft) NO 56 ° 0 min 0,000 mm 1,4 UV-I 288 W/m² 6,8 °C 10,3 °C 0,0 km/h (0 Bft)
19.04.2018 08:30 10,3 °C 80 % 1026,9 hPa 0,0 mm 0,0 km/h (0 Bft) NO 56 ° 1 min 0,000 mm 1,4 UV-I 294 W/m² 7,0 °C 10,3 °C 0,0 km/h (0 Bft)
19.04.2018 08:31 10,3 °C 79 % 1026,9 hPa 0,0 mm 0,0 km/h (0 Bft) NO 56 ° 1 min 0,000 mm 1,4 UV-I 297 W/m² 6,8 °C 10,3 °C 0,0 km/h (0 Bft)
19.04.2018 08:32 10,3 °C 77 % 1027,0 hPa 0,0 mm 0,0 km/h (0 Bft) NO 56 ° 1 min 0,000 mm 1,5 UV-I 299 W/m² 6,4 °C 10,3 °C 0,0 km/h (0 Bft)
19.04.2018 08:33 10,4 °C 77 % 1026,9 hPa 0,0 mm 0,0 km/h (0 Bft) NO 56 ° 1 min 0,000 mm 1,5 UV-I 304 W/m² 6,5 °C 10,4 °C 0,0 km/h (0 Bft)
19.04.2018 08:34 10,4 °C 78 % 1026,9 hPa 0,0 mm 0,0 km/h (0 Bft) NO 56 ° 1 min 0,000 mm 1,5 UV-I 308 W/m² 6,7 °C 10,4 °C 0,0 km/h (0 Bft)
19.04.2018 08:35 10,4 °C 78 % 1026,9 hPa 0,0 mm 0,0 km/h (0 Bft) NO 56 ° 1 min 0,000 mm 1,5 UV-I 309 W/m² 6,7 °C 10,4 °C 0,0 km/h (0 Bft)
19.04.2018 08:36 10,4 °C 77 % 1026,9 hPa 0,0 mm 0,0 km/h (0 Bft) NO 56 ° 1 min 0,000 mm 1,6 UV-I 313 W/m² 6,5 °C 10,4 °C 0,0 km/h (0 Bft)
19.04.2018 08:37 10,4 °C 78 % 1027,0 hPa 0,0 mm 0,0 km/h (0 Bft) NO 56 ° 1 min 0,000 mm 1,6 UV-I 313 W/m² 6,7 °C 10,4 °C 0,0 km/h (0 Bft)
19.04.2018 08:38 10,4 °C 76 % 1027,0 hPa 0,0 mm 0,0 km/h (0 Bft) NO 56 ° 1 min 0,000 mm 1,5 UV-I 306 W/m² 6,4 °C 10,4 °C 0,0 km/h (0 Bft)
19.04.2018 08:39 10,6 °C 79 % 1027,0 hPa 0,0 mm 0,0 km/h (0 Bft) NO 56 ° 0 min 0,000 mm 1,5 UV-I 260 W/m² 7,1 °C 10,6 °C 0,0 km/h (0 Bft)
19.04.2018 08:40 10,7 °C 80 % 1026,9 hPa 0,0 mm 0,0 km/h (0 Bft) NO 56 ° 1 min 0,000 mm 1,6 UV-I 323 W/m² 7,4 °C 10,7 °C 0,0 km/h (0 Bft)
19.04.2018 08:41 10,9 °C 77 % 1027,0 hPa 0,0 mm 2,4 km/h (1 Bft) NO 56 ° 1 min 0,000 mm 1,7 UV-I 327 W/m² 7,0 °C 10,9 °C 3,2 km/h (1 Bft)
19.04.2018 08:42 10,9 °C 77 % 1026,9 hPa 0,0 mm 1,9 km/h (1 Bft) NO 56 ° 1 min 0,000 mm 1,7 UV-I 330 W/m² 7,0 °C 10,9 °C 3,2 km/h (1 Bft)
19.04.2018 08:43 11,1 °C 77 % 1026,9 hPa 0,0 mm 2,8 km/h (1 Bft) NO 49 ° 1 min 0,000 mm 1,7 UV-I 332 W/m² 7,2 °C 11,1 °C 4,8 km/h (1 Bft)
19.04.2018 08:44 11,1 °C 74 % 1026,9 hPa 0,0 mm 0,9 km/h (0 Bft) NO 49 ° 1 min 0,000 mm 1,7 UV-I 336 W/m² 6,6 °C 11,1 °C 3,2 km/h (1 Bft)
19.04.2018 08:45 11,0 °C 74 % 1026,9 hPa 0,0 mm 0,0 km/h (0 Bft) NO 49 ° 1 min 0,000 mm 1,7 UV-I 341 W/m² 6,5 °C 11,0 °C 0,0 km/h (0 Bft)
19.04.2018 08:46 11,1 °C 73 % 1026,9 hPa 0,0 mm 0,5 km/h (0 Bft) NO 49 ° 1 min 0,000 mm 1,8 UV-I 343 W/m² 6,4 °C 11,1 °C 1,6 km/h (1 Bft)
19.04.2018 08:47 11,0 °C 75 % 1026,9 hPa 0,0 mm 0,6 km/h (0 Bft) NO 49 ° 1 min 0,000 mm 1,8 UV-I 345 W/m² 6,7 °C 11,0 °C 1,6 km/h (1 Bft)
19.04.2018 08:48 11,0 °C 73 % 1027,0 hPa 0,0 mm 0,1 km/h (0 Bft) NO 49 ° 1 min 0,000 mm 1,8 UV-I 348 W/m² 6,4 °C 11,0 °C 1,6 km/h (1 Bft)
19.04.2018 08:49 11,1 °C 74 % 1026,9 hPa 0,0 mm 1,7 km/h (1 Bft) NO 49 ° 1 min 0,000 mm 1,8 UV-I 350 W/m² 6,6 °C 11,1 °C 3,2 km/h (1 Bft)
19.04.2018 08:50 11,2 °C 74 % 1027,0 hPa 0,0 mm 0,3 km/h (0 Bft) NO 49 ° 1 min 0,000 mm 1,8 UV-I 353 W/m² 6,7 °C 11,2 °C 1,6 km/h (1 Bft)
19.04.2018 08:51 11,2 °C 76 % 1027,0 hPa 0,0 mm 0,1 km/h (0 Bft) NO 49 ° 1 min 0,000 mm 1,8 UV-I 359 W/m² 7,1 °C 11,2 °C 1,6 km/h (1 Bft)
19.04.2018 08:52 11,1 °C 74 % 1027,0 hPa 0,0 mm 0,0 km/h (0 Bft) NO 49 ° 1 min 0,000 mm 1,9 UV-I 360 W/m² 6,6 °C 11,1 °C 0,0 km/h (0 Bft)
19.04.2018 08:53 11,2 °C 74 % 1027,0 hPa 0,0 mm 0,5 km/h (0 Bft) NO 49 ° 1 min 0,000 mm 1,9 UV-I 362 W/m² 6,7 °C 11,2 °C 1,6 km/h (1 Bft)
19.04.2018 08:54 11,3 °C 76 % 1027,0 hPa 0,0 mm 0,2 km/h (0 Bft) NO 49 ° 1 min 0,000 mm 1,9 UV-I 366 W/m² 7,2 °C 11,3 °C 1,6 km/h (1 Bft)
19.04.2018 08:55 11,5 °C 74 % 1027,0 hPa 0,0 mm 1,7 km/h (1 Bft) NO 49 ° 1 min 0,000 mm 1,9 UV-I 366 W/m² 7,0 °C 11,5 °C 3,2 km/h (1 Bft)
19.04.2018 08:56 11,7 °C 72 % 1027,0 hPa 0,0 mm 1,7 km/h (1 Bft) NO 48 ° 1 min 0,000 mm 2,0 UV-I 369 W/m² 6,8 °C 11,7 °C 3,2 km/h (1 Bft)
19.04.2018 08:57 11,8 °C 76 % 1027,0 hPa 0,0 mm 0,5 km/h (0 Bft) NO 48 ° 1 min 0,000 mm 2,0 UV-I 374 W/m² 7,7 °C 11,8 °C 1,6 km/h (1 Bft)
19.04.2018 08:58 11,9 °C 73 % 1027,0 hPa 0,0 mm 1,7 km/h (1 Bft) N-NO 24 ° 1 min 0,000 mm 2,0 UV-I 376 W/m² 7,2 °C 11,9 °C 4,8 km/h (1 Bft)
19.04.2018 08:59 12,0 °C 74 % 1027,0 hPa 0,0 mm 1,0 km/h (0 Bft) N-NO 24 ° 1 min 0,000 mm 2,0 UV-I 380 W/m² 7,5 °C 12,0 °C 3,2 km/h (1 Bft)
19.04.2018 09:00 12,0 °C 72 % 1027,0 hPa 0,0 mm 0,7 km/h (0 Bft) N-NO 24 ° 1 min 0,127 mm 2,1 UV-I 381 W/m² 7,1 °C 12,0 °C 1,6 km/h (1 Bft)
19.04.2018 09:01 11,9 °C 73 % 1027,0 hPa 0,0 mm 1,7 km/h (1 Bft) N-NO 24 ° 1 min 0,000 mm 2,1 UV-I 385 W/m² 7,2 °C 11,9 °C 3,2 km/h (1 Bft)
19.04.2018 09:02 12,1 °C 75 % 1027,1 hPa 0,0 mm 0,8 km/h (0 Bft) N-NO 24 ° 1 min 0,000 mm 2,1 UV-I 387 W/m² 7,8 °C 12,1 °C 1,6 km/h (1 Bft)
19.04.2018 09:03 12,2 °C 76 % 1027,0 hPa 0,0 mm 0,7 km/h (0 Bft) N-NO 24 ° 1 min 0,000 mm 2,1 UV-I 390 W/m² 8,1 °C 12,2 °C 1,6 km/h (1 Bft)
19.04.2018 09:04 12,3 °C 71 % 1027,1 hPa 0,0 mm 0,2 km/h (0 Bft) N-NO 24 ° 1 min 0,000 mm 2,1 UV-I 392 W/m² 7,2 °C 12,3 °C 1,6 km/h (1 Bft)
19.04.2018 09:05 12,3 °C 70 % 1027,0 hPa 0,0 mm 1,4 km/h (1 Bft) N-NO 24 ° 1 min 0,000 mm 2,2 UV-I 396 W/m² 7,0 °C 12,3 °C 3,2 km/h (1 Bft)
19.04.2018 09:06 12,3 °C 70 % 1027,0 hPa 0,0 mm 2,3 km/h (1 Bft) N-NO 24 ° 1 min 0,000 mm 2,2 UV-I 397 W/m² 7,0 °C 12,3 °C 3,2 km/h (1 Bft)
19.04.2018 09:07 12,4 °C 70 % 1027,0 hPa 0,0 mm 1,7 km/h (1 Bft) N-NO 24 ° 1 min 0,000 mm 2,2 UV-I 401 W/m² 7,1 °C 12,4 °C 3,2 km/h (1 Bft)
19.04.2018 09:08 12,5 °C 70 % 1027,0 hPa 0,0 mm 2,0 km/h (1 Bft) N-NO 24 ° 1 min 0,000 mm 2,2 UV-I 404 W/m² 7,2 °C 12,5 °C 4,8 km/h (1 Bft)
19.04.2018 09:09 12,6 °C 70 % 1026,9 hPa 0,0 mm 1,2 km/h (1 Bft) N-NO 24 ° 1 min 0,000 mm 2,2 UV-I 408 W/m² 7,3 °C 12,6 °C 3,2 km/h (1 Bft)
19.04.2018 09:10 12,7 °C 70 % 1026,9 hPa 0,0 mm 0,8 km/h (0 Bft) N-NO 24 ° 1 min 0,000 mm 2,3 UV-I 410 W/m² 7,4 °C 12,7 °C 1,6 km/h (1 Bft)
19.04.2018 09:11 12,6 °C 68 % 1026,9 hPa 0,0 mm 1,0 km/h (0 Bft) N-NO 24 ° 1 min 0,000 mm 2,3 UV-I 411 W/m² 6,9 °C 12,6 °C 1,6 km/h (1 Bft)
19.04.2018 09:12 12,7 °C 70 % 1026,9 hPa 0,0 mm 0,3 km/h (0 Bft) N-NO 24 ° 1 min 0,000 mm 2,3 UV-I 415 W/m² 7,4 °C 12,7 °C 1,6 km/h (1 Bft)
19.04.2018 09:13 12,6 °C 69 % 1026,9 hPa 0,0 mm 0,1 km/h (0 Bft) N-NO 24 ° 1 min 0,000 mm 2,3 UV-I 415 W/m² 7,1 °C 12,6 °C 1,6 km/h (1 Bft)
19.04.2018 09:14 12,6 °C 68 % 1027,0 hPa 0,0 mm 0,0 km/h (0 Bft) N-NO 24 ° 1 min 0,000 mm 2,3 UV-I 422 W/m² 6,9 °C 12,6 °C 0,0 km/h (0 Bft)
19.04.2018 09:15 12,6 °C 69 % 1027,0 hPa 0,0 mm 0,5 km/h (0 Bft) N-NO 24 ° 1 min 0,000 mm 2,4 UV-I 424 W/m² 7,1 °C 12,6 °C 1,6 km/h (1 Bft)
19.04.2018 09:16 12,7 °C 69 % 1026,9 hPa 0,0 mm 0,3 km/h (0 Bft) N-NO 24 ° 1 min 0,000 mm 2,4 UV-I 427 W/m² 7,2 °C 12,7 °C 1,6 km/h (1 Bft)
19.04.2018 09:17 12,7 °C 67 % 1026,9 hPa 0,0 mm 0,0 km/h (0 Bft) N-NO 24 ° 1 min 0,000 mm 2,4 UV-I 429 W/m² 6,7 °C 12,7 °C 0,0 km/h (0 Bft)
19.04.2018 09:18 12,8 °C 67 % 1026,9 hPa 0,0 mm 0,0 km/h (0 Bft) N-NO 24 ° 1 min 0,000 mm 2,4 UV-I 432 W/m² 6,8 °C 12,8 °C 0,0 km/h (0 Bft)
19.04.2018 09:19 12,8 °C 67 % 1026,9 hPa 0,0 mm 0,0 km/h (0 Bft) N-NO 24 ° 1 min 0,000 mm 2,5 UV-I 434 W/m² 6,8 °C 12,8 °C 0,0 km/h (0 Bft)
19.04.2018 09:20 12,9 °C 67 % 1026,9 hPa 0,0 mm 0,0 km/h (0 Bft) N-NO 24 ° 1 min 0,000 mm 2,5 UV-I 441 W/m² 6,9 °C 12,9 °C 0,0 km/h (0 Bft)
19.04.2018 09:21 12,9 °C 68 % 1026,9 hPa 0,0 mm 0,4 km/h (0 Bft) N-NO 24 ° 1 min 0,000 mm 2,5 UV-I 443 W/m² 7,1 °C 12,9 °C 1,6 km/h (1 Bft)
19.04.2018 09:22 13,2 °C 71 % 1026,9 hPa 0,0 mm 3,0 km/h (1 Bft) N-NO 24 ° 1 min 0,000 mm 2,5 UV-I 446 W/m² 8,1 °C 13,2 °C 3,2 km/h (1 Bft)
19.04.2018 09:23 13,3 °C 70 % 1026,8 hPa 0,0 mm 2,1 km/h (1 Bft) N-NO 24 ° 1 min 0,000 mm 2,6 UV-I 450 W/m² 7,9 °C 13,3 °C 3,2 km/h (1 Bft)
19.04.2018 09:24 13,3 °C 69 % 1026,9 hPa 0,0 mm 2,7 km/h (1 Bft) N-NO 24 ° 1 min 0,000 mm 2,6 UV-I 452 W/m² 7,7 °C 13,3 °C 3,2 km/h (1 Bft)
19.04.2018 09:25 13,3 °C 65 % 1026,8 hPa 0,0 mm 1,3 km/h (1 Bft) N-NO 24 ° 1 min 0,000 mm 2,6 UV-I 454 W/m² 6,9 °C 13,3 °C 3,2 km/h (1 Bft)
19.04.2018 09:26 13,3 °C 65 % 1026,9 hPa 0,0 mm 1,5 km/h (1 Bft) N-NO 24 ° 1 min 0,000 mm 2,6 UV-I 461 W/m² 6,9 °C 13,3 °C 3,2 km/h (1 Bft)
19.04.2018 09:27 13,3 °C 67 % 1026,8 hPa 0,0 mm 0,0 km/h (0 Bft) N-NO 24 ° 1 min 0,000 mm 2,7 UV-I 464 W/m² 7,3 °C 13,3 °C 0,0 km/h (0 Bft)
19.04.2018 09:28 13,4 °C 67 % 1026,9 hPa 0,0 mm 0,7 km/h (0 Bft) N-NO 24 ° 1 min 0,000 mm 2,7 UV-I 464 W/m² 7,4 °C 13,4 °C 3,2 km/h (1 Bft)
19.04.2018 09:29 13,4 °C 67 % 1026,9 hPa 0,0 mm 1,0 km/h (0 Bft) N-NO 24 ° 1 min 0,000 mm 2,7 UV-I 466 W/m² 7,4 °C 13,4 °C 1,6 km/h (1 Bft)
19.04.2018 09:30 13,4 °C 66 % 1026,8 hPa 0,0 mm 0,1 km/h (0 Bft) N-NO 24 ° 1 min 0,000 mm 2,7 UV-I 471 W/m² 7,2 °C 13,4 °C 1,6 km/h (1 Bft)
19.04.2018 09:31 13,4 °C 65 % 1026,8 hPa 0,0 mm 0,7 km/h (0 Bft) N-NO 24 ° 1 min 0,000 mm 2,8 UV-I 471 W/m² 7,0 °C 13,4 °C 1,6 km/h (1 Bft)
19.04.2018 09:32 13,5 °C 65 % 1026,8 hPa 0,0 mm 0,0 km/h (0 Bft) N-NO 24 ° 1 min 0,000 mm 2,8 UV-I 478 W/m² 7,1 °C 13,5 °C 0,0 km/h (0 Bft)
19.04.2018 09:33 13,5 °C 63 % 1026,8 hPa 0,0 mm 0,0 km/h (0 Bft) N-NO 24 ° 1 min 0,000 mm 2,8 UV-I 480 W/m² 6,6 °C 13,5 °C 0,0 km/h (0 Bft)
19.04.2018 09:34 13,7 °C 65 % 1026,8 hPa 0,0 mm 0,0 km/h (0 Bft) N-NO 24 ° 1 min 0,000 mm 2,8 UV-I 482 W/m² 7,2 °C 13,7 °C 0,0 km/h (0 Bft)
19.04.2018 09:35 13,7 °C 68 % 1026,8 hPa 0,0 mm 0,0 km/h (0 Bft) N-NO 24 ° 1 min 0,000 mm 2,8 UV-I 483 W/m² 7,9 °C 13,7 °C 0,0 km/h (0 Bft)
19.04.2018 09:36 13,8 °C 65 % 1026,8 hPa 0,0 mm 0,0 km/h (0 Bft) N-NO 24 ° 1 min 0,000 mm 2,9 UV-I 487 W/m² 7,3 °C 13,8 °C 0,0 km/h (0 Bft)
19.04.2018 09:37 13,7 °C 63 % 1026,8 hPa 0,0 mm 0,0 km/h (0 Bft) N-NO 24 ° 1 min 0,000 mm 2,9 UV-I 489 W/m² 6,8 °C 13,7 °C 0,0 km/h (0 Bft)
19.04.2018 09:38 13,6 °C 63 % 1026,8 hPa 0,0 mm 0,0 km/h (0 Bft) N-NO 24 ° 1 min 0,000 mm 2,9 UV-I 494 W/m² 6,7 °C 13,6 °C 0,0 km/h (0 Bft)
19.04.2018 09:39 13,5 °C 63 % 1026,7 hPa 0,0 mm 0,0 km/h (0 Bft) N-NO 24 ° 1 min 0,000 mm 2,9 UV-I 497 W/m² 6,6 °C 13,5 °C 0,0 km/h (0 Bft)
19.04.2018 09:40 13,6 °C 65 % 1026,7 hPa 0,0 mm 0,0 km/h (0 Bft) N-NO 24 ° 1 min 0,000 mm 3,0 UV-I 499 W/m² 7,1 °C 13,6 °C 0,0 km/h (0 Bft)
19.04.2018 09:41 13,8 °C 69 % 1026,8 hPa 0,0 mm 0,0 km/h (0 Bft) N-NO 24 ° 1 min 0,000 mm 3,0 UV-I 503 W/m² 8,2 °C 13,8 °C 0,0 km/h (0 Bft)
19.04.2018 09:42 13,9 °C 67 % 1026,7 hPa 0,0 mm 0,0 km/h (0 Bft) N-NO 24 ° 1 min 0,000 mm 3,0 UV-I 503 W/m² 7,9 °C 13,9 °C 0,0 km/h (0 Bft)
19.04.2018 09:43 14,0 °C 67 % 1026,7 hPa 0,0 mm 0,0 km/h (0 Bft) N-NO 24 ° 1 min 0,000 mm 3,0 UV-I 508 W/m² 8,0 °C 14,0 °C 0,0 km/h (0 Bft)
19.04.2018 09:44 14,1 °C 64 % 1026,7 hPa 0,0 mm 0,0 km/h (0 Bft) N-NO 24 ° 1 min 0,000 mm 3,0 UV-I 510 W/m² 7,4 °C 14,1 °C 0,0 km/h (0 Bft)
19.04.2018 09:45 14,3 °C 66 % 1026,7 hPa 0,0 mm 3,3 km/h (1 Bft) N-NO 19 ° 1 min 0,000 mm 3,1 UV-I 513 W/m² 8,0 °C 14,3 °C 4,8 km/h (1 Bft)
19.04.2018 09:46 14,4 °C 70 % 1026,7 hPa 0,0 mm 2,6 km/h (1 Bft) N-NO 19 ° 1 min 0,000 mm 3,1 UV-I 515 W/m² 9,0 °C 14,4 °C 4,8 km/h (1 Bft)
19.04.2018 09:47 14,4 °C 66 % 1026,8 hPa 0,0 mm 1,0 km/h (0 Bft) N-NO 19 ° 1 min 0,000 mm 3,1 UV-I 517 W/m² 8,1 °C 14,4 °C 1,6 km/h (1 Bft)
19.04.2018 09:48 14,4 °C 61 % 1026,8 hPa 0,0 mm 0,0 km/h (0 Bft) N-NO 19 ° 1 min 0,000 mm 3,1 UV-I 519 W/m² 7,0 °C 14,4 °C 0,0 km/h (0 Bft)
19.04.2018 09:49 14,3 °C 62 % 1026,8 hPa 0,0 mm 0,2 km/h (0 Bft) N-NO 22 ° 1 min 0,000 mm 3,1 UV-I 524 W/m² 7,1 °C 14,3 °C 1,6 km/h (1 Bft)
19.04.2018 09:50 14,2 °C 62 % 1026,8 hPa 0,0 mm 0,0 km/h (0 Bft) N-NO 22 ° 1 min 0,000 mm 3,2 UV-I 526 W/m² 7,0 °C 14,2 °C 0,0 km/h (0 Bft)
19.04.2018 09:51 14,1 °C 62 % 1026,8 hPa 0,0 mm 1,7 km/h (1 Bft) N-NO 22 ° 1 min 0,000 mm 3,2 UV-I 527 W/m² 6,9 °C 14,1 °C 4,8 km/h (1 Bft)
19.04.2018 09:52 14,2 °C 65 % 1026,7 hPa 0,0 mm 0,3 km/h (0 Bft) N-NO 22 ° 1 min 0,000 mm 3,2 UV-I 531 W/m² 7,7 °C 14,2 °C 1,6 km/h (1 Bft)
19.04.2018 09:53 14,3 °C 61 % 1026,7 hPa 0,0 mm 0,6 km/h (0 Bft) N-NO 22 ° 1 min 0,000 mm 3,2 UV-I 533 W/m² 6,9 °C 14,3 °C 1,6 km/h (1 Bft)
19.04.2018 09:54 14,2 °C 61 % 1026,7 hPa 0,0 mm 0,2 km/h (0 Bft) N-NO 22 ° 1 min 0,000 mm 3,3 UV-I 534 W/m² 6,8 °C 14,2 °C 1,6 km/h (1 Bft)
19.04.2018 09:55 14,2 °C 63 % 1026,8 hPa 0,0 mm 0,0 km/h (0 Bft) N-NO 22 ° 1 min 0,000 mm 3,3 UV-I 540 W/m² 7,3 °C 14,2 °C 0,0 km/h (0 Bft)
19.04.2018 09:56 14,2 °C 66 % 1026,7 hPa 0,0 mm 0,0 km/h (0 Bft) N-NO 22 ° 1 min 0,000 mm 3,3 UV-I 541 W/m² 7,9 °C 14,2 °C 0,0 km/h (0 Bft)
19.04.2018 09:57 14,2 °C 64 % 1026,7 hPa 0,0 mm 0,2 km/h (0 Bft) O-NO 57 ° 1 min 0,000 mm 3,3 UV-I 545 W/m² 7,5 °C 14,2 °C 1,6 km/h (1 Bft)
19.04.2018 09:58 14,1 °C 64 % 1026,7 hPa 0,0 mm 1,1 km/h (1 Bft) O-NO 57 ° 1 min 0,000 mm 3,3 UV-I 547 W/m² 7,4 °C 14,1 °C 3,2 km/h (1 Bft)
19.04.2018 09:59 14,2 °C 64 % 1026,7 hPa 0,0 mm 0,4 km/h (0 Bft) O-NO 57 ° 1 min 0,000 mm 3,4 UV-I 550 W/m² 7,5 °C 14,2 °C 1,6 km/h (1 Bft)
19.04.2018 10:00 14,3 °C 64 % 1026,7 hPa 0,0 mm 0,9 km/h (0 Bft) O-NO 57 ° 1 min 0,229 mm 3,4 UV-I 554 W/m² 7,6 °C 14,3 °C 1,6 km/h (1 Bft)
19.04.2018 10:01 14,4 °C 62 % 1026,7 hPa 0,0 mm 0,1 km/h (0 Bft) O-NO 57 ° 1 min 0,000 mm 3,4 UV-I 555 W/m² 7,2 °C 14,4 °C 1,6 km/h (1 Bft)
19.04.2018 10:02 14,6 °C 63 % 1026,7 hPa 0,0 mm 1,3 km/h (1 Bft) O-NO 57 ° 1 min 0,000 mm 3,4 UV-I 557 W/m² 7,6 °C 14,6 °C 1,6 km/h (1 Bft)
19.04.2018 10:03 14,6 °C 63 % 1026,7 hPa 0,0 mm 0,0 km/h (0 Bft) O-NO 57 ° 1 min 0,000 mm 3,5 UV-I 561 W/m² 7,6 °C 14,6 °C 0,0 km/h (0 Bft)
19.04.2018 10:04 14,6 °C 63 % 1026,7 hPa 0,0 mm 0,0 km/h (0 Bft) O-NO 57 ° 1 min 0,000 mm 3,5 UV-I 564 W/m² 7,6 °C 14,6 °C 0,0 km/h (0 Bft)
19.04.2018 10:05 14,8 °C 67 % 1026,7 hPa 0,0 mm 0,0 km/h (0 Bft) O-NO 57 ° 1 min 0,000 mm 3,5 UV-I 564 W/m² 8,7 °C 14,8 °C 0,0 km/h (0 Bft)
19.04.2018 10:06 14,9 °C 61 % 1026,7 hPa 0,0 mm 0,5 km/h (0 Bft) O-NO 57 ° 1 min 0,000 mm 3,5 UV-I 568 W/m² 7,4 °C 14,9 °C 1,6 km/h (1 Bft)
19.04.2018 10:07 15,0 °C 62 % 1026,7 hPa 0,0 mm 1,3 km/h (1 Bft) O-NO 57 ° 1 min 0,000 mm 3,6 UV-I 571 W/m² 7,8 °C 15,0 °C 3,2 km/h (1 Bft)
19.04.2018 10:08 14,9 °C 61 % 1026,7 hPa 0,0 mm 1,3 km/h (1 Bft) O-NO 57 ° 1 min 0,000 mm 3,6 UV-I 573 W/m² 7,4 °C 14,9 °C 3,2 km/h (1 Bft)
19.04.2018 10:09 15,1 °C 61 % 1026,7 hPa 0,0 mm 0,4 km/h (0 Bft) O-NO 57 ° 1 min 0,000 mm 3,6 UV-I 575 W/m² 7,6 °C 15,1 °C 1,6 km/h (1 Bft)
19.04.2018 10:10 15,1 °C 61 % 1026,7 hPa 0,0 mm 0,1 km/h (0 Bft) O-NO 57 ° 1 min 0,000 mm 3,6 UV-I 578 W/m² 7,6 °C 15,1 °C 1,6 km/h (1 Bft)
19.04.2018 10:11 15,1 °C 60 % 1026,7 hPa 0,0 mm 0,3 km/h (0 Bft) O-NO 57 ° 1 min 0,000 mm 3,7 UV-I 580 W/m² 7,4 °C 15,1 °C 1,6 km/h (1 Bft)
19.04.2018 10:12 15,2 °C 63 % 1026,7 hPa 0,0 mm 0,6 km/h (0 Bft) O-NO 57 ° 1 min 0,000 mm 3,7 UV-I 582 W/m² 8,2 °C 15,2 °C 1,6 km/h (1 Bft)
19.04.2018 10:13 15,3 °C 60 % 1026,7 hPa 0,0 mm 1,9 km/h (1 Bft) O-NO 57 ° 1 min 0,000 mm 3,7 UV-I 585 W/m² 7,6 °C 15,3 °C 3,2 km/h (1 Bft)
19.04.2018 10:14 15,5 °C 60 % 1026,7 hPa 0,0 mm 2,3 km/h (1 Bft) O-NO 57 ° 1 min 0,000 mm 3,7 UV-I 587 W/m² 7,8 °C 15,5 °C 3,2 km/h (1 Bft)
19.04.2018 10:15 15,5 °C 63 % 1026,7 hPa 0,0 mm 0,9 km/h (0 Bft) O-NO 57 ° 1 min 0,000 mm 3,7 UV-I 589 W/m² 8,5 °C 15,5 °C 3,2 km/h (1 Bft)
19.04.2018 10:16 15,4 °C 61 % 1026,7 hPa 0,0 mm 2,1 km/h (1 Bft) O-NO 57 ° 1 min 0,000 mm 3,8 UV-I 591 W/m² 7,9 °C 15,4 °C 3,2 km/h (1 Bft)
19.04.2018 10:17 15,6 °C 64 % 1026,7 hPa 0,0 mm 1,9 km/h (1 Bft) O-NO 57 ° 1 min 0,000 mm 3,8 UV-I 594 W/m² 8,8 °C 15,6 °C 3,2 km/h (1 Bft)
19.04.2018 10:18 15,6 °C 61 % 1026,7 hPa 0,0 mm 2,6 km/h (1 Bft) NO 55 ° 1 min 0,000 mm 3,8 UV-I 596 W/m² 8,1 °C 15,6 °C 4,8 km/h (1 Bft)
19.04.2018 10:19 15,6 °C 59 % 1026,8 hPa 0,0 mm 2,8 km/h (1 Bft) NO 54 ° 1 min 0,000 mm 3,8 UV-I 601 W/m² 7,6 °C 15,6 °C 3,2 km/h (1 Bft)
19.04.2018 10:20 15,7 °C 61 % 1026,7 hPa 0,0 mm 3,0 km/h (1 Bft) NO 51 ° 1 min 0,000 mm 3,9 UV-I 603 W/m² 8,2 °C 15,7 °C 4,8 km/h (1 Bft)
19.04.2018 10:21 15,9 °C 60 % 1026,7 hPa 0,0 mm 4,2 km/h (1 Bft) NO 44 ° 1 min 0,000 mm 3,9 UV-I 605 W/m² 8,1 °C 15,9 °C 6,4 km/h (2 Bft)
19.04.2018 10:22 16,0 °C 59 % 1026,8 hPa 0,0 mm 3,2 km/h (1 Bft) NO 44 ° 1 min 0,000 mm 3,9 UV-I 606 W/m² 8,0 °C 16,0 °C 6,4 km/h (2 Bft)
19.04.2018 10:23 15,9 °C 58 % 1026,8 hPa 0,0 mm 3,3 km/h (1 Bft) NO 44 ° 1 min 0,000 mm 3,9 UV-I 608 W/m² 7,6 °C 15,9 °C 4,8 km/h (1 Bft)
19.04.2018 10:24 15,9 °C 59 % 1026,8 hPa 0,0 mm 0,2 km/h (0 Bft) NO 44 ° 1 min 0,000 mm 3,9 UV-I 610 W/m² 7,9 °C 15,9 °C 1,6 km/h (1 Bft)
19.04.2018 10:25 15,9 °C 58 % 1026,8 hPa 0,0 mm 0,6 km/h (0 Bft) NO 44 ° 1 min 0,000 mm 4,0 UV-I 615 W/m² 7,6 °C 15,9 °C 1,6 km/h (1 Bft)
19.04.2018 10:26 15,9 °C 61 % 1026,8 hPa 0,0 mm 2,0 km/h (1 Bft) NO 44 ° 1 min 0,000 mm 4,0 UV-I 617 W/m² 8,4 °C 15,9 °C 4,8 km/h (1 Bft)
19.04.2018 10:27 15,9 °C 60 % 1026,8 hPa 0,0 mm 2,7 km/h (1 Bft) NO 43 ° 1 min 0,000 mm 4,0 UV-I 619 W/m² 8,1 °C 15,9 °C 4,8 km/h (1 Bft)
19.04.2018 10:28 15,9 °C 58 % 1026,8 hPa 0,0 mm 1,7 km/h (1 Bft) NO 43 ° 1 min 0,000 mm 4,0 UV-I 621 W/m² 7,6 °C 15,9 °C 3,2 km/h (1 Bft)
19.04.2018 10:29 16,1 °C 58 % 1026,8 hPa 0,0 mm 0,2 km/h (0 Bft) NO 43 ° 1 min 0,000 mm 4,0 UV-I 622 W/m² 7,8 °C 16,1 °C 1,6 km/h (1 Bft)
19.04.2018 10:30 16,1 °C 58 % 1026,9 hPa 0,0 mm 0,0 km/h (0 Bft) NO 43 ° 1 min 0,000 mm 4,0 UV-I 626 W/m² 7,8 °C 16,1 °C 0,0 km/h (0 Bft)
19.04.2018 10:31 16,2 °C 61 % 1026,8 hPa 0,0 mm 0,2 km/h (0 Bft) NO 43 ° 1 min 0,000 mm 4,1 UV-I 629 W/m² 8,7 °C 16,2 °C 1,6 km/h (1 Bft)
19.04.2018 10:32 16,1 °C 60 % 1026,9 hPa 0,0 mm 2,5 km/h (1 Bft) NO 40 ° 1 min 0,000 mm 4,1 UV-I 631 W/m² 8,3 °C 16,1 °C 4,8 km/h (1 Bft)
19.04.2018 10:33 16,2 °C 64 % 1026,8 hPa 0,0 mm 4,3 km/h (1 Bft) N 360 ° 1 min 0,000 mm 4,1 UV-I 633 W/m² 9,4 °C 16,2 °C 6,4 km/h (2 Bft)
19.04.2018 10:34 16,4 °C 61 % 1026,8 hPa 0,0 mm 3,8 km/h (1 Bft) N-NO 23 ° 1 min 0,000 mm 4,1 UV-I 635 W/m² 8,9 °C 16,4 °C 6,4 km/h (2 Bft)
19.04.2018 10:35 16,6 °C 60 % 1026,9 hPa 0,0 mm 5,2 km/h (1 Bft) NO 42 ° 1 min 0,000 mm 4,2 UV-I 638 W/m² 8,8 °C 16,6 °C 8,0 km/h (2 Bft)
19.04.2018 10:36 16,6 °C 56 % 1026,9 hPa 0,0 mm 3,0 km/h (1 Bft) NO 42 ° 1 min 0,000 mm 4,2 UV-I 640 W/m² 7,8 °C 16,6 °C 4,8 km/h (1 Bft)
19.04.2018 10:37 16,7 °C 59 % 1026,9 hPa 0,0 mm 1,5 km/h (1 Bft) NO 42 ° 1 min 0,000 mm 4,2 UV-I 642 W/m² 8,6 °C 16,7 °C 3,2 km/h (1 Bft)
19.04.2018 10:38 16,7 °C 58 % 1026,9 hPa 0,0 mm 0,8 km/h (0 Bft) NO 42 ° 1 min 0,000 mm 4,2 UV-I 643 W/m² 8,4 °C 16,7 °C 1,6 km/h (1 Bft)
19.04.2018 10:39 16,7 °C 57 % 1026,9 hPa 0,0 mm 3,5 km/h (1 Bft) N-NO 15 ° 1 min 0,000 mm 4,2 UV-I 645 W/m² 8,1 °C 16,7 °C 11,3 km/h (2 Bft)
19.04.2018 10:40 16,8 °C 55 % 1026,9 hPa 0,0 mm 4,8 km/h (1 Bft) N-NO 27 ° 1 min 0,000 mm 4,3 UV-I 645 W/m² 7,7 °C 16,8 °C 8,0 km/h (2 Bft)
19.04.2018 10:41 16,7 °C 55 % 1026,9 hPa 0,0 mm 4,0 km/h (1 Bft) NO 47 ° 1 min 0,000 mm 4,3 UV-I 649 W/m² 7,6 °C 16,7 °C 6,4 km/h (2 Bft)
19.04.2018 10:42 16,6 °C 55 % 1026,9 hPa 0,0 mm 2,3 km/h (1 Bft) NO 47 ° 1 min 0,000 mm 4,3 UV-I 652 W/m² 7,5 °C 16,6 °C 3,2 km/h (1 Bft)
19.04.2018 10:43 16,7 °C 60 % 1026,9 hPa 0,0 mm 1,1 km/h (1 Bft) NO 47 ° 1 min 0,000 mm 4,3 UV-I 652 W/m² 8,9 °C 16,7 °C 3,2 km/h (1 Bft)
19.04.2018 10:44 16,7 °C 55 % 1026,9 hPa 0,0 mm 3,0 km/h (1 Bft) N 5 ° 1 min 0,000 mm 4,4 UV-I 656 W/m² 7,6 °C 16,7 °C 6,4 km/h (2 Bft)
19.04.2018 10:45 16,8 °C 55 % 1026,9 hPa 0,0 mm 6,8 km/h (2 Bft) N 5 ° 1 min 0,000 mm 4,4 UV-I 657 W/m² 7,7 °C 16,8 °C 11,3 km/h (2 Bft)
19.04.2018 10:46 16,9 °C 53 % 1026,9 hPa 0,0 mm 6,2 km/h (2 Bft) N 5 ° 1 min 0,000 mm 4,4 UV-I 659 W/m² 7,3 °C 16,9 °C 8,0 km/h (2 Bft)
19.04.2018 10:47 17,0 °C 54 % 1026,9 hPa 0,0 mm 5,9 km/h (2 Bft) N-NO 26 ° 1 min 0,000 mm 4,4 UV-I 661 W/m² 7,6 °C 17,0 °C 8,0 km/h (2 Bft)
19.04.2018 10:48 17,2 °C 54 % 1026,9 hPa 0,0 mm 3,6 km/h (1 Bft) N-NO 26 ° 1 min 0,000 mm 4,4 UV-I 666 W/m² 7,8 °C 17,2 °C 6,4 km/h (2 Bft)
19.04.2018 10:49 17,2 °C 54 % 1026,9 hPa 0,0 mm 3,7 km/h (1 Bft) N-NO 15 ° 1 min 0,000 mm 4,5 UV-I 668 W/m² 7,8 °C 17,2 °C 6,4 km/h (2 Bft)
19.04.2018 10:50 17,2 °C 53 % 1026,9 hPa 0,0 mm 2,9 km/h (1 Bft) N-NO 15 ° 1 min 0,000 mm 4,5 UV-I 668 W/m² 7,5 °C 17,2 °C 6,4 km/h (2 Bft)
19.04.2018 10:51 17,2 °C 55 % 1026,9 hPa 0,0 mm 0,8 km/h (0 Bft) N-NO 15 ° 1 min 0,000 mm 4,5 UV-I 670 W/m² 8,1 °C 17,2 °C 3,2 km/h (1 Bft)
19.04.2018 10:52 17,3 °C 54 % 1026,9 hPa 0,0 mm 0,8 km/h (0 Bft) N 360 ° 1 min 0,000 mm 4,5 UV-I 671 W/m² 7,9 °C 17,3 °C 3,2 km/h (1 Bft)
19.04.2018 10:53 17,1 °C 54 % 1026,9 hPa 0,0 mm 4,6 km/h (1 Bft) N 5 ° 1 min 0,000 mm 4,5 UV-I 673 W/m² 7,7 °C 17,1 °C 6,4 km/h (2 Bft)
19.04.2018 10:54 17,1 °C 53 % 1026,8 hPa 0,0 mm 5,0 km/h (1 Bft) NO 38 ° 1 min 0,000 mm 4,6 UV-I 679 W/m² 7,4 °C 17,1 °C 6,4 km/h (2 Bft)
19.04.2018 10:55 17,2 °C 53 % 1026,9 hPa 0,0 mm 5,7 km/h (1 Bft) NO 36 ° 1 min 0,000 mm 4,6 UV-I 680 W/m² 7,5 °C 17,2 °C 8,0 km/h (2 Bft)
19.04.2018 10:56 17,2 °C 52 % 1026,9 hPa 0,0 mm 2,3 km/h (1 Bft) NO 49 ° 1 min 0,000 mm 4,6 UV-I 682 W/m² 7,3 °C 17,2 °C 3,2 km/h (1 Bft)
19.04.2018 10:57 17,1 °C 53 % 1026,9 hPa 0,0 mm 1,4 km/h (1 Bft) NO 49 ° 1 min 0,000 mm 4,6 UV-I 682 W/m² 7,4 °C 17,1 °C 3,2 km/h (1 Bft)
19.04.2018 10:58 17,2 °C 57 % 1026,9 hPa 0,0 mm 3,6 km/h (1 Bft) NO 44 ° 1 min 0,000 mm 4,6 UV-I 684 W/m² 8,6 °C 17,2 °C 4,8 km/h (1 Bft)
19.04.2018 10:59 17,3 °C 53 % 1026,9 hPa 0,0 mm 6,4 km/h (2 Bft) O-NO 61 ° 1 min 0,000 mm 4,7 UV-I 687 W/m² 7,6 °C 17,3 °C 9,7 km/h (2 Bft)
19.04.2018 11:00 17,2 °C 53 % 1026,9 hPa 0,0 mm 4,2 km/h (1 Bft) O-NO 66 ° 1 min 0,356 mm 4,7 UV-I 689 W/m² 7,5 °C 17,2 °C 6,4 km/h (2 Bft)
19.04.2018 11:01 17,2 °C 55 % 1026,9 hPa 0,0 mm 3,0 km/h (1 Bft) O-NO 66 ° 1 min 0,000 mm 4,7 UV-I 693 W/m² 8,1 °C 17,2 °C 4,8 km/h (1 Bft)
19.04.2018 11:02 17,1 °C 53 % 1026,9 hPa 0,0 mm 2,2 km/h (1 Bft) O-SO 103 ° 1 min 0,000 mm 4,7 UV-I 693 W/m² 7,4 °C 17,1 °C 3,2 km/h (1 Bft)
19.04.2018 11:03 17,0 °C 57 % 1026,9 hPa 0,0 mm 1,3 km/h (1 Bft) O-SO 115 ° 1 min 0,000 mm 4,7 UV-I 696 W/m² 8,4 °C 17,0 °C 4,8 km/h (1 Bft)
19.04.2018 11:04 17,1 °C 56 % 1026,9 hPa 0,0 mm 2,0 km/h (1 Bft) N-NO 33 ° 1 min 0,000 mm 4,8 UV-I 696 W/m² 8,3 °C 17,1 °C 3,2 km/h (1 Bft)
19.04.2018 11:05 17,2 °C 59 % 1026,9 hPa 0,0 mm 1,8 km/h (1 Bft) N-NO 33 ° 1 min 0,000 mm 4,8 UV-I 698 W/m² 9,1 °C 17,2 °C 3,2 km/h (1 Bft)
19.04.2018 11:06 17,4 °C 59 % 1026,9 hPa 0,0 mm 2,5 km/h (1 Bft) N-NO 29 ° 1 min 0,000 mm 4,8 UV-I 701 W/m² 9,3 °C 17,4 °C 4,8 km/h (1 Bft)
19.04.2018 11:07 17,6 °C 55 % 1026,9 hPa 0,0 mm 2,6 km/h (1 Bft) N 360 ° 1 min 0,000 mm 4,9 UV-I 703 W/m² 8,5 °C 17,6 °C 4,8 km/h (1 Bft)
19.04.2018 11:08 17,6 °C 52 % 1026,9 hPa 0,0 mm 1,7 km/h (1 Bft) N 360 ° 1 min 0,000 mm 4,9 UV-I 705 W/m² 7,6 °C 17,6 °C 3,2 km/h (1 Bft)
19.04.2018 11:09 17,6 °C 55 % 1026,8 hPa 0,0 mm 4,2 km/h (1 Bft) N 360 ° 1 min 0,000 mm 4,9 UV-I 707 W/m² 8,5 °C 17,6 °C 6,4 km/h (2 Bft)
19.04.2018 11:10 17,7 °C 50 % 1026,8 hPa 0,0 mm 4,8 km/h (1 Bft) N-NO 24 ° 1 min 0,000 mm 4,9 UV-I 708 W/m² 7,1 °C 17,7 °C 6,4 km/h (2 Bft)
19.04.2018 11:11 17,6 °C 51 % 1026,8 hPa 0,0 mm 1,8 km/h (1 Bft) N-NO 24 ° 1 min 0,000 mm 4,9 UV-I 710 W/m² 7,3 °C 17,6 °C 4,8 km/h (1 Bft)
19.04.2018 11:12 17,7 °C 55 % 1026,8 hPa 0,0 mm 1,6 km/h (1 Bft) O-NO 58 ° 1 min 0,000 mm 4,9 UV-I 714 W/m² 8,5 °C 17,7 °C 4,8 km/h (1 Bft)
19.04.2018 11:13 17,7 °C 50 % 1026,8 hPa 0,0 mm 3,4 km/h (1 Bft) O-NO 58 ° 1 min 0,000 mm 4,9 UV-I 714 W/m² 7,1 °C 17,7 °C 6,4 km/h (2 Bft)
19.04.2018 11:14 17,6 °C 50 % 1026,8 hPa 0,0 mm 1,1 km/h (1 Bft) O-NO 58 ° 1 min 0,000 mm 5,0 UV-I 715 W/m² 7,1 °C 17,6 °C 3,2 km/h (1 Bft)
19.04.2018 11:15 17,5 °C 53 % 1026,8 hPa 0,0 mm 1,9 km/h (1 Bft) O-NO 59 ° 1 min 0,000 mm 5,0 UV-I 717 W/m² 7,8 °C 17,5 °C 3,2 km/h (1 Bft)
19.04.2018 11:16 17,4 °C 51 % 1026,8 hPa 0,0 mm 0,9 km/h (0 Bft) O-NO 59 ° 1 min 0,000 mm 5,0 UV-I 719 W/m² 7,2 °C 17,4 °C 3,2 km/h (1 Bft)
19.04.2018 11:17 17,4 °C 53 % 1026,8 hPa 0,0 mm 3,0 km/h (1 Bft) N-NW 347 ° 1 min 0,000 mm 5,0 UV-I 722 W/m² 7,7 °C 17,4 °C 4,8 km/h (1 Bft)
19.04.2018 11:18 17,5 °C 51 % 1026,8 hPa 0,0 mm 1,7 km/h (1 Bft) N 355 ° 1 min 0,000 mm 5,0 UV-I 724 W/m² 7,3 °C 17,5 °C 3,2 km/h (1 Bft)
19.04.2018 11:19 17,7 °C 52 % 1026,8 hPa 0,0 mm 4,1 km/h (1 Bft) N-NW 348 ° 1 min 0,000 mm 5,0 UV-I 724 W/m² 7,7 °C 17,7 °C 6,4 km/h (2 Bft)
19.04.2018 11:20 17,7 °C 51 % 1026,8 hPa 0,0 mm 4,5 km/h (1 Bft) N-NW 348 ° 1 min 0,000 mm 5,1 UV-I 726 W/m² 7,4 °C 17,7 °C 6,4 km/h (2 Bft)
19.04.2018 11:21 17,8 °C 54 % 1026,8 hPa 0,0 mm 4,1 km/h (1 Bft) N-NW 344 ° 1 min 0,000 mm 5,1 UV-I 726 W/m² 8,4 °C 17,8 °C 6,4 km/h (2 Bft)
19.04.2018 11:22 18,0 °C 53 % 1026,8 hPa 0,0 mm 3,2 km/h (1 Bft) N-NW 327 ° 1 min 0,000 mm 5,1 UV-I 729 W/m² 8,3 °C 18,0 °C 6,4 km/h (2 Bft)
19.04.2018 11:23 18,1 °C 52 % 1026,8 hPa 0,0 mm 4,1 km/h (1 Bft) N-NO 17 ° 1 min 0,000 mm 5,1 UV-I 731 W/m² 8,1 °C 18,1 °C 6,4 km/h (2 Bft)
19.04.2018 11:24 18,1 °C 52 % 1026,8 hPa 0,0 mm 4,6 km/h (1 Bft) N 360 ° 1 min 0,000 mm 5,1 UV-I 733 W/m² 8,1 °C 18,1 °C 6,4 km/h (2 Bft)
19.04.2018 11:25 18,2 °C 51 % 1026,8 hPa 0,0 mm 3,0 km/h (1 Bft) N 355 ° 1 min 0,000 mm 5,2 UV-I 735 W/m² 7,9 °C 18,2 °C 4,8 km/h (1 Bft)
19.04.2018 11:26 18,2 °C 53 % 1026,8 hPa 0,0 mm 5,3 km/h (1 Bft) NO 35 ° 1 min 0,000 mm 5,2 UV-I 735 W/m² 8,5 °C 18,2 °C 8,0 km/h (2 Bft)
19.04.2018 11:27 18,1 °C 50 % 1026,9 hPa 0,0 mm 2,3 km/h (1 Bft) N-NO 32 ° 1 min 0,000 mm 5,2 UV-I 737 W/m² 7,5 °C 18,1 °C 6,4 km/h (2 Bft)
19.04.2018 11:28 17,9 °C 49 % 1026,8 hPa 0,0 mm 5,2 km/h (1 Bft) N-NO 13 ° 1 min 0,000 mm 5,2 UV-I 738 W/m² 7,0 °C 17,9 °C 8,0 km/h (2 Bft)
19.04.2018 11:29 18,0 °C 51 % 1026,8 hPa 0,0 mm 4,7 km/h (1 Bft) N-NO 13 ° 1 min 0,000 mm 5,2 UV-I 740 W/m² 7,7 °C 18,0 °C 8,0 km/h (2 Bft)
19.04.2018 11:30 18,2 °C 51 % 1026,8 hPa 0,0 mm 4,6 km/h (1 Bft) O-NO 63 ° 1 min 0,000 mm 5,2 UV-I 744 W/m² 7,9 °C 18,2 °C 6,4 km/h (2 Bft)
19.04.2018 11:31 18,1 °C 48 % 1026,9 hPa 0,0 mm 1,5 km/h (1 Bft) O-NO 63 ° 1 min 0,000 mm 5,3 UV-I 744 W/m² 6,9 °C 18,1 °C 3,2 km/h (1 Bft)
19.04.2018 11:32 18,2 °C 50 % 1026,8 hPa 0,0 mm 4,4 km/h (1 Bft) O-NO 65 ° 1 min 0,000 mm 5,3 UV-I 742 W/m² 7,6 °C 18,2 °C 8,0 km/h (2 Bft)
19.04.2018 11:33 18,2 °C 48 % 1026,8 hPa 0,0 mm 4,1 km/h (1 Bft) O-NO 61 ° 1 min 0,000 mm 5,3 UV-I 745 W/m² 7,0 °C 18,2 °C 6,4 km/h (2 Bft)
19.04.2018 11:34 18,2 °C 49 % 1026,8 hPa 0,0 mm 2,1 km/h (1 Bft) O-NO 61 ° 1 min 0,000 mm 5,3 UV-I 747 W/m² 7,3 °C 18,2 °C 4,8 km/h (1 Bft)
19.04.2018 11:35 18,1 °C 50 % 1026,8 hPa 0,0 mm 3,1 km/h (1 Bft) O-NO 65 ° 1 min 0,000 mm 5,3 UV-I 751 W/m² 7,5 °C 18,1 °C 4,8 km/h (1 Bft)
19.04.2018 11:36 18,2 °C 48 % 1026,8 hPa 0,0 mm 1,1 km/h (1 Bft) O-NO 62 ° 1 min 0,000 mm 5,3 UV-I 752 W/m² 7,0 °C 18,2 °C 4,8 km/h (1 Bft)
19.04.2018 11:37 18,3 °C 52 % 1026,8 hPa 0,0 mm 2,7 km/h (1 Bft) NO 51 ° 1 min 0,000 mm 5,4 UV-I 754 W/m² 8,3 °C 18,3 °C 6,4 km/h (2 Bft)
19.04.2018 11:38 18,4 °C 52 % 1026,8 hPa 0,0 mm 1,2 km/h (1 Bft) NO 51 ° 1 min 0,000 mm 5,4 UV-I 756 W/m² 8,4 °C 18,4 °C 4,8 km/h (1 Bft)
19.04.2018 11:39 18,4 °C 49 % 1026,8 hPa 0,0 mm 5,0 km/h (1 Bft) NO 42 ° 1 min 0,000 mm 5,4 UV-I 758 W/m² 7,5 °C 18,4 °C 8,0 km/h (2 Bft)
19.04.2018 11:40 18,4 °C 48 % 1026,8 hPa 0,0 mm 4,9 km/h (1 Bft) NO 34 ° 1 min 0,000 mm 5,4 UV-I 758 W/m² 7,2 °C 18,4 °C 6,4 km/h (2 Bft)
19.04.2018 11:41 18,4 °C 50 % 1026,8 hPa 0,0 mm 5,1 km/h (1 Bft) N-NO 15 ° 1 min 0,000 mm 5,4 UV-I 761 W/m² 7,8 °C 18,4 °C 8,0 km/h (2 Bft)
19.04.2018 11:42 18,7 °C 50 % 1026,8 hPa 0,0 mm 5,3 km/h (1 Bft) NO 50 ° 1 min 0,000 mm 5,4 UV-I 761 W/m² 8,1 °C 18,7 °C 6,4 km/h (2 Bft)
19.04.2018 11:43 18,6 °C 48 % 1026,8 hPa 0,0 mm 3,1 km/h (1 Bft) NO 50 ° 1 min 0,000 mm 5,4 UV-I 763 W/m² 7,4 °C 18,6 °C 4,8 km/h (1 Bft)
19.04.2018 11:44 18,6 °C 52 % 1026,8 hPa 0,0 mm 1,0 km/h (0 Bft) NO 53 ° 1 min 0,000 mm 5,4 UV-I 765 W/m² 8,5 °C 18,6 °C 6,4 km/h (2 Bft)
19.04.2018 11:45 18,6 °C 48 % 1026,8 hPa 0,0 mm 3,7 km/h (1 Bft) NO 53 ° 1 min 0,000 mm 5,5 UV-I 765 W/m² 7,4 °C 18,6 °C 6,4 km/h (2 Bft)
19.04.2018 11:46 18,7 °C 47 % 1026,9 hPa 0,0 mm 6,6 km/h (2 Bft) NO 51 ° 1 min 0,000 mm 5,5 UV-I 768 W/m² 7,2 °C 18,7 °C 8,0 km/h (2 Bft)
19.04.2018 11:47 18,7 °C 46 % 1026,9 hPa 0,0 mm 4,2 km/h (1 Bft) N-NO 19 ° 1 min 0,000 mm 5,5 UV-I 768 W/m² 6,8 °C 18,7 °C 6,4 km/h (2 Bft)
19.04.2018 11:48 18,8 °C 48 % 1026,9 hPa 0,0 mm 4,5 km/h (1 Bft) NO 46 ° 1 min 0,000 mm 5,5 UV-I 770 W/m² 7,6 °C 18,8 °C 6,4 km/h (2 Bft)
19.04.2018 11:49 18,8 °C 47 % 1026,8 hPa 0,0 mm 3,7 km/h (1 Bft) N 360 ° 1 min 0,000 mm 5,5 UV-I 772 W/m² 7,2 °C 18,8 °C 9,7 km/h (2 Bft)
19.04.2018 11:50 18,9 °C 49 % 1026,8 hPa 0,0 mm 6,7 km/h (2 Bft) N 9 ° 1 min 0,000 mm 5,5 UV-I 773 W/m² 7,9 °C 18,9 °C 8,0 km/h (2 Bft)
19.04.2018 11:51 18,9 °C 46 % 1026,9 hPa 0,0 mm 5,4 km/h (1 Bft) N 5 ° 1 min 0,000 mm 5,5 UV-I 773 W/m² 7,0 °C 18,9 °C 8,0 km/h (2 Bft)
19.04.2018 11:52 19,1 °C 49 % 1026,9 hPa 0,0 mm 3,1 km/h (1 Bft) N 5 ° 1 min 0,000 mm 5,5 UV-I 775 W/m² 8,1 °C 19,1 °C 4,8 km/h (1 Bft)
19.04.2018 11:53 19,2 °C 49 % 1026,8 hPa 0,0 mm 2,1 km/h (1 Bft) N-NO 26 ° 1 min 0,000 mm 5,6 UV-I 777 W/m² 8,2 °C 19,2 °C 4,8 km/h (1 Bft)
19.04.2018 11:54 19,2 °C 49 % 1026,9 hPa 0,0 mm 4,5 km/h (1 Bft) N 360 ° 1 min 0,000 mm 5,6 UV-I 777 W/m² 8,2 °C 19,2 °C 6,4 km/h (2 Bft)
19.04.2018 11:55 19,2 °C 47 % 1026,9 hPa 0,0 mm 2,9 km/h (1 Bft) N-NO 17 ° 1 min 0,000 mm 5,6 UV-I 777 W/m² 7,6 °C 19,2 °C 11,3 km/h (2 Bft)
19.04.2018 11:56 19,3 °C 49 % 1026,9 hPa 0,0 mm 5,9 km/h (2 Bft) NO 55 ° 1 min 0,000 mm 5,6 UV-I 777 W/m² 8,3 °C 19,3 °C 8,0 km/h (2 Bft)
19.04.2018 11:57 19,3 °C 47 % 1026,9 hPa 0,0 mm 5,1 km/h (1 Bft) O-SO 107 ° 1 min 0,000 mm 5,6 UV-I 779 W/m² 7,7 °C 19,3 °C 11,3 km/h (2 Bft)
19.04.2018 11:58 19,3 °C 47 % 1026,9 hPa 0,0 mm 5,6 km/h (1 Bft) O-NO 71 ° 1 min 0,000 mm 5,6 UV-I 782 W/m² 7,7 °C 19,3 °C 11,3 km/h (2 Bft)
19.04.2018 11:59 19,2 °C 48 % 1026,8 hPa 0,0 mm 5,6 km/h (1 Bft) N-NO 14 ° 1 min 0,000 mm 5,6 UV-I 782 W/m² 7,9 °C 19,2 °C 11,3 km/h (2 Bft)
19.04.2018 12:00 19,3 °C 48 % 1026,8 hPa 0,0 mm 5,8 km/h (2 Bft) N-NO 30 ° 1 min 0,431 mm 5,6 UV-I 782 W/m² 8,0 °C 19,3 °C 9,7 km/h (2 Bft)
19.04.2018 12:01 19,3 °C 47 % 1026,8 hPa 0,0 mm 4,6 km/h (1 Bft) NO 34 ° 1 min 0,000 mm 5,6 UV-I 784 W/m² 7,7 °C 19,3 °C 6,4 km/h (2 Bft)
19.04.2018 12:02 19,2 °C 46 % 1026,8 hPa 0,0 mm 5,2 km/h (1 Bft) NO 38 ° 1 min 0,000 mm 5,7 UV-I 784 W/m² 7,3 °C 19,2 °C 8,0 km/h (2 Bft)
19.04.2018 12:03 19,1 °C 46 % 1026,8 hPa 0,0 mm 1,8 km/h (1 Bft) NO 36 ° 1 min 0,000 mm 5,7 UV-I 786 W/m² 7,2 °C 19,1 °C 4,8 km/h (1 Bft)
19.04.2018 12:04 18,9 °C 48 % 1026,8 hPa 0,0 mm 3,4 km/h (1 Bft) O-NO 65 ° 1 min 0,000 mm 5,7 UV-I 786 W/m² 7,6 °C 18,9 °C 6,4 km/h (2 Bft)
19.04.2018 12:05 19,0 °C 48 % 1026,8 hPa 0,0 mm 5,8 km/h (2 Bft) O-NO 71 ° 1 min 0,000 mm 5,7 UV-I 788 W/m² 7,7 °C 19,0 °C 9,7 km/h (2 Bft)
19.04.2018 12:06 19,1 °C 50 % 1026,8 hPa 0,0 mm 5,3 km/h (1 Bft) N-NO 31 ° 1 min 0,000 mm 5,7 UV-I 789 W/m² 8,4 °C 19,1 °C 8,0 km/h (2 Bft)
19.04.2018 12:07 19,2 °C 48 % 1026,9 hPa 0,0 mm 6,3 km/h (2 Bft) O 84 ° 1 min 0,000 mm 5,7 UV-I 791 W/m² 7,9 °C 19,2 °C 8,0 km/h (2 Bft)
19.04.2018 12:08 19,2 °C 46 % 1026,8 hPa 0,0 mm 3,5 km/h (1 Bft) O-NO 63 ° 1 min 0,000 mm 5,7 UV-I 791 W/m² 7,3 °C 19,2 °C 6,4 km/h (2 Bft)
19.04.2018 12:09 19,2 °C 47 % 1026,8 hPa 0,0 mm 5,5 km/h (1 Bft) O 89 ° 1 min 0,000 mm 5,7 UV-I 791 W/m² 7,6 °C 19,2 °C 9,7 km/h (2 Bft)
19.04.2018 12:10 19,2 °C 47 % 1026,8 hPa 0,0 mm 4,1 km/h (1 Bft) NO 50 ° 1 min 0,000 mm 5,7 UV-I 795 W/m² 7,6 °C 19,2 °C 6,4 km/h (2 Bft)
19.04.2018 12:11 19,3 °C 47 % 1026,8 hPa 0,0 mm 6,0 km/h (2 Bft) O-NO 69 ° 1 min 0,000 mm 5,8 UV-I 796 W/m² 7,7 °C 19,3 °C 8,0 km/h (2 Bft)
19.04.2018 12:12 19,3 °C 44 % 1026,8 hPa 0,0 mm 4,5 km/h (1 Bft) O 80 ° 1 min 0,000 mm 5,8 UV-I 796 W/m² 6,7 °C 19,3 °C 6,4 km/h (2 Bft)
19.04.2018 12:13 19,3 °C 45 % 1026,8 hPa 0,0 mm 6,1 km/h (2 Bft) O 80 ° 1 min 0,000 mm 5,8 UV-I 796 W/m² 7,1 °C 19,3 °C 9,7 km/h (2 Bft)
19.04.2018 12:14 19,4 °C 46 % 1026,8 hPa 0,0 mm 6,6 km/h (2 Bft) O-NO 75 ° 1 min 0,000 mm 5,8 UV-I 798 W/m² 7,5 °C 19,4 °C 11,3 km/h (2 Bft)
19.04.2018 12:15 19,4 °C 47 % 1026,7 hPa 0,0 mm 4,1 km/h (1 Bft) O-NO 59 ° 1 min 0,000 mm 5,8 UV-I 798 W/m² 7,8 °C 19,4 °C 4,8 km/h (1 Bft)
19.04.2018 12:16 19,4 °C 45 % 1026,7 hPa 0,0 mm 3,6 km/h (1 Bft) O-NO 57 ° 1 min 0,000 mm 5,8 UV-I 800 W/m² 7,2 °C 19,4 °C 6,4 km/h (2 Bft)
19.04.2018 12:17 19,4 °C 44 % 1026,7 hPa 0,0 mm 2,6 km/h (1 Bft) SO 128 ° 1 min 0,000 mm 5,8 UV-I 800 W/m² 6,8 °C 19,4 °C 4,8 km/h (1 Bft)
19.04.2018 12:18 19,3 °C 45 % 1026,7 hPa 0,0 mm 2,1 km/h (1 Bft) SO 126 ° 1 min 0,000 mm 5,8 UV-I 802 W/m² 7,1 °C 19,3 °C 4,8 km/h (1 Bft)
19.04.2018 12:19 19,2 °C 46 % 1026,7 hPa 0,0 mm 1,0 km/h (0 Bft) O-NO 66 ° 1 min 0,000 mm 5,8 UV-I 802 W/m² 7,3 °C 19,2 °C 3,2 km/h (1 Bft)
19.04.2018 12:20 19,3 °C 47 % 1026,7 hPa 0,0 mm 4,6 km/h (1 Bft) N-NO 22 ° 1 min 0,000 mm 5,8 UV-I 803 W/m² 7,7 °C 19,3 °C 6,4 km/h (2 Bft)
19.04.2018 12:21 19,6 °C 44 % 1026,7 hPa 0,0 mm 6,0 km/h (2 Bft) N 355 ° 1 min 0,000 mm 5,8 UV-I 803 W/m² 7,0 °C 19,6 °C 8,0 km/h (2 Bft)
19.04.2018 12:22 19,7 °C 44 % 1026,7 hPa 0,0 mm 2,8 km/h (1 Bft) N 355 ° 1 min 0,000 mm 5,9 UV-I 805 W/m² 7,1 °C 19,7 °C 6,4 km/h (2 Bft)
19.04.2018 12:23 19,7 °C 45 % 1026,8 hPa 0,0 mm 4,5 km/h (1 Bft) N-NO 27 ° 1 min 0,000 mm 5,9 UV-I 807 W/m² 7,4 °C 19,7 °C 6,4 km/h (2 Bft)
19.04.2018 12:24 19,7 °C 43 % 1026,7 hPa 0,0 mm 2,4 km/h (1 Bft) N-NO 14 ° 1 min 0,000 mm 5,9 UV-I 805 W/m² 6,8 °C 19,7 °C 6,4 km/h (2 Bft)
19.04.2018 12:25 19,8 °C 44 % 1026,7 hPa 0,0 mm 3,4 km/h (1 Bft) N-NO 15 ° 1 min 0,000 mm 5,9 UV-I 807 W/m² 7,2 °C 19,8 °C 4,8 km/h (1 Bft)
19.04.2018 12:26 19,8 °C 45 % 1026,6 hPa 0,0 mm 5,2 km/h (1 Bft) N 11 ° 1 min 0,000 mm 5,9 UV-I 807 W/m² 7,5 °C 19,8 °C 8,0 km/h (2 Bft)
19.04.2018 12:27 20,0 °C 46 % 1026,6 hPa 0,0 mm 4,9 km/h (1 Bft) NO 49 ° 1 min 0,000 mm 5,9 UV-I 809 W/m² 8,0 °C 20,0 °C 8,0 km/h (2 Bft)
19.04.2018 12:28 20,1 °C 45 % 1026,6 hPa 0,0 mm 4,2 km/h (1 Bft) O-NO 63 ° 1 min 0,000 mm 5,9 UV-I 810 W/m² 7,8 °C 20,1 °C 6,4 km/h (2 Bft)
19.04.2018 12:29 20,1 °C 47 % 1026,6 hPa 0,0 mm 5,1 km/h (1 Bft) O 87 ° 1 min 0,000 mm 5,9 UV-I 809 W/m² 8,4 °C 20,1 °C 9,7 km/h (2 Bft)
19.04.2018 12:30 20,0 °C 45 % 1026,7 hPa 0,0 mm 6,3 km/h (2 Bft) O-NO 65 ° 1 min 0,000 mm 5,9 UV-I 812 W/m² 7,7 °C 20,0 °C 8,0 km/h (2 Bft)
19.04.2018 12:31 19,7 °C 44 % 1026,7 hPa 0,0 mm 6,0 km/h (2 Bft) O-NO 57 ° 1 min 0,000 mm 5,9 UV-I 812 W/m² 7,1 °C 19,7 °C 8,0 km/h (2 Bft)
19.04.2018 12:32 19,6 °C 45 % 1026,6 hPa 0,0 mm 5,5 km/h (1 Bft) NO 34 ° 1 min 0,000 mm 5,9 UV-I 814 W/m² 7,3 °C 19,6 °C 8,0 km/h (2 Bft)
19.04.2018 12:33 19,6 °C 44 % 1026,6 hPa 0,0 mm 2,4 km/h (1 Bft) NO 34 ° 1 min 0,000 mm 5,9 UV-I 812 W/m² 7,0 °C 19,6 °C 4,8 km/h (1 Bft)
19.04.2018 12:34 19,7 °C 45 % 1026,6 hPa 0,0 mm 3,0 km/h (1 Bft) O 91 ° 1 min 0,000 mm 5,9 UV-I 812 W/m² 7,4 °C 19,7 °C 6,4 km/h (2 Bft)
19.04.2018 12:35 19,7 °C 46 % 1026,5 hPa 0,0 mm 3,3 km/h (1 Bft) O 100 ° 1 min 0,000 mm 5,9 UV-I 812 W/m² 7,8 °C 19,7 °C 4,8 km/h (1 Bft)
19.04.2018 12:36 19,6 °C 47 % 1026,6 hPa 0,0 mm 3,5 km/h (1 Bft) NO 48 ° 1 min 0,000 mm 5,9 UV-I 812 W/m² 8,0 °C 19,6 °C 4,8 km/h (1 Bft)
19.04.2018 12:37 19,7 °C 48 % 1026,6 hPa 0,0 mm 6,1 km/h (2 Bft) N-NO 25 ° 1 min 0,000 mm 5,9 UV-I 810 W/m² 8,4 °C 19,7 °C 12,9 km/h (3 Bft)
19.04.2018 12:38 19,9 °C 45 % 1026,6 hPa 0,0 mm 3,5 km/h (1 Bft) N-NO 26 ° 1 min 0,000 mm 5,9 UV-I 812 W/m² 7,6 °C 19,9 °C 4,8 km/h (1 Bft)
19.04.2018 12:39 20,1 °C 48 % 1026,5 hPa 0,0 mm 6,7 km/h (2 Bft) N 11 ° 1 min 0,000 mm 5,9 UV-I 812 W/m² 8,7 °C 20,1 °C 12,9 km/h (3 Bft)
19.04.2018 12:40 20,2 °C 47 % 1026,5 hPa 0,0 mm 8,4 km/h (2 Bft) N 11 ° 1 min 0,000 mm 6,0 UV-I 814 W/m² 8,5 °C 20,2 °C 11,3 km/h (2 Bft)
19.04.2018 12:41 20,3 °C 49 % 1026,6 hPa 0,0 mm 7,0 km/h (2 Bft) N 360 ° 1 min 0,000 mm 6,0 UV-I 812 W/m² 9,2 °C 20,3 °C 8,0 km/h (2 Bft)
19.04.2018 12:42 20,4 °C 47 % 1026,6 hPa 0,0 mm 4,1 km/h (1 Bft) NO 43 ° 1 min 0,000 mm 6,0 UV-I 814 W/m² 8,7 °C 20,4 °C 8,0 km/h (2 Bft)
19.04.2018 12:43 20,3 °C 46 % 1026,6 hPa 0,0 mm 4,4 km/h (1 Bft) NO 42 ° 1 min 0,000 mm 6,0 UV-I 814 W/m² 8,3 °C 20,3 °C 6,4 km/h (2 Bft)
19.04.2018 12:44 20,1 °C 46 % 1026,6 hPa 0,0 mm 5,9 km/h (2 Bft) N-NO 15 ° 1 min 0,000 mm 6,0 UV-I 814 W/m² 8,1 °C 20,1 °C 11,3 km/h (2 Bft)
19.04.2018 12:45 20,2 °C 47 % 1026,6 hPa 0,0 mm 9,1 km/h (2 Bft) O-NO 63 ° 1 min 0,000 mm 6,0 UV-I 816 W/m² 8,5 °C 20,2 °C 16,1 km/h (3 Bft)
19.04.2018 12:46 20,2 °C 47 % 1026,7 hPa 0,0 mm 4,6 km/h (1 Bft) NO 51 ° 1 min 0,000 mm 6,0 UV-I 817 W/m² 8,5 °C 20,2 °C 8,0 km/h (2 Bft)
19.04.2018 12:47 20,2 °C 48 % 1026,7 hPa 0,0 mm 5,6 km/h (1 Bft) NO 43 ° 1 min 0,000 mm 6,0 UV-I 816 W/m² 8,8 °C 20,2 °C 8,0 km/h (2 Bft)
19.04.2018 12:48 20,1 °C 45 % 1026,6 hPa 0,0 mm 5,8 km/h (2 Bft) N 5 ° 1 min 0,000 mm 6,0 UV-I 817 W/m² 7,8 °C 20,1 °C 8,0 km/h (2 Bft)
19.04.2018 12:49 20,1 °C 45 % 1026,6 hPa 0,0 mm 4,5 km/h (1 Bft) N-NO 26 ° 1 min 0,000 mm 6,0 UV-I 816 W/m² 7,8 °C 20,1 °C 6,4 km/h (2 Bft)
19.04.2018 12:50 20,2 °C 47 % 1026,6 hPa 0,0 mm 8,6 km/h (2 Bft) N-NO 16 ° 1 min 0,000 mm 6,0 UV-I 816 W/m² 8,5 °C 20,2 °C 12,9 km/h (3 Bft)
19.04.2018 12:51 20,2 °C 47 % 1026,6 hPa 0,0 mm 7,8 km/h (2 Bft) NO 38 ° 1 min 0,000 mm 6,0 UV-I 817 W/m² 8,5 °C 20,2 °C 11,3 km/h (2 Bft)
19.04.2018 12:52 20,1 °C 46 % 1026,6 hPa 0,0 mm 3,7 km/h (1 Bft) N-NW 331 ° 1 min 0,000 mm 6,0 UV-I 816 W/m² 8,1 °C 20,1 °C 8,0 km/h (2 Bft)
19.04.2018 12:53 20,2 °C 48 % 1026,5 hPa 0,0 mm 8,7 km/h (2 Bft) N 11 ° 1 min 0,000 mm 6,0 UV-I 817 W/m² 8,8 °C 20,2 °C 14,5 km/h (3 Bft)
19.04.2018 12:54 20,2 °C 47 % 1026,6 hPa 0,0 mm 8,9 km/h (2 Bft) N-NO 12 ° 1 min 0,000 mm 6,0 UV-I 819 W/m² 8,5 °C 20,2 °C 14,5 km/h (3 Bft)
19.04.2018 12:55 20,2 °C 45 % 1026,6 hPa 0,0 mm 5,0 km/h (1 Bft) NO 51 ° 1 min 0,000 mm 6,0 UV-I 817 W/m² 7,9 °C 20,2 °C 6,4 km/h (2 Bft)
19.04.2018 12:56 20,0 °C 45 % 1026,5 hPa 0,0 mm 2,8 km/h (1 Bft) NO 51 ° 1 min 0,000 mm 6,0 UV-I 817 W/m² 7,7 °C 20,0 °C 4,8 km/h (1 Bft)
19.04.2018 12:57 19,9 °C 46 % 1026,5 hPa 0,0 mm 4,3 km/h (1 Bft) N-NO 17 ° 1 min 0,000 mm 6,0 UV-I 817 W/m² 7,9 °C 19,9 °C 4,8 km/h (1 Bft)
19.04.2018 12:58 20,1 °C 49 % 1026,6 hPa 0,0 mm 6,6 km/h (2 Bft) N-NO 32 ° 1 min 0,000 mm 6,0 UV-I 819 W/m² 9,0 °C 20,1 °C 9,7 km/h (2 Bft)
19.04.2018 12:59 20,3 °C 50 % 1026,6 hPa 0,0 mm 6,4 km/h (2 Bft) N-NO 29 ° 1 min 0,000 mm 6,0 UV-I 817 W/m² 9,5 °C 20,3 °C 12,9 km/h (3 Bft)
19.04.2018 13:00 20,5 °C 47 % 1026,5 hPa 0,0 mm 6,6 km/h (2 Bft) N 5 ° 1 min 0,000 mm 6,0 UV-I 819 W/m² 8,8 °C 20,5 °C 9,7 km/h (2 Bft)
19.04.2018 13:01 20,7 °C 46 % 1026,5 hPa 0,0 mm 8,1 km/h (2 Bft) N 355 ° 1 min 0,508 mm 6,0 UV-I 817 W/m² 8,7 °C 20,7 °C 16,1 km/h (3 Bft)
19.04.2018 13:02 20,8 °C 47 % 1026,5 hPa 0,0 mm 6,3 km/h (2 Bft) NO 36 ° 1 min 0,000 mm 6,0 UV-I 819 W/m² 9,1 °C 20,8 °C 8,0 km/h (2 Bft)
19.04.2018 13:03 20,8 °C 48 % 1026,5 hPa 0,0 mm 5,6 km/h (1 Bft) O-NO 57 ° 1 min 0,000 mm 6,0 UV-I 819 W/m² 9,4 °C 20,8 °C 9,7 km/h (2 Bft)
19.04.2018 13:04 20,6 °C 44 % 1026,5 hPa 0,0 mm 5,8 km/h (2 Bft) N-NO 26 ° 1 min 0,000 mm 6,0 UV-I 817 W/m² 7,9 °C 20,6 °C 11,3 km/h (2 Bft)
19.04.2018 13:05 20,6 °C 44 % 1026,5 hPa 0,0 mm 7,8 km/h (2 Bft) NO 48 ° 1 min 0,000 mm 6,0 UV-I 819 W/m² 7,9 °C 20,6 °C 12,9 km/h (3 Bft)
19.04.2018 13:06 20,7 °C 47 % 1026,5 hPa 0,0 mm 5,3 km/h (1 Bft) N-NO 20 ° 1 min 0,000 mm 6,0 UV-I 819 W/m² 9,0 °C 20,7 °C 8,0 km/h (2 Bft)
19.04.2018 13:07 20,7 °C 46 % 1026,5 hPa 0,0 mm 6,1 km/h (2 Bft) N-NO 30 ° 1 min 0,000 mm 6,0 UV-I 817 W/m² 8,7 °C 20,7 °C 8,0 km/h (2 Bft)
19.04.2018 13:08 20,8 °C 43 % 1026,5 hPa 0,0 mm 5,1 km/h (1 Bft) NO 36 ° 1 min 0,000 mm 6,0 UV-I 821 W/m² 7,8 °C 20,8 °C 8,0 km/h (2 Bft)
19.04.2018 13:09 20,8 °C 44 % 1026,5 hPa 0,0 mm 5,5 km/h (1 Bft) O-NO 78 ° 1 min 0,000 mm 6,0 UV-I 821 W/m² 8,1 °C 20,8 °C 8,0 km/h (2 Bft)
19.04.2018 13:10 20,7 °C 45 % 1026,4 hPa 0,0 mm 5,6 km/h (1 Bft) N 5 ° 1 min 0,000 mm 6,0 UV-I 821 W/m² 8,3 °C 20,7 °C 8,0 km/h (2 Bft)
19.04.2018 13:11 20,7 °C 45 % 1026,5 hPa 0,0 mm 5,8 km/h (2 Bft) N 5 ° 1 min 0,000 mm 6,0 UV-I 819 W/m² 8,3 °C 20,7 °C 9,7 km/h (2 Bft)
19.04.2018 13:12 20,7 °C 43 % 1026,4 hPa 0,0 mm 4,3 km/h (1 Bft) N-NW 340 ° 1 min 0,000 mm 6,0 UV-I 823 W/m² 7,7 °C 20,7 °C 8,0 km/h (2 Bft)
19.04.2018 13:13 20,6 °C 45 % 1026,4 hPa 0,0 mm 6,5 km/h (2 Bft) N 5 ° 1 min 0,000 mm 6,0 UV-I 821 W/m² 8,2 °C 20,6 °C 12,9 km/h (3 Bft)
19.04.2018 13:14 20,6 °C 42 % 1026,4 hPa 0,0 mm 6,9 km/h (2 Bft) N-NW 348 ° 1 min 0,000 mm 6,0 UV-I 821 W/m² 7,2 °C 20,6 °C 9,7 km/h (2 Bft)
19.04.2018 13:15 20,6 °C 43 % 1026,4 hPa 0,0 mm 4,6 km/h (1 Bft) N-NW 331 ° 1 min 0,000 mm 6,0 UV-I 821 W/m² 7,6 °C 20,6 °C 6,4 km/h (2 Bft)
19.04.2018 13:16 20,6 °C 44 % 1026,4 hPa 0,0 mm 3,6 km/h (1 Bft) N-NO 13 ° 1 min 0,000 mm 6,0 UV-I 821 W/m² 7,9 °C 20,6 °C 6,4 km/h (2 Bft)
19.04.2018 13:17 20,6 °C 47 % 1026,4 hPa 0,0 mm 5,2 km/h (1 Bft) O-NO 57 ° 1 min 0,000 mm 6,0 UV-I 821 W/m² 8,9 °C 20,6 °C 8,0 km/h (2 Bft)
19.04.2018 13:18 20,6 °C 45 % 1026,4 hPa 0,0 mm 4,3 km/h (1 Bft) O-NO 71 ° 1 min 0,000 mm 6,0 UV-I 821 W/m² 8,2 °C 20,6 °C 8,0 km/h (2 Bft)
19.04.2018 13:19 20,7 °C 46 % 1026,4 hPa 0,0 mm 4,6 km/h (1 Bft) N-NO 22 ° 1 min 0,000 mm 6,0 UV-I 823 W/m² 8,7 °C 20,7 °C 8,0 km/h (2 Bft)
19.04.2018 13:20 20,6 °C 45 % 1026,4 hPa 0,0 mm 5,9 km/h (2 Bft) N-NO 15 ° 1 min 0,000 mm 6,0 UV-I 821 W/m² 8,2 °C 20,6 °C 14,5 km/h (3 Bft)
19.04.2018 13:21 20,7 °C 46 % 1026,4 hPa 0,0 mm 8,1 km/h (2 Bft) O-NO 61 ° 1 min 0,000 mm 6,0 UV-I 821 W/m² 8,7 °C 20,7 °C 14,5 km/h (3 Bft)
19.04.2018 13:22 20,8 °C 45 % 1026,4 hPa 0,0 mm 7,6 km/h (2 Bft) N 5 ° 1 min 0,000 mm 6,0 UV-I 823 W/m² 8,4 °C 20,8 °C 12,9 km/h (3 Bft)
19.04.2018 13:23 20,8 °C 44 % 1026,4 hPa 0,0 mm 6,7 km/h (2 Bft) N-NW 328 ° 1 min 0,000 mm 6,0 UV-I 821 W/m² 8,1 °C 20,8 °C 12,9 km/h (3 Bft)
19.04.2018 13:24 20,8 °C 44 % 1026,3 hPa 0,0 mm 2,4 km/h (1 Bft) O-NO 67 ° 1 min 0,000 mm 6,0 UV-I 821 W/m² 8,1 °C 20,8 °C 4,8 km/h (1 Bft)
19.04.2018 13:25 20,8 °C 44 % 1026,3 hPa 0,0 mm 3,0 km/h (1 Bft) O-NO 63 ° 1 min 0,000 mm 6,0 UV-I 821 W/m² 8,1 °C 20,8 °C 6,4 km/h (2 Bft)
19.04.2018 13:26 20,9 °C 42 % 1026,3 hPa 0,0 mm 1,3 km/h (1 Bft) N 351 ° 1 min 0,000 mm 6,0 UV-I 821 W/m² 7,5 °C 20,9 °C 4,8 km/h (1 Bft)
19.04.2018 13:27 20,9 °C 47 % 1026,3 hPa 0,0 mm 4,4 km/h (1 Bft) N-NO 25 ° 1 min 0,000 mm 6,0 UV-I 823 W/m² 9,2 °C 20,9 °C 6,4 km/h (2 Bft)
19.04.2018 13:28 21,1 °C 44 % 1026,3 hPa 0,0 mm 3,6 km/h (1 Bft) N-NO 31 ° 1 min 0,000 mm 6,0 UV-I 823 W/m² 8,4 °C 21,1 °C 4,8 km/h (1 Bft)
19.04.2018 13:29 21,3 °C 47 % 1026,3 hPa 0,0 mm 2,6 km/h (1 Bft) O-NO 62 ° 1 min 0,000 mm 6,0 UV-I 821 W/m² 9,5 °C 21,3 °C 6,4 km/h (2 Bft)
19.04.2018 13:30 21,4 °C 42 % 1026,3 hPa 0,0 mm 4,8 km/h (1 Bft) O-NO 59 ° 1 min 0,000 mm 6,0 UV-I 821 W/m² 8,0 °C 21,4 °C 6,4 km/h (2 Bft)
19.04.2018 13:31 21,3 °C 45 % 1026,2 hPa 0,0 mm 5,0 km/h (1 Bft) N-NW 338 ° 1 min 0,000 mm 6,0 UV-I 817 W/m² 8,9 °C 21,3 °C 11,3 km/h (2 Bft)
19.04.2018 13:32 21,3 °C 46 % 1026,2 hPa 0,0 mm 5,4 km/h (1 Bft) N-NO 29 ° 1 min 0,000 mm 6,0 UV-I 819 W/m² 9,2 °C 21,3 °C 9,7 km/h (2 Bft)
19.04.2018 13:33 21,3 °C 43 % 1026,2 hPa 0,0 mm 7,2 km/h (2 Bft) NO 42 ° 1 min 0,000 mm 6,0 UV-I 821 W/m² 8,2 °C 21,3 °C 14,5 km/h (3 Bft)
19.04.2018 13:34 21,3 °C 41 % 1026,2 hPa 0,0 mm 6,6 km/h (2 Bft) NO 49 ° 1 min 0,000 mm 6,0 UV-I 821 W/m² 7,5 °C 21,3 °C 8,0 km/h (2 Bft)
19.04.2018 13:35 21,3 °C 41 % 1026,2 hPa 0,0 mm 6,8 km/h (2 Bft) O 80 ° 1 min 0,000 mm 6,0 UV-I 821 W/m² 7,5 °C 21,3 °C 9,7 km/h (2 Bft)
19.04.2018 13:36 21,1 °C 43 % 1026,3 hPa 0,0 mm 3,4 km/h (1 Bft) NO 38 ° 1 min 0,000 mm 6,0 UV-I 819 W/m² 8,0 °C 21,1 °C 4,8 km/h (1 Bft)
19.04.2018 13:37 21,1 °C 43 % 1026,2 hPa 0,0 mm 6,9 km/h (2 Bft) N-NO 25 ° 1 min 0,000 mm 6,0 UV-I 819 W/m² 8,0 °C 21,1 °C 9,7 km/h (2 Bft)
19.04.2018 13:38 21,3 °C 43 % 1026,2 hPa 0,0 mm 6,3 km/h (2 Bft) N 9 ° 1 min 0,000 mm 6,0 UV-I 817 W/m² 8,2 °C 21,3 °C 8,0 km/h (2 Bft)
19.04.2018 13:39 21,3 °C 41 % 1026,2 hPa 0,0 mm 3,4 km/h (1 Bft) N-NO 13 ° 1 min 0,000 mm 6,0 UV-I 819 W/m² 7,5 °C 21,3 °C 4,8 km/h (1 Bft)
19.04.2018 13:40 21,3 °C 42 % 1026,2 hPa 0,0 mm 5,0 km/h (1 Bft) N-NO 12 ° 1 min 0,000 mm 6,0 UV-I 821 W/m² 7,9 °C 21,3 °C 12,9 km/h (3 Bft)
19.04.2018 13:41 21,3 °C 42 % 1026,1 hPa 0,0 mm 6,6 km/h (2 Bft) N-NO 24 ° 1 min 0,000 mm 6,0 UV-I 817 W/m² 7,9 °C 21,3 °C 11,3 km/h (2 Bft)
19.04.2018 13:42 21,3 °C 45 % 1026,1 hPa 0,0 mm 5,2 km/h (1 Bft) NO 42 ° 1 min 0,000 mm 5,9 UV-I 819 W/m² 8,9 °C 21,3 °C 9,7 km/h (2 Bft)
19.04.2018 13:43 21,3 °C 42 % 1026,1 hPa 0,0 mm 4,1 km/h (1 Bft) N-NO 28 ° 1 min 0,000 mm 5,9 UV-I 817 W/m² 7,9 °C 21,3 °C 6,4 km/h (2 Bft)
19.04.2018 13:44 21,3 °C 43 % 1026,1 hPa 0,0 mm 8,2 km/h (2 Bft) N-NO 13 ° 1 min 0,000 mm 5,9 UV-I 817 W/m² 8,2 °C 21,3 °C 12,9 km/h (3 Bft)
19.04.2018 13:45 21,3 °C 40 % 1026,2 hPa 0,0 mm 7,9 km/h (2 Bft) N 355 ° 1 min 0,000 mm 5,9 UV-I 817 W/m² 7,1 °C 21,3 °C 11,3 km/h (2 Bft)
19.04.2018 13:46 21,3 °C 41 % 1026,1 hPa 0,0 mm 5,4 km/h (1 Bft) N-NW 339 ° 1 min 0,000 mm 5,9 UV-I 817 W/m² 7,5 °C 21,3 °C 8,0 km/h (2 Bft)
19.04.2018 13:47 21,4 °C 51 % 1026,1 hPa 0,0 mm 3,4 km/h (1 Bft) N-NO 24 ° 1 min 0,000 mm 5,9 UV-I 816 W/m² 10,8 °C 21,4 °C 8,0 km/h (2 Bft)
19.04.2018 13:48 21,4 °C 40 % 1026,1 hPa 0,0 mm 7,2 km/h (2 Bft) N-NO 24 ° 1 min 0,000 mm 5,9 UV-I 816 W/m² 7,2 °C 21,4 °C 12,9 km/h (3 Bft)
19.04.2018 13:49 21,5 °C 40 % 1026,1 hPa 0,0 mm 8,5 km/h (2 Bft) NO 35 ° 1 min 0,000 mm 5,9 UV-I 817 W/m² 7,3 °C 21,5 °C 11,3 km/h (2 Bft)
19.04.2018 13:50 21,6 °C 40 % 1026,1 hPa 0,0 mm 4,6 km/h (1 Bft) N-NW 348 ° 1 min 0,000 mm 5,9 UV-I 816 W/m² 7,4 °C 21,6 °C 6,4 km/h (2 Bft)
19.04.2018 13:51 21,4 °C 41 % 1026,1 hPa 0,0 mm 5,1 km/h (1 Bft) N 355 ° 1 min 0,000 mm 5,9 UV-I 819 W/m² 7,6 °C 21,4 °C 6,4 km/h (2 Bft)
19.04.2018 13:52 21,4 °C 41 % 1026,1 hPa 0,0 mm 2,0 km/h (1 Bft) N-NO 17 ° 1 min 0,000 mm 5,9 UV-I 812 W/m² 7,6 °C 21,4 °C 3,2 km/h (1 Bft)
19.04.2018 13:53 21,5 °C 43 % 1026,0 hPa 0,0 mm 3,5 km/h (1 Bft) N-NW 330 ° 1 min 0,000 mm 5,9 UV-I 814 W/m² 8,4 °C 21,5 °C 4,8 km/h (1 Bft)
19.04.2018 13:54 21,5 °C 43 % 1026,0 hPa 0,0 mm 3,5 km/h (1 Bft) N 355 ° 1 min 0,000 mm 5,9 UV-I 814 W/m² 8,4 °C 21,5 °C 6,4 km/h (2 Bft)
19.04.2018 13:55 21,4 °C 43 % 1026,0 hPa 0,0 mm 5,8 km/h (2 Bft) N 355 ° 1 min 0,000 mm 5,9 UV-I 809 W/m² 8,3 °C 21,4 °C 9,7 km/h (2 Bft)
19.04.2018 13:56 21,5 °C 44 % 1026,0 hPa 0,0 mm 3,6 km/h (1 Bft) N 355 ° 1 min 0,000 mm 5,8 UV-I 805 W/m² 8,7 °C 21,5 °C 6,4 km/h (2 Bft)
19.04.2018 13:57 21,4 °C 42 % 1026,0 hPa 0,0 mm 5,1 km/h (1 Bft) N-NO 12 ° 1 min 0,000 mm 5,8 UV-I 805 W/m² 8,0 °C 21,4 °C 8,0 km/h (2 Bft)
19.04.2018 13:58 21,5 °C 42 % 1026,0 hPa 0,0 mm 4,1 km/h (1 Bft) N-NO 20 ° 1 min 0,000 mm 5,8 UV-I 812 W/m² 8,0 °C 21,5 °C 6,4 km/h (2 Bft)
19.04.2018 13:59 21,6 °C 42 % 1026,0 hPa 0,0 mm 6,1 km/h (2 Bft) N-NO 24 ° 1 min 0,000 mm 5,8 UV-I 807 W/m² 8,1 °C 21,6 °C 8,0 km/h (2 Bft)
19.04.2018 14:00 21,7 °C 43 % 1026,0 hPa 0,0 mm 6,8 km/h (2 Bft) N 360 ° 1 min 0,000 mm 5,8 UV-I 805 W/m² 8,6 °C 21,7 °C 9,7 km/h (2 Bft)
19.04.2018 14:01 21,8 °C 44 % 1026,0 hPa 0,0 mm 7,6 km/h (2 Bft) N-NO 15 ° 1 min 0,534 mm 5,8 UV-I 800 W/m² 9,0 °C 21,8 °C 12,9 km/h (3 Bft)
19.04.2018 14:02 21,7 °C 42 % 1026,0 hPa 0,0 mm 11,4 km/h (2 Bft) N-NO 33 ° 1 min 0,000 mm 5,8 UV-I 803 W/m² 8,2 °C 21,7 °C 16,1 km/h (3 Bft)
19.04.2018 14:03 21,7 °C 44 % 1026,0 hPa 0,0 mm 6,5 km/h (2 Bft) N-NO 28 ° 1 min 0,000 mm 5,8 UV-I 796 W/m² 8,9 °C 21,7 °C 11,3 km/h (2 Bft)
19.04.2018 14:04 21,6 °C 41 % 1026,0 hPa 0,0 mm 4,6 km/h (1 Bft) O-NO 60 ° 1 min 0,000 mm 5,8 UV-I 796 W/m² 7,8 °C 21,6 °C 8,0 km/h (2 Bft)
19.04.2018 14:05 21,6 °C 46 % 1026,0 hPa 0,0 mm 6,2 km/h (2 Bft) O-NO 76 ° 1 min 0,000 mm 5,7 UV-I 796 W/m² 9,5 °C 21,6 °C 9,7 km/h (2 Bft)
19.04.2018 14:06 21,6 °C 41 % 1026,0 hPa 0,0 mm 4,8 km/h (1 Bft) O-NO 72 ° 1 min 0,000 mm 5,8 UV-I 796 W/m² 7,8 °C 21,6 °C 6,4 km/h (2 Bft)
19.04.2018 14:07 21,6 °C 46 % 1025,9 hPa 0,0 mm 5,9 km/h (2 Bft) O 90 ° 1 min 0,000 mm 5,8 UV-I 809 W/m² 9,5 °C 21,6 °C 9,7 km/h (2 Bft)
19.04.2018 14:08 21,4 °C 46 % 1025,9 hPa 0,0 mm 7,6 km/h (2 Bft) O-NO 67 ° 1 min 0,000 mm 5,8 UV-I 807 W/m² 9,3 °C 21,4 °C 12,9 km/h (3 Bft)
19.04.2018 14:09 21,4 °C 43 % 1026,0 hPa 0,0 mm 1,5 km/h (1 Bft) O-NO 59 ° 1 min 0,000 mm 5,8 UV-I 807 W/m² 8,3 °C 21,4 °C 3,2 km/h (1 Bft)
19.04.2018 14:10 21,3 °C 40 % 1025,9 hPa 0,0 mm 0,3 km/h (0 Bft) O-NO 57 ° 1 min 0,000 mm 5,7 UV-I 803 W/m² 7,1 °C 21,3 °C 1,6 km/h (1 Bft)
19.04.2018 14:11 21,3 °C 38 % 1025,9 hPa 0,0 mm 2,0 km/h (1 Bft) NO 46 ° 1 min 0,000 mm 5,7 UV-I 802 W/m² 6,4 °C 21,3 °C 4,8 km/h (1 Bft)
19.04.2018 14:12 21,5 °C 42 % 1025,9 hPa 0,0 mm 2,8 km/h (1 Bft) O-NO 69 ° 1 min 0,000 mm 5,7 UV-I 802 W/m² 8,0 °C 21,5 °C 4,8 km/h (1 Bft)
19.04.2018 14:13 21,6 °C 41 % 1025,9 hPa 0,0 mm 4,4 km/h (1 Bft) O-NO 76 ° 1 min 0,000 mm 5,7 UV-I 800 W/m² 7,8 °C 21,6 °C 6,4 km/h (2 Bft)
19.04.2018 14:14 21,6 °C 42 % 1025,9 hPa 0,0 mm 1,5 km/h (1 Bft) O-NO 76 ° 1 min 0,000 mm 5,7 UV-I 795 W/m² 8,1 °C 21,6 °C 3,2 km/h (1 Bft)
19.04.2018 14:15 21,8 °C 49 % 1025,9 hPa 0,0 mm 3,4 km/h (1 Bft) O 98 ° 1 min 0,000 mm 5,6 UV-I 788 W/m² 10,6 °C 21,8 °C 6,4 km/h (2 Bft)
19.04.2018 14:16 21,7 °C 45 % 1025,9 hPa 0,0 mm 3,1 km/h (1 Bft) O-NO 77 ° 1 min 0,000 mm 5,7 UV-I 800 W/m² 9,2 °C 21,7 °C 4,8 km/h (1 Bft)
19.04.2018 14:17 21,7 °C 41 % 1025,9 hPa 0,0 mm 2,6 km/h (1 Bft) O-NO 69 ° 1 min 0,000 mm 5,7 UV-I 796 W/m² 7,9 °C 21,7 °C 4,8 km/h (1 Bft)
19.04.2018 14:18 21,7 °C 43 % 1025,9 hPa 0,0 mm 2,8 km/h (1 Bft) NO 36 ° 1 min 0,000 mm 5,7 UV-I 798 W/m² 8,6 °C 21,7 °C 4,8 km/h (1 Bft)
19.04.2018 14:19 21,8 °C 43 % 1025,9 hPa 0,0 mm 4,7 km/h (1 Bft) NO 45 ° 1 min 0,000 mm 5,7 UV-I 796 W/m² 8,7 °C 21,8 °C 8,0 km/h (2 Bft)
19.04.2018 14:20 21,8 °C 41 % 1025,9 hPa 0,0 mm 3,3 km/h (1 Bft) NO 56 ° 1 min 0,000 mm 5,6 UV-I 793 W/m² 8,0 °C 21,8 °C 4,8 km/h (1 Bft)
19.04.2018 14:21 21,8 °C 40 % 1025,9 hPa 0,0 mm 3,0 km/h (1 Bft) O-NO 67 ° 1 min 0,000 mm 5,5 UV-I 786 W/m² 7,6 °C 21,8 °C 4,8 km/h (1 Bft)
19.04.2018 14:22 21,7 °C 40 % 1025,9 hPa 0,0 mm 4,5 km/h (1 Bft) O-NO 71 ° 1 min 0,000 mm 5,5 UV-I 772 W/m² 7,5 °C 21,7 °C 6,4 km/h (2 Bft)
19.04.2018 14:23 21,7 °C 40 % 1025,8 hPa 0,0 mm 2,5 km/h (1 Bft) O-NO 71 ° 1 min 0,000 mm 5,6 UV-I 784 W/m² 7,5 °C 21,7 °C 4,8 km/h (1 Bft)
19.04.2018 14:24 21,7 °C 43 % 1025,9 hPa 0,0 mm 4,6 km/h (1 Bft) O-NO 69 ° 1 min 0,000 mm 5,6 UV-I 788 W/m² 8,6 °C 21,7 °C 8,0 km/h (2 Bft)
19.04.2018 14:25 21,8 °C 42 % 1025,7 hPa 0,0 mm 6,5 km/h (2 Bft) N-NO 16 ° 1 min 0,000 mm 5,6 UV-I 789 W/m² 8,3 °C 21,8 °C 8,0 km/h (2 Bft)
19.04.2018 14:26 21,8 °C 43 % 1025,8 hPa 0,0 mm 3,8 km/h (1 Bft) NO 44 ° 1 min 0,000 mm 5,5 UV-I 788 W/m² 8,7 °C 21,8 °C 8,0 km/h (2 Bft)
19.04.2018 14:27 21,9 °C 42 % 1025,8 hPa 0,0 mm 6,9 km/h (2 Bft) N 355 ° 1 min 0,000 mm 5,5 UV-I 782 W/m² 8,4 °C 21,9 °C 12,9 km/h (3 Bft)
19.04.2018 14:28 22,1 °C 42 % 1025,8 hPa 0,0 mm 6,8 km/h (2 Bft) N 5 ° 1 min 0,000 mm 5,5 UV-I 786 W/m² 8,6 °C 22,1 °C 12,9 km/h (3 Bft)
19.04.2018 14:29 22,1 °C 41 % 1025,8 hPa 0,0 mm 4,8 km/h (1 Bft) W-NW 298 ° 1 min 0,000 mm 5,5 UV-I 784 W/m² 8,2 °C 22,1 °C 11,3 km/h (2 Bft)
19.04.2018 14:30 22,0 °C 39 % 1025,7 hPa 0,0 mm 1,8 km/h (1 Bft) SO 131 ° 1 min 0,000 mm 5,5 UV-I 784 W/m² 7,4 °C 22,0 °C 3,2 km/h (1 Bft)
19.04.2018 14:31 21,8 °C 40 % 1025,7 hPa 0,0 mm 4,6 km/h (1 Bft) NO 47 ° 1 min 0,000 mm 5,5 UV-I 784 W/m² 7,6 °C 21,8 °C 8,0 km/h (2 Bft)
19.04.2018 14:32 21,8 °C 40 % 1025,8 hPa 0,0 mm 4,6 km/h (1 Bft) NO 38 ° 1 min 0,000 mm 5,5 UV-I 784 W/m² 7,6 °C 21,8 °C 8,0 km/h (2 Bft)
19.04.2018 14:33 21,9 °C 42 % 1025,7 hPa 0,0 mm 4,5 km/h (1 Bft) N-NO 16 ° 1 min 0,000 mm 5,5 UV-I 780 W/m² 8,4 °C 21,9 °C 8,0 km/h (2 Bft)
19.04.2018 14:34 22,2 °C 41 % 1025,7 hPa 0,0 mm 5,8 km/h (2 Bft) NW 321 ° 1 min 0,000 mm 5,4 UV-I 780 W/m² 8,3 °C 22,2 °C 8,0 km/h (2 Bft)
19.04.2018 14:35 22,3 °C 42 % 1025,7 hPa 0,0 mm 9,4 km/h (2 Bft) N-NW 344 ° 1 min 0,000 mm 5,4 UV-I 770 W/m² 8,8 °C 22,3 °C 14,5 km/h (3 Bft)
19.04.2018 14:36 22,2 °C 41 % 1025,7 hPa 0,0 mm 10,0 km/h (2 Bft) N 360 ° 1 min 0,000 mm 5,4 UV-I 775 W/m² 8,3 °C 22,2 °C 14,5 km/h (3 Bft)
19.04.2018 14:37 22,2 °C 41 % 1025,8 hPa 0,0 mm 6,6 km/h (2 Bft) N-NO 12 ° 1 min 0,000 mm 5,4 UV-I 773 W/m² 8,3 °C 22,2 °C 9,7 km/h (2 Bft)
19.04.2018 14:38 22,1 °C 41 % 1025,7 hPa 0,0 mm 1,8 km/h (1 Bft) N-NO 26 ° 1 min 0,000 mm 5,4 UV-I 770 W/m² 8,2 °C 22,1 °C 4,8 km/h (1 Bft)
19.04.2018 14:39 21,9 °C 43 % 1025,7 hPa 0,0 mm 3,8 km/h (1 Bft) N 9 ° 1 min 0,000 mm 5,4 UV-I 772 W/m² 8,7 °C 21,9 °C 4,8 km/h (1 Bft)
19.04.2018 14:40 22,0 °C 43 % 1025,7 hPa 0,0 mm 3,6 km/h (1 Bft) N 355 ° 1 min 0,000 mm 5,3 UV-I 770 W/m² 8,8 °C 22,0 °C 6,4 km/h (2 Bft)
19.04.2018 14:41 22,1 °C 41 % 1025,7 hPa 0,0 mm 5,1 km/h (1 Bft) N-NO 24 ° 1 min 0,000 mm 5,3 UV-I 766 W/m² 8,2 °C 22,1 °C 9,7 km/h (2 Bft)
19.04.2018 14:42 22,2 °C 40 % 1025,7 hPa 0,0 mm 5,7 km/h (1 Bft) N 5 ° 1 min 0,000 mm 5,3 UV-I 765 W/m² 8,0 °C 22,2 °C 9,7 km/h (2 Bft)
19.04.2018 14:43 22,3 °C 40 % 1025,6 hPa 0,0 mm 10,4 km/h (2 Bft) N-NO 26 ° 1 min 0,000 mm 5,3 UV-I 765 W/m² 8,0 °C 22,3 °C 17,7 km/h (3 Bft)
19.04.2018 14:44 22,3 °C 40 % 1025,6 hPa 0,0 mm 8,4 km/h (2 Bft) O-NO 62 ° 1 min 0,000 mm 5,3 UV-I 763 W/m² 8,0 °C 22,3 °C 12,9 km/h (3 Bft)
19.04.2018 14:45 22,4 °C 39 % 1025,7 hPa 0,0 mm 4,2 km/h (1 Bft) NO 46 ° 1 min 0,000 mm 5,3 UV-I 763 W/m² 7,8 °C 22,4 °C 8,0 km/h (2 Bft)
19.04.2018 14:46 22,4 °C 39 % 1025,6 hPa 0,0 mm 4,4 km/h (1 Bft) O-NO 66 ° 1 min 0,000 mm 5,3 UV-I 763 W/m² 7,8 °C 22,4 °C 6,4 km/h (2 Bft)
19.04.2018 14:47 22,4 °C 37 % 1025,6 hPa 0,0 mm 1,7 km/h (1 Bft) O-NO 66 ° 1 min 0,000 mm 5,3 UV-I 761 W/m² 7,0 °C 22,4 °C 3,2 km/h (1 Bft)
19.04.2018 14:48 22,4 °C 38 % 1025,6 hPa 0,0 mm 5,1 km/h (1 Bft) NO 44 ° 1 min 0,000 mm 5,3 UV-I 758 W/m² 7,4 °C 22,4 °C 14,5 km/h (3 Bft)
19.04.2018 14:49 22,3 °C 39 % 1025,6 hPa 0,0 mm 9,8 km/h (2 Bft) O-NO 71 ° 1 min 0,000 mm 5,2 UV-I 758 W/m² 7,7 °C 22,3 °C 14,5 km/h (3 Bft)
19.04.2018 14:50 22,2 °C 40 % 1025,6 hPa 0,0 mm 6,1 km/h (2 Bft) O-NO 57 ° 1 min 0,000 mm 5,2 UV-I 756 W/m² 8,0 °C 22,2 °C 11,3 km/h (2 Bft)
19.04.2018 14:51 22,2 °C 41 % 1025,6 hPa 0,0 mm 3,6 km/h (1 Bft) N-NO 24 ° 1 min 0,000 mm 5,2 UV-I 754 W/m² 8,3 °C 22,2 °C 6,4 km/h (2 Bft)
19.04.2018 14:52 22,2 °C 40 % 1025,6 hPa 0,0 mm 4,2 km/h (1 Bft) O-NO 57 ° 1 min 0,000 mm 5,2 UV-I 752 W/m² 8,0 °C 22,2 °C 8,0 km/h (2 Bft)
19.04.2018 14:53 22,3 °C 44 % 1025,6 hPa 0,0 mm 9,8 km/h (2 Bft) NO 53 ° 1 min 0,000 mm 5,1 UV-I 751 W/m² 9,5 °C 22,3 °C 14,5 km/h (3 Bft)
19.04.2018 14:54 22,2 °C 39 % 1025,6 hPa 0,0 mm 7,4 km/h (2 Bft) NO 40 ° 1 min 0,000 mm 5,1 UV-I 747 W/m² 7,6 °C 22,2 °C 11,3 km/h (2 Bft)
19.04.2018 14:55 22,2 °C 38 % 1025,6 hPa 0,0 mm 8,0 km/h (2 Bft) NO 36 ° 1 min 0,000 mm 5,1 UV-I 747 W/m² 7,2 °C 22,2 °C 9,7 km/h (2 Bft)
19.04.2018 14:56 22,2 °C 39 % 1025,6 hPa 0,0 mm 8,5 km/h (2 Bft) NO 39 ° 1 min 0,000 mm 5,1 UV-I 747 W/m² 7,6 °C 22,2 °C 11,3 km/h (2 Bft)
19.04.2018 14:57 22,2 °C 42 % 1025,6 hPa 0,0 mm 8,3 km/h (2 Bft) O 85 ° 1 min 0,000 mm 5,0 UV-I 744 W/m² 8,7 °C 22,2 °C 12,9 km/h (3 Bft)
19.04.2018 14:58 22,2 °C 40 % 1025,6 hPa 0,0 mm 8,1 km/h (2 Bft) O 98 ° 1 min 0,000 mm 5,0 UV-I 745 W/m² 8,0 °C 22,2 °C 11,3 km/h (2 Bft)
19.04.2018 14:59 22,1 °C 38 % 1025,6 hPa 0,0 mm 5,6 km/h (1 Bft) S-SO 155 ° 1 min 0,000 mm 5,0 UV-I 744 W/m² 7,1 °C 22,1 °C 6,4 km/h (2 Bft)
19.04.2018 15:00 21,9 °C 37 % 1025,6 hPa 0,0 mm 2,5 km/h (1 Bft) O 94 ° 1 min 0,000 mm 5,0 UV-I 744 W/m² 6,5 °C 21,9 °C 4,8 km/h (1 Bft)
19.04.2018 15:01 21,9 °C 38 % 1025,5 hPa 0,0 mm 2,7 km/h (1 Bft) O 94 ° 1 min 0,508 mm 5,0 UV-I 744 W/m² 6,9 °C 21,9 °C 6,4 km/h (2 Bft)
19.04.2018 15:02 21,9 °C 43 % 1025,5 hPa 0,0 mm 5,2 km/h (1 Bft) O 101 ° 1 min 0,000 mm 5,0 UV-I 740 W/m² 8,7 °C 21,9 °C 11,3 km/h (2 Bft)
19.04.2018 15:03 21,8 °C 37 % 1025,5 hPa 0,0 mm 4,7 km/h (1 Bft) O 86 ° 1 min 0,000 mm 5,0 UV-I 738 W/m² 6,5 °C 21,8 °C 11,3 km/h (2 Bft)
19.04.2018 15:04 21,8 °C 39 % 1025,4 hPa 0,0 mm 0,0 km/h (0 Bft) O 86 ° 1 min 0,000 mm 4,9 UV-I 737 W/m² 7,2 °C 21,8 °C 0,0 km/h (0 Bft)
19.04.2018 15:05 21,8 °C 40 % 1025,4 hPa 0,0 mm 1,5 km/h (1 Bft) O 86 ° 1 min 0,000 mm 4,9 UV-I 737 W/m² 7,6 °C 21,8 °C 3,2 km/h (1 Bft)
19.04.2018 15:06 21,8 °C 38 % 1025,4 hPa 0,0 mm 3,4 km/h (1 Bft) O 88 ° 1 min 0,000 mm 4,9 UV-I 733 W/m² 6,8 °C 21,8 °C 4,8 km/h (1 Bft)
19.04.2018 15:07 21,9 °C 39 % 1025,4 hPa 0,0 mm 3,2 km/h (1 Bft) O 88 ° 1 min 0,000 mm 4,9 UV-I 733 W/m² 7,3 °C 21,9 °C 4,8 km/h (1 Bft)
19.04.2018 15:08 22,0 °C 42 % 1025,4 hPa 0,0 mm 4,1 km/h (1 Bft) O-NO 61 ° 1 min 0,000 mm 4,9 UV-I 729 W/m² 8,5 °C 22,0 °C 6,4 km/h (2 Bft)
19.04.2018 15:09 22,1 °C 39 % 1025,4 hPa 0,0 mm 3,9 km/h (1 Bft) NO 43 ° 1 min 0,000 mm 4,9 UV-I 729 W/m² 7,5 °C 22,1 °C 8,0 km/h (2 Bft)
19.04.2018 15:10 22,1 °C 38 % 1025,4 hPa 0,0 mm 4,2 km/h (1 Bft) NO 49 ° 1 min 0,000 mm 4,9 UV-I 726 W/m² 7,1 °C 22,1 °C 6,4 km/h (2 Bft)
19.04.2018 15:11 22,1 °C 40 % 1025,4 hPa 0,0 mm 6,0 km/h (2 Bft) N 360 ° 1 min 0,000 mm 4,9 UV-I 726 W/m² 7,9 °C 22,1 °C 8,0 km/h (2 Bft)
19.04.2018 15:12 22,2 °C 39 % 1025,4 hPa 0,0 mm 7,8 km/h (2 Bft) N 355 ° 1 min 0,000 mm 4,8 UV-I 724 W/m² 7,6 °C 22,2 °C 11,3 km/h (2 Bft)
19.04.2018 15:13 22,4 °C 39 % 1025,4 hPa 0,0 mm 9,6 km/h (2 Bft) N-NO 14 ° 1 min 0,000 mm 4,8 UV-I 722 W/m² 7,8 °C 22,4 °C 16,1 km/h (3 Bft)
19.04.2018 15:14 22,6 °C 38 % 1025,4 hPa 0,0 mm 6,5 km/h (2 Bft) N 355 ° 1 min 0,000 mm 4,8 UV-I 721 W/m² 7,6 °C 22,6 °C 11,3 km/h (2 Bft)
19.04.2018 15:15 22,6 °C 39 % 1025,4 hPa 0,0 mm 4,9 km/h (1 Bft) N 349 ° 1 min 0,000 mm 4,8 UV-I 722 W/m² 7,9 °C 22,6 °C 8,0 km/h (2 Bft)
19.04.2018 15:16 22,5 °C 43 % 1025,3 hPa 0,0 mm 8,9 km/h (2 Bft) O-NO 59 ° 1 min 0,000 mm 4,8 UV-I 717 W/m² 9,3 °C 22,5 °C 14,5 km/h (3 Bft)
19.04.2018 15:17 22,5 °C 39 % 1025,4 hPa 0,0 mm 6,8 km/h (2 Bft) O 89 ° 1 min 0,000 mm 4,8 UV-I 717 W/m² 7,8 °C 22,5 °C 9,7 km/h (2 Bft)
19.04.2018 15:18 22,3 °C 39 % 1025,4 hPa 0,0 mm 6,0 km/h (2 Bft) O 81 ° 1 min 0,000 mm 4,7 UV-I 715 W/m² 7,7 °C 22,3 °C 8,0 km/h (2 Bft)
19.04.2018 15:19 22,3 °C 40 % 1025,3 hPa 0,0 mm 5,6 km/h (1 Bft) O-NO 65 ° 1 min 0,000 mm 4,7 UV-I 714 W/m² 8,0 °C 22,3 °C 6,4 km/h (2 Bft)
19.04.2018 15:20 22,2 °C 39 % 1025,3 hPa 0,0 mm 5,9 km/h (2 Bft) NO 36 ° 1 min 0,000 mm 4,7 UV-I 712 W/m² 7,6 °C 22,2 °C 9,7 km/h (2 Bft)
19.04.2018 15:21 22,3 °C 40 % 1025,3 hPa 0,0 mm 4,3 km/h (1 Bft) NO 48 ° 1 min 0,000 mm 4,7 UV-I 710 W/m² 8,0 °C 22,3 °C 8,0 km/h (2 Bft)
19.04.2018 15:22 22,4 °C 42 % 1025,3 hPa 0,0 mm 5,0 km/h (1 Bft) NO 38 ° 1 min 0,000 mm 4,6 UV-I 708 W/m² 8,9 °C 22,4 °C 8,0 km/h (2 Bft)
19.04.2018 15:23 22,4 °C 38 % 1025,3 hPa 0,0 mm 8,5 km/h (2 Bft) NO 53 ° 1 min 0,000 mm 4,6 UV-I 705 W/m² 7,4 °C 22,4 °C 11,3 km/h (2 Bft)
19.04.2018 15:24 22,5 °C 37 % 1025,3 hPa 0,0 mm 9,7 km/h (2 Bft) O-NO 60 ° 1 min 0,000 mm 4,6 UV-I 703 W/m² 7,1 °C 22,5 °C 14,5 km/h (3 Bft)
19.04.2018 15:25 22,5 °C 37 % 1025,3 hPa 0,0 mm 4,7 km/h (1 Bft) NO 54 ° 1 min 0,000 mm 4,6 UV-I 701 W/m² 7,1 °C 22,5 °C 8,0 km/h (2 Bft)
19.04.2018 15:26 22,6 °C 37 % 1025,3 hPa 0,0 mm 4,2 km/h (1 Bft) NO 56 ° 1 min 0,000 mm 4,6 UV-I 701 W/m² 7,2 °C 22,6 °C 6,4 km/h (2 Bft)
19.04.2018 15:27 22,6 °C 42 % 1025,3 hPa 0,0 mm 8,9 km/h (2 Bft) NO 51 ° 1 min 0,000 mm 4,6 UV-I 700 W/m² 9,0 °C 22,6 °C 16,1 km/h (3 Bft)
19.04.2018 15:28 22,6 °C 40 % 1025,3 hPa 0,0 mm 5,9 km/h (2 Bft) O 86 ° 1 min 0,000 mm 4,5 UV-I 698 W/m² 8,3 °C 22,6 °C 12,9 km/h (3 Bft)
19.04.2018 15:29 22,6 °C 40 % 1025,3 hPa 0,0 mm 9,2 km/h (2 Bft) O-NO 61 ° 1 min 0,000 mm 4,5 UV-I 694 W/m² 8,3 °C 22,6 °C 14,5 km/h (3 Bft)
19.04.2018 15:30 22,4 °C 38 % 1025,3 hPa 0,0 mm 6,2 km/h (2 Bft) NO 54 ° 1 min 0,000 mm 4,5 UV-I 691 W/m² 7,4 °C 22,4 °C 9,7 km/h (2 Bft)
19.04.2018 15:31 22,4 °C 38 % 1025,3 hPa 0,0 mm 10,6 km/h (2 Bft) N-NO 27 ° 1 min 0,000 mm 4,4 UV-I 691 W/m² 7,4 °C 22,4 °C 14,5 km/h (3 Bft)
19.04.2018 15:32 22,4 °C 38 % 1025,3 hPa 0,0 mm 5,3 km/h (1 Bft) NO 34 ° 1 min 0,000 mm 4,4 UV-I 689 W/m² 7,4 °C 22,4 °C 8,0 km/h (2 Bft)
19.04.2018 15:33 22,4 °C 41 % 1025,3 hPa 0,0 mm 8,4 km/h (2 Bft) O-NO 63 ° 1 min 0,000 mm 4,4 UV-I 687 W/m² 8,5 °C 22,4 °C 17,7 km/h (3 Bft)
19.04.2018 15:34 22,4 °C 39 % 1025,3 hPa 0,0 mm 8,1 km/h (2 Bft) NO 38 ° 1 min 0,000 mm 4,4 UV-I 687 W/m² 7,8 °C 22,4 °C 14,5 km/h (3 Bft)
19.04.2018 15:35 22,3 °C 38 % 1025,2 hPa 0,0 mm 3,1 km/h (1 Bft) N-NO 28 ° 1 min 0,000 mm 4,4 UV-I 682 W/m² 7,3 °C 22,3 °C 6,4 km/h (2 Bft)
19.04.2018 15:36 22,3 °C 38 % 1025,2 hPa 0,0 mm 4,7 km/h (1 Bft) NO 53 ° 1 min 0,000 mm 4,3 UV-I 680 W/m² 7,3 °C 22,3 °C 11,3 km/h (2 Bft)
19.04.2018 15:37 22,4 °C 41 % 1025,2 hPa 0,0 mm 9,0 km/h (2 Bft) O-NO 77 ° 1 min 0,000 mm 4,3 UV-I 679 W/m² 8,5 °C 22,4 °C 16,1 km/h (3 Bft)
19.04.2018 15:38 22,4 °C 40 % 1025,2 hPa 0,0 mm 11,5 km/h (2 Bft) O 90 ° 1 min 0,000 mm 4,3 UV-I 677 W/m² 8,1 °C 22,4 °C 17,7 km/h (3 Bft)
19.04.2018 15:39 22,3 °C 39 % 1025,2 hPa 0,0 mm 8,3 km/h (2 Bft) O-NO 57 ° 1 min 0,000 mm 4,3 UV-I 675 W/m² 7,7 °C 22,3 °C 12,9 km/h (3 Bft)
19.04.2018 15:40 22,2 °C 37 % 1025,3 hPa 0,0 mm 10,3 km/h (2 Bft) NO 55 ° 1 min 0,000 mm 4,2 UV-I 673 W/m² 6,8 °C 22,2 °C 16,1 km/h (3 Bft)
19.04.2018 15:41 22,0 °C 39 % 1025,2 hPa 0,0 mm 8,1 km/h (2 Bft) N-NO 27 ° 1 min 0,000 mm 4,2 UV-I 668 W/m² 7,4 °C 22,0 °C 11,3 km/h (2 Bft)
19.04.2018 15:42 22,0 °C 38 % 1025,2 hPa 0,0 mm 9,2 km/h (2 Bft) O-NO 76 ° 1 min 0,000 mm 4,2 UV-I 666 W/m² 7,0 °C 22,0 °C 14,5 km/h (3 Bft)
19.04.2018 15:43 22,0 °C 37 % 1025,2 hPa 0,0 mm 6,5 km/h (2 Bft) O 96 ° 1 min 0,000 mm 4,2 UV-I 666 W/m² 6,6 °C 22,0 °C 11,3 km/h (2 Bft)
19.04.2018 15:44 22,0 °C 39 % 1025,2 hPa 0,0 mm 9,9 km/h (2 Bft) O-NO 78 ° 1 min 0,000 mm 4,1 UV-I 663 W/m² 7,4 °C 22,0 °C 14,5 km/h (3 Bft)
19.04.2018 15:45 22,1 °C 40 % 1025,2 hPa 0,0 mm 10,3 km/h (2 Bft) O 88 ° 1 min 0,000 mm 4,1 UV-I 663 W/m² 7,9 °C 22,1 °C 16,1 km/h (3 Bft)
19.04.2018 15:46 22,0 °C 38 % 1025,2 hPa 0,0 mm 6,6 km/h (2 Bft) N-NO 25 ° 1 min 0,000 mm 4,1 UV-I 661 W/m² 7,0 °C 22,0 °C 11,3 km/h (2 Bft)
19.04.2018 15:47 22,1 °C 39 % 1025,2 hPa 0,0 mm 9,4 km/h (2 Bft) N-NO 19 ° 1 min 0,000 mm 4,1 UV-I 656 W/m² 7,5 °C 22,1 °C 17,7 km/h (3 Bft)
19.04.2018 15:48 22,1 °C 39 % 1025,2 hPa 0,0 mm 6,2 km/h (2 Bft) NO 56 ° 1 min 0,000 mm 4,0 UV-I 654 W/m² 7,5 °C 22,1 °C 9,7 km/h (2 Bft)
19.04.2018 15:49 22,2 °C 37 % 1025,2 hPa 0,0 mm 4,4 km/h (1 Bft) N-NO 32 ° 1 min 0,000 mm 4,0 UV-I 652 W/m² 6,8 °C 22,2 °C 6,4 km/h (2 Bft)
19.04.2018 15:50 22,3 °C 37 % 1025,1 hPa 0,0 mm 6,2 km/h (2 Bft) N-NO 22 ° 1 min 0,000 mm 4,0 UV-I 650 W/m² 6,9 °C 22,3 °C 8,0 km/h (2 Bft)
19.04.2018 15:51 22,3 °C 36 % 1025,1 hPa 0,0 mm 5,8 km/h (2 Bft) N 11 ° 1 min 0,000 mm 4,0 UV-I 647 W/m² 6,5 °C 22,3 °C 14,5 km/h (3 Bft)
19.04.2018 15:52 22,3 °C 37 % 1025,0 hPa 0,0 mm 7,8 km/h (2 Bft) N 11 ° 1 min 0,000 mm 4,0 UV-I 643 W/m² 6,9 °C 22,3 °C 11,3 km/h (2 Bft)
19.04.2018 15:53 22,2 °C 41 % 1025,0 hPa 0,0 mm 7,2 km/h (2 Bft) N 5 ° 1 min 0,000 mm 4,0 UV-I 642 W/m² 8,3 °C 22,2 °C 11,3 km/h (2 Bft)
19.04.2018 15:54 22,3 °C 38 % 1025,1 hPa 0,0 mm 8,2 km/h (2 Bft) N-NO 24 ° 1 min 0,000 mm 3,9 UV-I 642 W/m² 7,3 °C 22,3 °C 12,9 km/h (3 Bft)
19.04.2018 15:55 22,3 °C 39 % 1025,1 hPa 0,0 mm 8,5 km/h (2 Bft) NO 52 ° 1 min 0,000 mm 3,9 UV-I 640 W/m² 7,7 °C 22,3 °C 17,7 km/h (3 Bft)
19.04.2018 15:56 22,3 °C 38 % 1025,2 hPa 0,0 mm 10,4 km/h (2 Bft) NO 48 ° 1 min 0,000 mm 3,9 UV-I 638 W/m² 7,3 °C 22,3 °C 17,7 km/h (3 Bft)
19.04.2018 15:57 22,2 °C 37 % 1025,1 hPa 0,0 mm 8,3 km/h (2 Bft) NO 49 ° 1 min 0,000 mm 3,9 UV-I 636 W/m² 6,8 °C 22,2 °C 14,5 km/h (3 Bft)
19.04.2018 15:58 22,2 °C 38 % 1025,1 hPa 0,0 mm 9,4 km/h (2 Bft) O-NO 76 ° 1 min 0,000 mm 3,9 UV-I 633 W/m² 7,2 °C 22,2 °C 16,1 km/h (3 Bft)
19.04.2018 15:59 22,1 °C 37 % 1025,1 hPa 0,0 mm 9,8 km/h (2 Bft) NO 46 ° 1 min 0,000 mm 3,8 UV-I 631 W/m² 6,7 °C 22,1 °C 14,5 km/h (3 Bft)
19.04.2018 16:00 22,0 °C 37 % 1025,1 hPa 0,0 mm 9,3 km/h (2 Bft) N-NO 16 ° 1 min 0,000 mm 3,8 UV-I 619 W/m² 6,6 °C 22,0 °C 12,9 km/h (3 Bft)
19.04.2018 16:01 22,0 °C 37 % 1025,0 hPa 0,0 mm 5,5 km/h (1 Bft) O 88 ° 1 min 0,482 mm 3,8 UV-I 626 W/m² 6,6 °C 22,0 °C 9,7 km/h (2 Bft)
19.04.2018 16:02 22,1 °C 37 % 1025,0 hPa 0,0 mm 11,0 km/h (2 Bft) O-NO 63 ° 1 min 0,000 mm 3,8 UV-I 622 W/m² 6,7 °C 22,1 °C 17,7 km/h (3 Bft)
19.04.2018 16:03 22,1 °C 36 % 1025,1 hPa 0,0 mm 8,0 km/h (2 Bft) N-NO 19 ° 1 min 0,000 mm 3,8 UV-I 621 W/m² 6,3 °C 22,1 °C 14,5 km/h (3 Bft)
19.04.2018 16:04 22,0 °C 39 % 1025,0 hPa 0,0 mm 4,4 km/h (1 Bft) N-NO 27 ° 1 min 0,000 mm 3,7 UV-I 619 W/m² 7,4 °C 22,0 °C 9,7 km/h (2 Bft)
19.04.2018 16:05 22,0 °C 37 % 1025,0 hPa 0,0 mm 6,8 km/h (2 Bft) N 10 ° 1 min 0,000 mm 3,7 UV-I 617 W/m² 6,6 °C 22,0 °C 12,9 km/h (3 Bft)
19.04.2018 16:06 22,1 °C 37 % 1025,0 hPa 0,0 mm 4,9 km/h (1 Bft) N-NO 17 ° 1 min 0,000 mm 3,7 UV-I 613 W/m² 6,7 °C 22,1 °C 8,0 km/h (2 Bft)
19.04.2018 16:07 22,1 °C 38 % 1025,0 hPa 0,0 mm 5,0 km/h (1 Bft) NO 49 ° 1 min 0,000 mm 3,7 UV-I 612 W/m² 7,1 °C 22,1 °C 8,0 km/h (2 Bft)
19.04.2018 16:08 22,1 °C 38 % 1025,0 hPa 0,0 mm 5,0 km/h (1 Bft) NO 43 ° 1 min 0,000 mm 3,6 UV-I 610 W/m² 7,1 °C 22,1 °C 8,0 km/h (2 Bft)
19.04.2018 16:09 22,2 °C 37 % 1025,0 hPa 0,0 mm 5,2 km/h (1 Bft) NO 47 ° 1 min 0,000 mm 3,6 UV-I 606 W/m² 6,8 °C 22,2 °C 8,0 km/h (2 Bft)
19.04.2018 16:10 22,3 °C 37 % 1025,0 hPa 0,0 mm 8,0 km/h (2 Bft) NO 35 ° 1 min 0,000 mm 3,6 UV-I 603 W/m² 6,9 °C 22,3 °C 14,5 km/h (3 Bft)
19.04.2018 16:11 22,3 °C 38 % 1025,0 hPa 0,0 mm 5,3 km/h (1 Bft) NO 45 ° 1 min 0,000 mm 3,6 UV-I 598 W/m² 7,3 °C 22,3 °C 9,7 km/h (2 Bft)
19.04.2018 16:12 22,4 °C 38 % 1025,0 hPa 0,0 mm 6,5 km/h (2 Bft) O-NO 57 ° 1 min 0,000 mm 3,5 UV-I 561 W/m² 7,4 °C 22,4 °C 9,7 km/h (2 Bft)
19.04.2018 16:13 22,4 °C 38 % 1025,0 hPa 0,0 mm 9,9 km/h (2 Bft) N-NO 16 ° 1 min 0,000 mm 3,4 UV-I 501 W/m² 7,4 °C 22,4 °C 16,1 km/h (3 Bft)
19.04.2018 16:14 22,4 °C 37 % 1024,9 hPa 0,0 mm 8,6 km/h (2 Bft) N-NO 12 ° 1 min 0,000 mm 3,3 UV-I 448 W/m² 7,0 °C 22,4 °C 19,3 km/h (3 Bft)
19.04.2018 16:15 22,3 °C 35 % 1024,9 hPa 0,0 mm 8,2 km/h (2 Bft) O-NO 59 ° 1 min 0,000 mm 3,1 UV-I 438 W/m² 6,1 °C 22,3 °C 14,5 km/h (3 Bft)
19.04.2018 16:16 22,3 °C 37 % 1024,9 hPa 0,0 mm 3,8 km/h (1 Bft) N-NO 33 ° 1 min 0,000 mm 3,0 UV-I 429 W/m² 6,9 °C 22,3 °C 4,8 km/h (1 Bft)
19.04.2018 16:17 22,3 °C 38 % 1024,9 hPa 0,0 mm 8,8 km/h (2 Bft) O 81 ° 1 min 0,000 mm 3,0 UV-I 397 W/m² 7,3 °C 22,3 °C 14,5 km/h (3 Bft)
19.04.2018 16:18 22,2 °C 36 % 1024,9 hPa 0,0 mm 10,7 km/h (2 Bft) O 82 ° 1 min 0,000 mm 2,8 UV-I 385 W/m² 6,4 °C 22,2 °C 12,9 km/h (3 Bft)
19.04.2018 16:19 22,1 °C 36 % 1024,9 hPa 0,0 mm 3,0 km/h (1 Bft) O 82 ° 1 min 0,000 mm 2,9 UV-I 439 W/m² 6,3 °C 22,1 °C 6,4 km/h (2 Bft)
19.04.2018 16:20 22,1 °C 37 % 1024,9 hPa 0,0 mm 4,6 km/h (1 Bft) O-NO 61 ° 1 min 0,000 mm 2,9 UV-I 452 W/m² 6,7 °C 22,1 °C 6,4 km/h (2 Bft)
19.04.2018 16:21 22,1 °C 36 % 1024,9 hPa 0,0 mm 6,9 km/h (2 Bft) N-NO 29 ° 1 min 0,000 mm 3,0 UV-I 441 W/m² 6,3 °C 22,1 °C 16,1 km/h (3 Bft)
19.04.2018 16:22 22,1 °C 35 % 1024,9 hPa 0,0 mm 11,0 km/h (2 Bft) NO 53 ° 1 min 0,000 mm 2,8 UV-I 338 W/m² 5,9 °C 22,1 °C 16,1 km/h (3 Bft)
19.04.2018 16:23 22,0 °C 35 % 1024,9 hPa 0,0 mm 6,0 km/h (2 Bft) NO 34 ° 0 min 0,000 mm 2,6 UV-I 255 W/m² 5,8 °C 22,0 °C 8,0 km/h (2 Bft)
19.04.2018 16:24 22,0 °C 37 % 1024,8 hPa 0,0 mm 7,3 km/h (2 Bft) O-NO 57 ° 0 min 0,000 mm 2,4 UV-I 248 W/m² 6,6 °C 22,0 °C 11,3 km/h (2 Bft)
19.04.2018 16:25 22,0 °C 38 % 1024,9 hPa 0,0 mm 7,8 km/h (2 Bft) NO 36 ° 0 min 0,000 mm 2,4 UV-I 199 W/m² 7,0 °C 22,0 °C 14,5 km/h (3 Bft)
19.04.2018 16:26 22,0 °C 35 % 1024,9 hPa 0,0 mm 7,8 km/h (2 Bft) O-NO 63 ° 0 min 0,000 mm 2,3 UV-I 251 W/m² 5,8 °C 22,0 °C 12,9 km/h (3 Bft)
19.04.2018 16:27 22,0 °C 36 % 1024,9 hPa 0,0 mm 5,7 km/h (1 Bft) NO 38 ° 0 min 0,000 mm 2,3 UV-I 276 W/m² 6,2 °C 22,0 °C 11,3 km/h (2 Bft)
19.04.2018 16:28 22,0 °C 37 % 1024,8 hPa 0,0 mm 8,8 km/h (2 Bft) NO 44 ° 0 min 0,000 mm 2,4 UV-I 220 W/m² 6,6 °C 22,0 °C 12,9 km/h (3 Bft)
19.04.2018 16:29 22,1 °C 36 % 1024,8 hPa 0,0 mm 8,2 km/h (2 Bft) O 85 ° 0 min 0,000 mm 2,2 UV-I 179 W/m² 6,3 °C 22,1 °C 14,5 km/h (3 Bft)
19.04.2018 16:30 22,0 °C 37 % 1024,8 hPa 0,0 mm 6,0 km/h (2 Bft) O-NO 63 ° 0 min 0,000 mm 2,2 UV-I 204 W/m² 6,6 °C 22,0 °C 8,0 km/h (2 Bft)
19.04.2018 16:31 21,9 °C 36 % 1024,8 hPa 0,0 mm 1,0 km/h (0 Bft) O-NO 64 ° 0 min 0,000 mm 2,2 UV-I 192 W/m² 6,1 °C 21,9 °C 6,4 km/h (2 Bft)
19.04.2018 16:32 21,9 °C 36 % 1024,8 hPa 0,0 mm 2,0 km/h (1 Bft) NO 36 ° 0 min 0,000 mm 2,2 UV-I 183 W/m² 6,1 °C 21,9 °C 4,8 km/h (1 Bft)
19.04.2018 16:33 21,9 °C 39 % 1024,8 hPa 0,0 mm 7,4 km/h (2 Bft) NO 44 ° 0 min 0,000 mm 2,2 UV-I 174 W/m² 7,3 °C 21,9 °C 14,5 km/h (3 Bft)
19.04.2018 16:34 22,0 °C 36 % 1024,8 hPa 0,0 mm 8,6 km/h (2 Bft) N-NW 348 ° 0 min 0,000 mm 2,1 UV-I 211 W/m² 6,2 °C 22,0 °C 17,7 km/h (3 Bft)
19.04.2018 16:35 22,0 °C 36 % 1024,8 hPa 0,0 mm 5,6 km/h (1 Bft) O-NO 65 ° 0 min 0,000 mm 2,2 UV-I 206 W/m² 6,2 °C 22,0 °C 9,7 km/h (2 Bft)
19.04.2018 16:36 22,0 °C 37 % 1024,8 hPa 0,0 mm 9,2 km/h (2 Bft) O-NO 65 ° 0 min 0,000 mm 2,2 UV-I 234 W/m² 6,6 °C 22,0 °C 16,1 km/h (3 Bft)
19.04.2018 16:37 22,0 °C 35 % 1024,8 hPa 0,0 mm 11,5 km/h (2 Bft) NO 44 ° 0 min 0,000 mm 2,2 UV-I 230 W/m² 5,8 °C 22,0 °C 19,3 km/h (3 Bft)
19.04.2018 16:38 22,0 °C 36 % 1024,8 hPa 0,0 mm 9,1 km/h (2 Bft) O 92 ° 0 min 0,000 mm 2,2 UV-I 241 W/m² 6,2 °C 22,0 °C 12,9 km/h (3 Bft)
19.04.2018 16:39 22,0 °C 36 % 1024,8 hPa 0,0 mm 5,3 km/h (1 Bft) O-NO 57 ° 0 min 0,000 mm 2,3 UV-I 227 W/m² 6,2 °C 22,0 °C 8,0 km/h (2 Bft)
19.04.2018 16:40 21,9 °C 36 % 1024,7 hPa 0,0 mm 7,0 km/h (2 Bft) O 91 ° 0 min 0,000 mm 2,4 UV-I 163 W/m² 6,1 °C 21,9 °C 11,3 km/h (2 Bft)
19.04.2018 16:41 21,9 °C 37 % 1024,7 hPa 0,0 mm 11,0 km/h (2 Bft) O-NO 65 ° 0 min 0,000 mm 2,1 UV-I 132 W/m² 6,5 °C 21,9 °C 16,1 km/h (3 Bft)
19.04.2018 16:42 21,9 °C 39 % 1024,7 hPa 0,0 mm 9,0 km/h (2 Bft) N-NO 24 ° 0 min 0,000 mm 2,0 UV-I 144 W/m² 7,3 °C 21,9 °C 16,1 km/h (3 Bft)
19.04.2018 16:43 21,9 °C 36 % 1024,7 hPa 0,0 mm 6,9 km/h (2 Bft) N 9 ° 0 min 0,000 mm 1,8 UV-I 220 W/m² 6,1 °C 21,9 °C 11,3 km/h (2 Bft)
19.04.2018 16:44 22,0 °C 36 % 1024,7 hPa 0,0 mm 6,5 km/h (2 Bft) N 355 ° 0 min 0,000 mm 1,9 UV-I 190 W/m² 6,2 °C 22,0 °C 9,7 km/h (2 Bft)
19.04.2018 16:45 22,1 °C 36 % 1024,7 hPa 0,0 mm 9,3 km/h (2 Bft) N-NO 13 ° 0 min 0,000 mm 1,9 UV-I 246 W/m² 6,3 °C 22,1 °C 16,1 km/h (3 Bft)
19.04.2018 16:46 22,2 °C 39 % 1024,7 hPa 0,0 mm 5,7 km/h (1 Bft) NO 38 ° 0 min 0,000 mm 1,9 UV-I 202 W/m² 7,6 °C 22,2 °C 9,7 km/h (2 Bft)
19.04.2018 16:47 22,3 °C 35 % 1024,7 hPa 0,0 mm 8,5 km/h (2 Bft) O-NO 58 ° 0 min 0,000 mm 2,0 UV-I 218 W/m² 6,1 °C 22,3 °C 12,9 km/h (3 Bft)
19.04.2018 16:48 22,3 °C 36 % 1024,7 hPa 0,0 mm 9,4 km/h (2 Bft) NO 50 ° 0 min 0,000 mm 2,0 UV-I 229 W/m² 6,5 °C 22,3 °C 16,1 km/h (3 Bft)
19.04.2018 16:49 22,2 °C 34 % 1024,7 hPa 0,0 mm 3,8 km/h (1 Bft) O-NO 63 ° 0 min 0,000 mm 2,0 UV-I 181 W/m² 5,6 °C 22,2 °C 8,0 km/h (2 Bft)
19.04.2018 16:50 22,1 °C 35 % 1024,7 hPa 0,0 mm 10,4 km/h (2 Bft) O 101 ° 0 min 0,000 mm 2,1 UV-I 244 W/m² 5,9 °C 22,1 °C 14,5 km/h (3 Bft)
19.04.2018 16:51 21,9 °C 36 % 1024,7 hPa 0,0 mm 10,7 km/h (2 Bft) NW 319 ° 0 min 0,000 mm 2,2 UV-I 230 W/m² 6,1 °C 21,9 °C 17,7 km/h (3 Bft)
19.04.2018 16:52 21,9 °C 38 % 1024,7 hPa 0,0 mm 5,9 km/h (2 Bft) N-NO 21 ° 0 min 0,000 mm 2,2 UV-I 214 W/m² 6,9 °C 21,9 °C 11,3 km/h (2 Bft)
19.04.2018 16:53 21,9 °C 38 % 1024,7 hPa 0,0 mm 6,7 km/h (2 Bft) O-NO 78 ° 0 min 0,000 mm 2,1 UV-I 214 W/m² 6,9 °C 21,9 °C 14,5 km/h (3 Bft)
19.04.2018 16:54 21,9 °C 37 % 1024,7 hPa 0,0 mm 8,4 km/h (2 Bft) NO 39 ° 0 min 0,000 mm 2,0 UV-I 250 W/m² 6,5 °C 21,9 °C 12,9 km/h (3 Bft)
19.04.2018 16:55 21,9 °C 36 % 1024,7 hPa 0,0 mm 5,2 km/h (1 Bft) N 9 ° 1 min 0,000 mm 2,0 UV-I 292 W/m² 6,1 °C 21,9 °C 6,4 km/h (2 Bft)
19.04.2018 16:56 22,0 °C 37 % 1024,7 hPa 0,0 mm 6,2 km/h (2 Bft) NO 35 ° 1 min 0,000 mm 2,1 UV-I 297 W/m² 6,6 °C 22,0 °C 8,0 km/h (2 Bft)
19.04.2018 16:57 22,1 °C 36 % 1024,7 hPa 0,0 mm 8,3 km/h (2 Bft) O-NO 67 ° 1 min 0,000 mm 2,2 UV-I 313 W/m² 6,3 °C 22,1 °C 12,9 km/h (3 Bft)
19.04.2018 16:58 22,0 °C 37 % 1024,7 hPa 0,0 mm 4,3 km/h (1 Bft) N-NO 28 ° 0 min 0,000 mm 2,2 UV-I 279 W/m² 6,6 °C 22,0 °C 8,0 km/h (2 Bft)
19.04.2018 16:59 22,0 °C 38 % 1024,7 hPa 0,0 mm 4,2 km/h (1 Bft) NO 41 ° 0 min 0,000 mm 2,1 UV-I 216 W/m² 7,0 °C 22,0 °C 9,7 km/h (2 Bft)
19.04.2018 17:00 22,1 °C 37 % 1024,7 hPa 0,0 mm 5,0 km/h (1 Bft) NO 49 ° 0 min 0,280 mm 1,9 UV-I 223 W/m² 6,7 °C 22,1 °C 9,7 km/h (2 Bft)
19.04.2018 17:01 22,1 °C 37 % 1024,7 hPa 0,0 mm 4,3 km/h (1 Bft) O-NO 65 ° 0 min 0,000 mm 1,9 UV-I 248 W/m² 6,7 °C 22,1 °C 11,3 km/h (2 Bft)
19.04.2018 17:02 22,0 °C 36 % 1024,7 hPa 0,0 mm 9,8 km/h (2 Bft) N-NO 33 ° 0 min 0,000 mm 1,8 UV-I 239 W/m² 6,2 °C 22,0 °C 14,5 km/h (3 Bft)
19.04.2018 17:03 22,0 °C 37 % 1024,7 hPa 0,0 mm 6,8 km/h (2 Bft) O-NO 64 ° 0 min 0,000 mm 1,9 UV-I 174 W/m² 6,6 °C 22,0 °C 11,3 km/h (2 Bft)
19.04.2018 17:04 21,9 °C 37 % 1024,7 hPa 0,0 mm 10,4 km/h (2 Bft) O 100 ° 0 min 0,000 mm 1,7 UV-I 209 W/m² 6,5 °C 21,9 °C 12,9 km/h (3 Bft)
19.04.2018 17:05 21,8 °C 36 % 1024,7 hPa 0,0 mm 4,0 km/h (1 Bft) N-NO 26 ° 0 min 0,000 mm 1,8 UV-I 176 W/m² 6,1 °C 21,8 °C 8,0 km/h (2 Bft)
19.04.2018 17:06 21,8 °C 38 % 1024,7 hPa 0,0 mm 4,2 km/h (1 Bft) NO 53 ° 0 min 0,000 mm 1,7 UV-I 158 W/m² 6,8 °C 21,8 °C 6,4 km/h (2 Bft)
19.04.2018 17:07 21,8 °C 36 % 1024,7 hPa 0,0 mm 5,7 km/h (1 Bft) O 94 ° 0 min 0,000 mm 1,6 UV-I 120 W/m² 6,1 °C 21,8 °C 9,7 km/h (2 Bft)
19.04.2018 17:08 21,8 °C 36 % 1024,7 hPa 0,0 mm 7,6 km/h (2 Bft) NO 56 ° 0 min 0,000 mm 1,5 UV-I 67 W/m² 6,1 °C 21,8 °C 12,9 km/h (3 Bft)
19.04.2018 17:09 21,7 °C 35 % 1024,7 hPa 0,0 mm 5,2 km/h (1 Bft) O 93 ° 0 min 0,000 mm 1,5 UV-I 100 W/m² 5,6 °C 21,7 °C 11,3 km/h (2 Bft)
19.04.2018 17:10 21,7 °C 36 % 1024,7 hPa 0,0 mm 5,4 km/h (1 Bft) O-NO 57 ° 0 min 0,000 mm 1,7 UV-I 162 W/m² 6,0 °C 21,7 °C 9,7 km/h (2 Bft)
19.04.2018 17:11 21,7 °C 38 % 1024,7 hPa 0,0 mm 8,0 km/h (2 Bft) O 93 ° 0 min 0,000 mm 1,8 UV-I 162 W/m² 6,8 °C 21,7 °C 12,9 km/h (3 Bft)
19.04.2018 17:12 21,7 °C 37 % 1024,7 hPa 0,0 mm 5,8 km/h (2 Bft) O-NO 75 ° 1 min 0,000 mm 2,0 UV-I 362 W/m² 6,4 °C 21,7 °C 11,3 km/h (2 Bft)
19.04.2018 17:13 21,7 °C 37 % 1024,7 hPa 0,0 mm 3,0 km/h (1 Bft) NO 51 ° 1 min 0,000 mm 1,9 UV-I 355 W/m² 6,4 °C 21,7 °C 8,0 km/h (2 Bft)
19.04.2018 17:14 21,7 °C 36 % 1024,7 hPa 0,0 mm 8,7 km/h (2 Bft) NO 53 ° 1 min 0,000 mm 1,7 UV-I 355 W/m² 6,0 °C 21,7 °C 16,1 km/h (3 Bft)
19.04.2018 17:15 21,7 °C 36 % 1024,7 hPa 0,0 mm 12,3 km/h (3 Bft) N-NO 16 ° 0 min 0,000 mm 1,6 UV-I 102 W/m² 6,0 °C 21,7 °C 17,7 km/h (3 Bft)
19.04.2018 17:16 21,8 °C 36 % 1024,7 hPa 0,0 mm 12,6 km/h (3 Bft) N-NO 12 ° 0 min 0,000 mm 1,6 UV-I 156 W/m² 6,1 °C 21,8 °C 17,7 km/h (3 Bft)
19.04.2018 17:17 21,8 °C 36 % 1024,7 hPa 0,0 mm 12,3 km/h (3 Bft) N-NO 19 ° 0 min 0,000 mm 1,7 UV-I 211 W/m² 6,1 °C 21,8 °C 19,3 km/h (3 Bft)
19.04.2018 17:18 21,8 °C 35 % 1024,7 hPa 0,0 mm 5,5 km/h (1 Bft) NO 40 ° 0 min 0,000 mm 1,7 UV-I 216 W/m² 5,7 °C 21,8 °C 9,7 km/h (2 Bft)
19.04.2018 17:19 21,8 °C 37 % 1024,7 hPa 0,0 mm 10,7 km/h (2 Bft) N 355 ° 0 min 0,000 mm 1,7 UV-I 229 W/m² 6,5 °C 21,8 °C 16,1 km/h (3 Bft)
19.04.2018 17:20 21,8 °C 37 % 1024,7 hPa 0,0 mm 8,2 km/h (2 Bft) N 5 ° 0 min 0,000 mm 1,7 UV-I 236 W/m² 6,5 °C 21,8 °C 12,9 km/h (3 Bft)
19.04.2018 17:21 21,8 °C 35 % 1024,7 hPa 0,0 mm 6,7 km/h (2 Bft) N-NO 17 ° 0 min 0,000 mm 1,7 UV-I 213 W/m² 5,7 °C 21,8 °C 14,5 km/h (3 Bft)
19.04.2018 17:22 21,7 °C 36 % 1024,7 hPa 0,0 mm 1,9 km/h (1 Bft) N-NO 29 ° 0 min 0,000 mm 1,5 UV-I 174 W/m² 6,0 °C 21,7 °C 6,4 km/h (2 Bft)
19.04.2018 17:23 21,8 °C 36 % 1024,6 hPa 0,0 mm 5,4 km/h (1 Bft) N-NO 26 ° 0 min 0,000 mm 1,4 UV-I 116 W/m² 6,1 °C 21,8 °C 9,7 km/h (2 Bft)
19.04.2018 17:24 21,8 °C 37 % 1024,6 hPa 0,0 mm 6,5 km/h (2 Bft) O-NO 63 ° 0 min 0,000 mm 1,4 UV-I 79 W/m² 6,5 °C 21,8 °C 12,9 km/h (3 Bft)
19.04.2018 17:25 21,8 °C 37 % 1024,7 hPa 0,0 mm 9,9 km/h (2 Bft) O-NO 68 ° 0 min 0,000 mm 1,4 UV-I 79 W/m² 6,5 °C 21,8 °C 16,1 km/h (3 Bft)
19.04.2018 17:26 21,8 °C 35 % 1024,7 hPa 0,0 mm 10,1 km/h (2 Bft) NO 48 ° 0 min 0,000 mm 1,4 UV-I 139 W/m² 5,7 °C 21,8 °C 16,1 km/h (3 Bft)
19.04.2018 17:27 21,8 °C 36 % 1024,7 hPa 0,0 mm 7,8 km/h (2 Bft) O 90 ° 0 min 0,000 mm 1,4 UV-I 118 W/m² 6,1 °C 21,8 °C 14,5 km/h (3 Bft)
19.04.2018 17:28 21,7 °C 36 % 1024,7 hPa 0,0 mm 7,4 km/h (2 Bft) O 92 ° 0 min 0,000 mm 1,3 UV-I 69 W/m² 6,0 °C 21,7 °C 14,5 km/h (3 Bft)
19.04.2018 17:29 21,7 °C 37 % 1024,7 hPa 0,0 mm 4,2 km/h (1 Bft) NO 51 ° 0 min 0,000 mm 1,3 UV-I 62 W/m² 6,4 °C 21,7 °C 11,3 km/h (2 Bft)
19.04.2018 17:30 21,6 °C 38 % 1024,7 hPa 0,0 mm 3,5 km/h (1 Bft) O 83 ° 0 min 0,000 mm 1,3 UV-I 62 W/m² 6,7 °C 21,6 °C 4,8 km/h (1 Bft)
19.04.2018 17:31 21,6 °C 37 % 1024,6 hPa 0,0 mm 3,6 km/h (1 Bft) O 86 ° 0 min 0,000 mm 1,3 UV-I 63 W/m² 6,3 °C 21,6 °C 6,4 km/h (2 Bft)
19.04.2018 17:32 21,6 °C 37 % 1024,6 hPa 0,0 mm 6,5 km/h (2 Bft) N-NO 32 ° 0 min 0,000 mm 1,3 UV-I 125 W/m² 6,3 °C 21,6 °C 8,0 km/h (2 Bft)
19.04.2018 17:33 21,7 °C 37 % 1024,7 hPa 0,0 mm 4,0 km/h (1 Bft) NO 51 ° 0 min 0,000 mm 1,4 UV-I 176 W/m² 6,4 °C 21,7 °C 11,3 km/h (2 Bft)
19.04.2018 17:34 21,7 °C 37 % 1024,6 hPa 0,0 mm 6,6 km/h (2 Bft) O-NO 71 ° 0 min 0,000 mm 1,4 UV-I 155 W/m² 6,4 °C 21,7 °C 9,7 km/h (2 Bft)
19.04.2018 17:35 21,7 °C 37 % 1024,6 hPa 0,0 mm 10,7 km/h (2 Bft) O-NO 61 ° 0 min 0,000 mm 1,4 UV-I 148 W/m² 6,4 °C 21,7 °C 16,1 km/h (3 Bft)
19.04.2018 17:36 21,7 °C 35 % 1024,6 hPa 0,0 mm 7,0 km/h (2 Bft) O-NO 61 ° 0 min 0,000 mm 1,4 UV-I 199 W/m² 5,6 °C 21,7 °C 14,5 km/h (3 Bft)
19.04.2018 17:37 21,7 °C 35 % 1024,6 hPa 0,0 mm 6,6 km/h (2 Bft) O-NO 63 ° 0 min 0,000 mm 1,4 UV-I 209 W/m² 5,6 °C 21,7 °C 11,3 km/h (2 Bft)
19.04.2018 17:38 21,7 °C 38 % 1024,6 hPa 0,0 mm 6,4 km/h (2 Bft) O-NO 66 ° 0 min 0,000 mm 1,4 UV-I 141 W/m² 6,8 °C 21,7 °C 8,0 km/h (2 Bft)
19.04.2018 17:39 21,6 °C 38 % 1024,6 hPa 0,0 mm 7,2 km/h (2 Bft) O 98 ° 0 min 0,000 mm 1,3 UV-I 139 W/m² 6,7 °C 21,6 °C 12,9 km/h (3 Bft)
19.04.2018 17:40 21,6 °C 37 % 1024,6 hPa 0,0 mm 6,8 km/h (2 Bft) NO 47 ° 0 min 0,000 mm 1,3 UV-I 183 W/m² 6,3 °C 21,6 °C 11,3 km/h (2 Bft)
19.04.2018 17:41 21,6 °C 37 % 1024,6 hPa 0,0 mm 8,9 km/h (2 Bft) O 88 ° 0 min 0,000 mm 1,3 UV-I 176 W/m² 6,3 °C 21,6 °C 12,9 km/h (3 Bft)
19.04.2018 17:42 21,6 °C 37 % 1024,6 hPa 0,0 mm 9,4 km/h (2 Bft) N-NO 32 ° 0 min 0,000 mm 1,3 UV-I 134 W/m² 6,3 °C 21,6 °C 12,9 km/h (3 Bft)
19.04.2018 17:43 21,6 °C 35 % 1024,6 hPa 0,0 mm 9,5 km/h (2 Bft) NO 34 ° 0 min 0,000 mm 1,2 UV-I 77 W/m² 5,5 °C 21,6 °C 14,5 km/h (3 Bft)
19.04.2018 17:44 21,6 °C 36 % 1024,6 hPa 0,0 mm 8,5 km/h (2 Bft) NO 44 ° 0 min 0,000 mm 1,2 UV-I 60 W/m² 5,9 °C 21,6 °C 14,5 km/h (3 Bft)
19.04.2018 17:45 21,6 °C 35 % 1024,6 hPa 0,0 mm 6,8 km/h (2 Bft) O-NO 58 ° 0 min 0,000 mm 1,2 UV-I 60 W/m² 5,5 °C 21,6 °C 14,5 km/h (3 Bft)
19.04.2018 17:46 21,5 °C 37 % 1024,6 hPa 0,0 mm 8,2 km/h (2 Bft) O-NO 63 ° 0 min 0,000 mm 1,2 UV-I 60 W/m² 6,2 °C 21,5 °C 14,5 km/h (3 Bft)
19.04.2018 17:47 21,4 °C 36 % 1024,6 hPa 0,0 mm 6,6 km/h (2 Bft) NO 44 ° 0 min 0,000 mm 1,2 UV-I 63 W/m² 5,7 °C 21,4 °C 9,7 km/h (2 Bft)
19.04.2018 17:48 21,5 °C 35 % 1024,6 hPa 0,0 mm 11,1 km/h (2 Bft) NO 46 ° 0 min 0,000 mm 1,2 UV-I 109 W/m² 5,4 °C 21,5 °C 22,5 km/h (4 Bft)
19.04.2018 17:49 21,4 °C 36 % 1024,6 hPa 0,0 mm 6,6 km/h (2 Bft) O-NO 68 ° 0 min 0,000 mm 1,2 UV-I 172 W/m² 5,7 °C 21,4 °C 12,9 km/h (3 Bft)
19.04.2018 17:50 21,4 °C 35 % 1024,7 hPa 0,0 mm 10,8 km/h (2 Bft) O-NO 63 ° 0 min 0,000 mm 1,2 UV-I 158 W/m² 5,3 °C 21,4 °C 14,5 km/h (3 Bft)
19.04.2018 17:51 21,4 °C 35 % 1024,6 hPa 0,0 mm 6,4 km/h (2 Bft) N 360 ° 0 min 0,000 mm 1,2 UV-I 176 W/m² 5,3 °C 21,4 °C 9,7 km/h (2 Bft)
19.04.2018 17:52 21,4 °C 37 % 1024,6 hPa 0,0 mm 5,6 km/h (1 Bft) NO 40 ° 0 min 0,000 mm 1,2 UV-I 160 W/m² 6,1 °C 21,4 °C 9,7 km/h (2 Bft)
19.04.2018 17:53 21,4 °C 37 % 1024,6 hPa 0,0 mm 8,0 km/h (2 Bft) O 90 ° 0 min 0,000 mm 1,1 UV-I 93 W/m² 6,1 °C 21,4 °C 16,1 km/h (3 Bft)
19.04.2018 17:54 21,4 °C 37 % 1024,7 hPa 0,0 mm 7,9 km/h (2 Bft) NO 46 ° 0 min 0,000 mm 1,1 UV-I 60 W/m² 6,1 °C 21,4 °C 14,5 km/h (3 Bft)
19.04.2018 17:55 21,4 °C 36 % 1024,7 hPa 0,0 mm 3,8 km/h (1 Bft) NO 38 ° 0 min 0,000 mm 1,1 UV-I 72 W/m² 5,7 °C 21,4 °C 8,0 km/h (2 Bft)
19.04.2018 17:56 21,4 °C 38 % 1024,6 hPa 0,0 mm 5,8 km/h (2 Bft) N-NO 30 ° 0 min 0,000 mm 1,2 UV-I 179 W/m² 6,5 °C 21,4 °C 8,0 km/h (2 Bft)
19.04.2018 17:57 21,5 °C 37 % 1024,6 hPa 0,0 mm 4,8 km/h (1 Bft) O-NO 76 ° 0 min 0,000 mm 1,2 UV-I 162 W/m² 6,2 °C 21,5 °C 8,0 km/h (2 Bft)
19.04.2018 17:58 21,4 °C 41 % 1024,7 hPa 0,0 mm 5,7 km/h (1 Bft) N-NO 32 ° 0 min 0,000 mm 1,1 UV-I 105 W/m² 7,6 °C 21,4 °C 9,7 km/h (2 Bft)
19.04.2018 17:59 21,4 °C 36 % 1024,6 hPa 0,0 mm 10,0 km/h (2 Bft) NO 39 ° 0 min 0,000 mm 1,1 UV-I 77 W/m² 5,7 °C 21,4 °C 16,1 km/h (3 Bft)
19.04.2018 18:00 21,4 °C 37 % 1024,7 hPa 0,0 mm 8,1 km/h (2 Bft) O-NO 76 ° 0 min 0,000 mm 1,0 UV-I 58 W/m² 6,1 °C 21,4 °C 14,5 km/h (3 Bft)
19.04.2018 18:01 21,4 °C 37 % 1024,7 hPa 0,0 mm 8,3 km/h (2 Bft) N-NO 30 ° 0 min 0,152 mm 1,0 UV-I 58 W/m² 6,1 °C 21,4 °C 11,3 km/h (2 Bft)
19.04.2018 18:02 21,4 °C 37 % 1024,7 hPa 0,0 mm 6,0 km/h (2 Bft) NO 43 ° 0 min 0,000 mm 1,0 UV-I 58 W/m² 6,1 °C 21,4 °C 9,7 km/h (2 Bft)
19.04.2018 18:03 21,4 °C 37 % 1024,6 hPa 0,0 mm 9,5 km/h (2 Bft) NO 51 ° 0 min 0,000 mm 1,0 UV-I 60 W/m² 6,1 °C 21,4 °C 14,5 km/h (3 Bft)
19.04.2018 18:04 21,4 °C 36 % 1024,6 hPa 0,0 mm 7,8 km/h (2 Bft) O 82 ° 0 min 0,000 mm 1,0 UV-I 72 W/m² 5,7 °C 21,4 °C 11,3 km/h (2 Bft)
19.04.2018 18:05 21,4 °C 37 % 1024,6 hPa 0,0 mm 5,4 km/h (1 Bft) NO 43 ° 0 min 0,000 mm 1,0 UV-I 69 W/m² 6,1 °C 21,4 °C 8,0 km/h (2 Bft)
19.04.2018 18:06 21,4 °C 37 % 1024,7 hPa 0,0 mm 6,2 km/h (2 Bft) N-NO 22 ° 0 min 0,000 mm 1,0 UV-I 104 W/m² 6,1 °C 21,4 °C 9,7 km/h (2 Bft)
19.04.2018 18:07 21,4 °C 36 % 1024,6 hPa 0,0 mm 7,4 km/h (2 Bft) NO 34 ° 0 min 0,000 mm 1,1 UV-I 105 W/m² 5,7 °C 21,4 °C 11,3 km/h (2 Bft)
19.04.2018 18:08 21,4 °C 37 % 1024,7 hPa 0,0 mm 5,0 km/h (1 Bft) O-NO 58 ° 0 min 0,000 mm 1,0 UV-I 111 W/m² 6,1 °C 21,4 °C 8,0 km/h (2 Bft)
19.04.2018 18:09 21,4 °C 43 % 1024,7 hPa 0,0 mm 5,1 km/h (1 Bft) O 80 ° 0 min 0,000 mm 1,0 UV-I 142 W/m² 8,3 °C 21,4 °C 6,4 km/h (2 Bft)
19.04.2018 18:10 21,3 °C 41 % 1024,7 hPa 0,0 mm 4,0 km/h (1 Bft) O-NO 67 ° 0 min 0,000 mm 1,0 UV-I 130 W/m² 7,5 °C 21,3 °C 6,4 km/h (2 Bft)
19.04.2018 18:11 21,3 °C 39 % 1024,7 hPa 0,0 mm 5,5 km/h (1 Bft) O-NO 74 ° 0 min 0,000 mm 1,0 UV-I 105 W/m² 6,8 °C 21,3 °C 9,7 km/h (2 Bft)
19.04.2018 18:12 21,2 °C 42 % 1024,7 hPa 0,0 mm 5,6 km/h (1 Bft) O-NO 62 ° 0 min 0,000 mm 0,9 UV-I 116 W/m² 7,8 °C 21,2 °C 8,0 km/h (2 Bft)
19.04.2018 18:13 21,1 °C 40 % 1024,7 hPa 0,0 mm 7,5 km/h (2 Bft) O-NO 76 ° 0 min 0,000 mm 0,9 UV-I 77 W/m² 7,0 °C 21,1 °C 12,9 km/h (3 Bft)
19.04.2018 18:14 21,0 °C 42 % 1024,7 hPa 0,0 mm 9,1 km/h (2 Bft) O 80 ° 0 min 0,000 mm 0,9 UV-I 58 W/m² 7,6 °C 21,0 °C 12,9 km/h (3 Bft)
19.04.2018 18:15 20,9 °C 38 % 1024,8 hPa 0,0 mm 8,1 km/h (2 Bft) O 89 ° 0 min 0,000 mm 0,9 UV-I 56 W/m² 6,0 °C 20,9 °C 12,9 km/h (3 Bft)
19.04.2018 18:16 21,0 °C 38 % 1024,7 hPa 0,0 mm 6,7 km/h (2 Bft) O-NO 71 ° 0 min 0,000 mm 0,9 UV-I 56 W/m² 6,1 °C 21,0 °C 11,3 km/h (2 Bft)
19.04.2018 18:17 21,0 °C 37 % 1024,6 hPa 0,0 mm 7,6 km/h (2 Bft) NO 55 ° 0 min 0,000 mm 0,9 UV-I 56 W/m² 5,8 °C 21,0 °C 14,5 km/h (3 Bft)
19.04.2018 18:18 21,0 °C 39 % 1024,6 hPa 0,0 mm 6,0 km/h (2 Bft) O-NO 75 ° 0 min 0,000 mm 0,0 UV-I 54 W/m² 6,5 °C 21,0 °C 12,9 km/h (3 Bft)
19.04.2018 18:19 20,9 °C 43 % 1024,7 hPa 0,0 mm 4,6 km/h (1 Bft) O 99 ° 0 min 0,000 mm 0,0 UV-I 53 W/m² 7,8 °C 20,9 °C 6,4 km/h (2 Bft)
19.04.2018 18:20 20,8 °C 43 % 1024,6 hPa 0,0 mm 7,7 km/h (2 Bft) O-NO 74 ° 0 min 0,000 mm 0,0 UV-I 54 W/m² 7,8 °C 20,8 °C 12,9 km/h (3 Bft)
19.04.2018 18:21 20,7 °C 41 % 1024,6 hPa 0,0 mm 3,4 km/h (1 Bft) O 82 ° 0 min 0,000 mm 0,0 UV-I 54 W/m² 7,0 °C 20,7 °C 4,8 km/h (1 Bft)
19.04.2018 18:22 20,6 °C 43 % 1024,7 hPa 0,0 mm 4,6 km/h (1 Bft) NO 46 ° 0 min 0,000 mm 0,0 UV-I 53 W/m² 7,6 °C 20,6 °C 6,4 km/h (2 Bft)
19.04.2018 18:23 20,5 °C 41 % 1024,7 hPa 0,0 mm 3,1 km/h (1 Bft) O 80 ° 0 min 0,000 mm 0,0 UV-I 53 W/m² 6,8 °C 20,5 °C 6,4 km/h (2 Bft)
19.04.2018 18:24 20,5 °C 41 % 1024,6 hPa 0,0 mm 4,8 km/h (1 Bft) O-NO 71 ° 0 min 0,000 mm 0,0 UV-I 53 W/m² 6,8 °C 20,5 °C 9,7 km/h (2 Bft)
19.04.2018 18:25 20,6 °C 41 % 1024,6 hPa 0,0 mm 7,0 km/h (2 Bft) O-NO 58 ° 0 min 0,000 mm 0,8 UV-I 69 W/m² 6,9 °C 20,6 °C 9,7 km/h (2 Bft)
19.04.2018 18:26 20,6 °C 40 % 1024,6 hPa 0,0 mm 4,9 km/h (1 Bft) O-NO 57 ° 0 min 0,000 mm 0,8 UV-I 67 W/m² 6,5 °C 20,6 °C 9,7 km/h (2 Bft)
19.04.2018 18:27 20,5 °C 43 % 1024,6 hPa 0,0 mm 10,0 km/h (2 Bft) NO 39 ° 0 min 0,000 mm 0,8 UV-I 62 W/m² 7,5 °C 20,5 °C 14,5 km/h (3 Bft)
19.04.2018 18:28 20,5 °C 39 % 1024,6 hPa 0,0 mm 6,6 km/h (2 Bft) O-NO 67 ° 0 min 0,000 mm 0,8 UV-I 56 W/m² 6,1 °C 20,5 °C 8,0 km/h (2 Bft)
19.04.2018 18:29 20,6 °C 39 % 1024,7 hPa 0,0 mm 6,1 km/h (2 Bft) O-NO 71 ° 0 min 0,000 mm 0,8 UV-I 56 W/m² 6,2 °C 20,6 °C 9,7 km/h (2 Bft)
19.04.2018 18:30 20,6 °C 40 % 1024,7 hPa 0,0 mm 5,3 km/h (1 Bft) O-NO 66 ° 0 min 0,000 mm 0,0 UV-I 54 W/m² 6,5 °C 20,6 °C 8,0 km/h (2 Bft)
19.04.2018 18:31 20,6 °C 42 % 1024,7 hPa 0,0 mm 3,1 km/h (1 Bft) O-NO 71 ° 0 min 0,000 mm 0,0 UV-I 63 W/m² 7,2 °C 20,6 °C 6,4 km/h (2 Bft)
19.04.2018 18:32 20,6 °C 42 % 1024,7 hPa 0,0 mm 1,7 km/h (1 Bft) O-NO 71 ° 0 min 0,000 mm 0,7 UV-I 69 W/m² 7,2 °C 20,6 °C 4,8 km/h (1 Bft)
19.04.2018 18:33 20,6 °C 41 % 1024,7 hPa 0,0 mm 1,5 km/h (1 Bft) O-NO 71 ° 0 min 0,000 mm 0,7 UV-I 72 W/m² 6,9 °C 20,6 °C 4,8 km/h (1 Bft)
19.04.2018 18:34 20,5 °C 42 % 1024,6 hPa 0,0 mm 1,4 km/h (1 Bft) O-NO 71 ° 0 min 0,000 mm 0,7 UV-I 65 W/m² 7,1 °C 20,5 °C 3,2 km/h (1 Bft)
19.04.2018 18:35 20,5 °C 42 % 1024,7 hPa 0,0 mm 3,6 km/h (1 Bft) O-NO 68 ° 0 min 0,000 mm 0,7 UV-I 65 W/m² 7,1 °C 20,5 °C 8,0 km/h (2 Bft)
19.04.2018 18:36 20,4 °C 42 % 1024,7 hPa 0,0 mm 5,0 km/h (1 Bft) NO 51 ° 0 min 0,000 mm 0,7 UV-I 60 W/m² 7,1 °C 20,4 °C 9,7 km/h (2 Bft)
19.04.2018 18:37 20,5 °C 42 % 1024,6 hPa 0,0 mm 6,8 km/h (2 Bft) O-NO 69 ° 0 min 0,000 mm 0,7 UV-I 53 W/m² 7,1 °C 20,5 °C 11,3 km/h (2 Bft)
19.04.2018 18:38 20,4 °C 42 % 1024,7 hPa 0,0 mm 6,9 km/h (2 Bft) O-NO 70 ° 0 min 0,000 mm 0,0 UV-I 51 W/m² 7,1 °C 20,4 °C 16,1 km/h (3 Bft)
19.04.2018 18:39 20,4 °C 43 % 1024,7 hPa 0,0 mm 8,3 km/h (2 Bft) NO 42 ° 0 min 0,000 mm 0,7 UV-I 56 W/m² 7,4 °C 20,4 °C 12,9 km/h (3 Bft)
19.04.2018 18:40 20,6 °C 38 % 1024,7 hPa 0,0 mm 7,0 km/h (2 Bft) NO 35 ° 0 min 0,000 mm 0,0 UV-I 54 W/m² 5,8 °C 20,6 °C 12,9 km/h (3 Bft)
19.04.2018 18:41 20,5 °C 41 % 1024,7 hPa 0,0 mm 7,8 km/h (2 Bft) O-NO 68 ° 0 min 0,000 mm 0,6 UV-I 69 W/m² 6,8 °C 20,5 °C 12,9 km/h (3 Bft)
19.04.2018 18:42 20,4 °C 40 % 1024,7 hPa 0,0 mm 7,1 km/h (2 Bft) O-NO 72 ° 0 min 0,000 mm 0,6 UV-I 142 W/m² 6,3 °C 20,4 °C 11,3 km/h (2 Bft)
19.04.2018 18:43 20,5 °C 40 % 1024,6 hPa 0,0 mm 2,7 km/h (1 Bft) O-NO 60 ° 0 min 0,000 mm 0,6 UV-I 132 W/m² 6,4 °C 20,5 °C 4,8 km/h (1 Bft)
19.04.2018 18:44 20,5 °C 40 % 1024,6 hPa 0,0 mm 5,2 km/h (1 Bft) N-NO 32 ° 0 min 0,000 mm 0,6 UV-I 113 W/m² 6,4 °C 20,5 °C 8,0 km/h (2 Bft)
19.04.2018 18:45 20,4 °C 42 % 1024,6 hPa 0,0 mm 3,6 km/h (1 Bft) N-NO 28 ° 0 min 0,000 mm 0,6 UV-I 90 W/m² 7,1 °C 20,4 °C 8,0 km/h (2 Bft)
19.04.2018 18:46 20,3 °C 46 % 1024,6 hPa 0,0 mm 5,3 km/h (1 Bft) NO 35 ° 0 min 0,000 mm 0,6 UV-I 60 W/m² 8,3 °C 20,3 °C 8,0 km/h (2 Bft)
19.04.2018 18:47 20,2 °C 42 % 1024,6 hPa 0,0 mm 8,2 km/h (2 Bft) O-NO 72 ° 0 min 0,000 mm 0,0 UV-I 49 W/m² 6,9 °C 20,2 °C 12,9 km/h (3 Bft)
19.04.2018 18:48 20,1 °C 44 % 1024,6 hPa 0,0 mm 3,0 km/h (1 Bft) O 79 ° 0 min 0,000 mm 0,0 UV-I 47 W/m² 7,5 °C 20,1 °C 6,4 km/h (2 Bft)
19.04.2018 18:49 20,1 °C 42 % 1024,6 hPa 0,0 mm 1,7 km/h (1 Bft) O 79 ° 0 min 0,000 mm 0,0 UV-I 54 W/m² 6,8 °C 20,1 °C 3,2 km/h (1 Bft)
19.04.2018 18:50 20,1 °C 42 % 1024,6 hPa 0,0 mm 1,2 km/h (1 Bft) O 79 ° 0 min 0,000 mm 0,6 UV-I 90 W/m² 6,8 °C 20,1 °C 6,4 km/h (2 Bft)
19.04.2018 18:51 20,1 °C 45 % 1024,6 hPa 0,0 mm 5,3 km/h (1 Bft) O-NO 59 ° 0 min 0,000 mm 0,6 UV-I 113 W/m² 7,8 °C 20,1 °C 8,0 km/h (2 Bft)
19.04.2018 18:52 20,0 °C 44 % 1024,6 hPa 0,0 mm 3,0 km/h (1 Bft) O-NO 59 ° 0 min 0,000 mm 0,5 UV-I 118 W/m² 7,4 °C 20,0 °C 4,8 km/h (1 Bft)
19.04.2018 18:53 20,1 °C 41 % 1024,6 hPa 0,0 mm 0,1 km/h (0 Bft) O-NO 59 ° 0 min 0,000 mm 0,5 UV-I 120 W/m² 6,4 °C 20,1 °C 1,6 km/h (1 Bft)
19.04.2018 18:54 20,0 °C 45 % 1024,6 hPa 0,0 mm 5,9 km/h (2 Bft) NO 51 ° 0 min 0,000 mm 0,5 UV-I 116 W/m² 7,7 °C 20,0 °C 9,7 km/h (2 Bft)
19.04.2018 18:55 19,9 °C 44 % 1024,6 hPa 0,0 mm 5,6 km/h (1 Bft) O 80 ° 0 min 0,000 mm 0,5 UV-I 116 W/m² 7,3 °C 19,9 °C 6,4 km/h (2 Bft)
19.04.2018 18:56 19,8 °C 44 % 1024,6 hPa 0,0 mm 3,7 km/h (1 Bft) O 80 ° 0 min 0,000 mm 0,5 UV-I 109 W/m² 7,2 °C 19,8 °C 6,4 km/h (2 Bft)
19.04.2018 18:57 19,7 °C 44 % 1024,6 hPa 0,0 mm 2,0 km/h (1 Bft) O 80 ° 0 min 0,000 mm 0,5 UV-I 98 W/m² 7,1 °C 19,7 °C 4,8 km/h (1 Bft)
19.04.2018 18:58 19,8 °C 45 % 1024,6 hPa 0,0 mm 2,5 km/h (1 Bft) O 84 ° 0 min 0,000 mm 0,5 UV-I 84 W/m² 7,5 °C 19,8 °C 4,8 km/h (1 Bft)
19.04.2018 18:59 19,7 °C 43 % 1024,6 hPa 0,0 mm 2,7 km/h (1 Bft) O 84 ° 0 min 0,000 mm 0,5 UV-I 79 W/m² 6,8 °C 19,7 °C 4,8 km/h (1 Bft)
19.04.2018 19:00 19,6 °C 44 % 1024,6 hPa 0,0 mm 2,6 km/h (1 Bft) NO 40 ° 0 min 0,102 mm 0,5 UV-I 91 W/m² 7,0 °C 19,6 °C 4,8 km/h (1 Bft)
19.04.2018 19:01 19,6 °C 44 % 1024,6 hPa 0,0 mm 3,5 km/h (1 Bft) NO 41 ° 0 min 0,000 mm 0,5 UV-I 91 W/m² 7,0 °C 19,6 °C 6,4 km/h (2 Bft)
19.04.2018 19:02 19,6 °C 45 % 1024,6 hPa 0,0 mm 4,1 km/h (1 Bft) O-NO 64 ° 0 min 0,000 mm 0,0 UV-I 97 W/m² 7,3 °C 19,6 °C 8,0 km/h (2 Bft)
19.04.2018 19:03 19,6 °C 44 % 1024,6 hPa 0,0 mm 3,8 km/h (1 Bft) O-NO 71 ° 0 min 0,000 mm 0,0 UV-I 90 W/m² 7,0 °C 19,6 °C 6,4 km/h (2 Bft)
19.04.2018 19:04 19,5 °C 44 % 1024,6 hPa 0,0 mm 4,3 km/h (1 Bft) O-NO 76 ° 0 min 0,000 mm 0,0 UV-I 86 W/m² 6,9 °C 19,5 °C 6,4 km/h (2 Bft)
19.04.2018 19:05 19,4 °C 43 % 1024,6 hPa 0,0 mm 3,6 km/h (1 Bft) O 92 ° 0 min 0,000 mm 0,0 UV-I 91 W/m² 6,5 °C 19,4 °C 6,4 km/h (2 Bft)
19.04.2018 19:06 19,4 °C 43 % 1024,6 hPa 0,0 mm 4,6 km/h (1 Bft) O-NO 71 ° 0 min 0,000 mm 0,0 UV-I 88 W/m² 6,5 °C 19,4 °C 6,4 km/h (2 Bft)
19.04.2018 19:07 19,4 °C 44 % 1024,6 hPa 0,0 mm 4,1 km/h (1 Bft) O 82 ° 0 min 0,000 mm 0,0 UV-I 86 W/m² 6,8 °C 19,4 °C 4,8 km/h (1 Bft)
19.04.2018 19:08 19,3 °C 44 % 1024,6 hPa 0,0 mm 4,6 km/h (1 Bft) NO 49 ° 0 min 0,000 mm 0,0 UV-I 86 W/m² 6,7 °C 19,3 °C 8,0 km/h (2 Bft)
19.04.2018 19:09 19,3 °C 46 % 1024,6 hPa 0,0 mm 3,7 km/h (1 Bft) O 80 ° 0 min 0,000 mm 0,0 UV-I 86 W/m² 7,4 °C 19,3 °C 8,0 km/h (2 Bft)
19.04.2018 19:10 19,3 °C 44 % 1024,5 hPa 0,0 mm 2,7 km/h (1 Bft) O-NO 78 ° 0 min 0,000 mm 0,0 UV-I 84 W/m² 6,7 °C 19,3 °C 6,4 km/h (2 Bft)
19.04.2018 19:11 19,2 °C 46 % 1024,6 hPa 0,0 mm 1,6 km/h (1 Bft) O-NO 78 ° 0 min 0,000 mm 0,0 UV-I 77 W/m² 7,3 °C 19,2 °C 4,8 km/h (1 Bft)
19.04.2018 19:12 19,1 °C 46 % 1024,6 hPa 0,0 mm 1,4 km/h (1 Bft) O-NO 78 ° 0 min 0,000 mm 0,0 UV-I 74 W/m² 7,2 °C 19,1 °C 4,8 km/h (1 Bft)
19.04.2018 19:13 19,1 °C 46 % 1024,6 hPa 0,0 mm 4,5 km/h (1 Bft) O-NO 63 ° 0 min 0,000 mm 0,0 UV-I 70 W/m² 7,2 °C 19,1 °C 6,4 km/h (2 Bft)
19.04.2018 19:14 19,0 °C 44 % 1024,6 hPa 0,0 mm 3,2 km/h (1 Bft) O 81 ° 0 min 0,000 mm 0,0 UV-I 63 W/m² 6,5 °C 19,0 °C 4,8 km/h (1 Bft)
19.04.2018 19:15 19,0 °C 44 % 1024,6 hPa 0,0 mm 0,4 km/h (0 Bft) O 81 ° 0 min 0,000 mm 0,0 UV-I 58 W/m² 6,5 °C 19,0 °C 3,2 km/h (1 Bft)
19.04.2018 19:16 18,9 °C 47 % 1024,6 hPa 0,0 mm 1,7 km/h (1 Bft) O 81 ° 0 min 0,000 mm 0,0 UV-I 56 W/m² 7,3 °C 18,9 °C 3,2 km/h (1 Bft)
19.04.2018 19:17 18,8 °C 49 % 1024,6 hPa 0,0 mm 0,5 km/h (0 Bft) O 81 ° 0 min 0,000 mm 0,0 UV-I 56 W/m² 7,9 °C 18,8 °C 1,6 km/h (1 Bft)
19.04.2018 19:18 18,6 °C 46 % 1024,6 hPa 0,0 mm 1,5 km/h (1 Bft) O-NO 61 ° 0 min 0,000 mm 0,0 UV-I 60 W/m² 6,8 °C 18,6 °C 4,8 km/h (1 Bft)
19.04.2018 19:19 18,4 °C 48 % 1024,6 hPa 0,0 mm 2,4 km/h (1 Bft) O 90 ° 0 min 0,000 mm 0,0 UV-I 58 W/m² 7,2 °C 18,4 °C 4,8 km/h (1 Bft)
19.04.2018 19:20 18,4 °C 46 % 1024,6 hPa 0,0 mm 1,3 km/h (1 Bft) O 90 ° 0 min 0,000 mm 0,0 UV-I 54 W/m² 6,6 °C 18,4 °C 3,2 km/h (1 Bft)
19.04.2018 19:21 18,3 °C 47 % 1024,6 hPa 0,0 mm 0,8 km/h (0 Bft) O 90 ° 0 min 0,000 mm 0,0 UV-I 53 W/m² 6,8 °C 18,3 °C 1,6 km/h (1 Bft)
19.04.2018 19:22 18,4 °C 47 % 1024,6 hPa 0,0 mm 0,4 km/h (0 Bft) O 90 ° 0 min 0,000 mm 0,0 UV-I 51 W/m² 6,9 °C 18,4 °C 1,6 km/h (1 Bft)
19.04.2018 19:23 18,3 °C 46 % 1024,6 hPa 0,0 mm 0,7 km/h (0 Bft) O 90 ° 0 min 0,000 mm 0,0 UV-I 51 W/m² 6,5 °C 18,3 °C 3,2 km/h (1 Bft)
19.04.2018 19:24 18,3 °C 47 % 1024,6 hPa 0,0 mm 0,2 km/h (0 Bft) O 90 ° 0 min 0,000 mm 0,0 UV-I 47 W/m² 6,8 °C 18,3 °C 1,6 km/h (1 Bft)
19.04.2018 19:25 18,2 °C 46 % 1024,6 hPa 0,0 mm 0,5 km/h (0 Bft) O 90 ° 0 min 0,000 mm 0,0 UV-I 47 W/m² 6,4 °C 18,2 °C 1,6 km/h (1 Bft)
19.04.2018 19:26 18,1 °C 47 % 1024,7 hPa 0,0 mm 0,5 km/h (0 Bft) O 90 ° 0 min 0,000 mm 0,0 UV-I 47 W/m² 6,6 °C 18,1 °C 1,6 km/h (1 Bft)
19.04.2018 19:27 18,1 °C 48 % 1024,6 hPa 0,0 mm 0,0 km/h (0 Bft) O 90 ° 0 min 0,000 mm 0,0 UV-I 46 W/m² 6,9 °C 18,1 °C 0,0 km/h (0 Bft)
19.04.2018 19:28 18,1 °C 45 % 1024,7 hPa 0,0 mm 0,0 km/h (0 Bft) O 90 ° 0 min 0,000 mm 0,0 UV-I 44 W/m² 6,0 °C 18,1 °C 0,0 km/h (0 Bft)
19.04.2018 19:29 18,0 °C 49 % 1024,7 hPa 0,0 mm 0,6 km/h (0 Bft) O 90 ° 0 min 0,000 mm 0,0 UV-I 42 W/m² 7,1 °C 18,0 °C 3,2 km/h (1 Bft)
19.04.2018 19:30 17,8 °C 48 % 1024,6 hPa 0,0 mm 0,8 km/h (0 Bft) O 90 ° 0 min 0,000 mm 0,0 UV-I 40 W/m² 6,6 °C 17,8 °C 1,6 km/h (1 Bft)
19.04.2018 19:31 17,8 °C 48 % 1024,6 hPa 0,0 mm 0,5 km/h (0 Bft) O 90 ° 0 min 0,000 mm 0,0 UV-I 39 W/m² 6,6 °C 17,8 °C 1,6 km/h (1 Bft)
19.04.2018 19:32 17,8 °C 47 % 1024,6 hPa 0,0 mm 0,0 km/h (0 Bft) O 90 ° 0 min 0,000 mm 0,0 UV-I 37 W/m² 6,3 °C 17,8 °C 0,0 km/h (0 Bft)
19.04.2018 19:33 17,8 °C 46 % 1024,6 hPa 0,0 mm 0,0 km/h (0 Bft) O 90 ° 0 min 0,000 mm 0,0 UV-I 35 W/m² 6,0 °C 17,8 °C 0,0 km/h (0 Bft)
19.04.2018 19:34 17,8 °C 51 % 1024,6 hPa 0,0 mm 0,3 km/h (0 Bft) O 90 ° 0 min 0,000 mm 0,0 UV-I 35 W/m² 7,5 °C 17,8 °C 1,6 km/h (1 Bft)
19.04.2018 19:35 17,7 °C 48 % 1024,7 hPa 0,0 mm 0,9 km/h (0 Bft) O 90 ° 0 min 0,000 mm 0,0 UV-I 32 W/m² 6,6 °C 17,7 °C 3,2 km/h (1 Bft)
19.04.2018 19:36 17,7 °C 47 % 1024,7 hPa 0,0 mm 0,6 km/h (0 Bft) O 90 ° 0 min 0,000 mm 0,0 UV-I 32 W/m² 6,2 °C 17,7 °C 3,2 km/h (1 Bft)
19.04.2018 19:37 17,8 °C 47 % 1024,7 hPa 0,0 mm 0,5 km/h (0 Bft) O 90 ° 0 min 0,000 mm 0,0 UV-I 30 W/m² 6,3 °C 17,8 °C 1,6 km/h (1 Bft)
19.04.2018 19:38 17,8 °C 48 % 1024,7 hPa 0,0 mm 0,1 km/h (0 Bft) O 90 ° 0 min 0,000 mm 0,0 UV-I 28 W/m² 6,6 °C 17,8 °C 1,6 km/h (1 Bft)
19.04.2018 19:39 17,8 °C 46 % 1024,7 hPa 0,0 mm 0,1 km/h (0 Bft) O 90 ° 0 min 0,000 mm 0,0 UV-I 28 W/m² 6,0 °C 17,8 °C 1,6 km/h (1 Bft)
19.04.2018 19:40 17,9 °C 48 % 1024,7 hPa 0,0 mm 2,9 km/h (1 Bft) O 90 ° 0 min 0,000 mm 0,0 UV-I 26 W/m² 6,7 °C 17,9 °C 4,8 km/h (1 Bft)
19.04.2018 19:41 17,9 °C 47 % 1024,7 hPa 0,0 mm 0,0 km/h (0 Bft) O 90 ° 0 min 0,000 mm 0,0 UV-I 25 W/m² 6,4 °C 17,9 °C 0,0 km/h (0 Bft)
19.04.2018 19:42 17,8 °C 51 % 1024,7 hPa 0,0 mm 0,0 km/h (0 Bft) O 90 ° 0 min 0,000 mm 0,0 UV-I 23 W/m² 7,5 °C 17,8 °C 0,0 km/h (0 Bft)
19.04.2018 19:43 17,6 °C 49 % 1024,7 hPa 0,0 mm 1,3 km/h (1 Bft) O 90 ° 0 min 0,000 mm 0,0 UV-I 21 W/m² 6,8 °C 17,6 °C 3,2 km/h (1 Bft)
19.04.2018 19:44 17,4 °C 48 % 1024,7 hPa 0,0 mm 1,3 km/h (1 Bft) O 91 ° 0 min 0,000 mm 0,0 UV-I 21 W/m² 6,3 °C 17,4 °C 3,2 km/h (1 Bft)
19.04.2018 19:45 17,4 °C 50 % 1024,7 hPa 0,0 mm 1,0 km/h (0 Bft) O 91 ° 0 min 0,000 mm 0,0 UV-I 19 W/m² 6,9 °C 17,4 °C 3,2 km/h (1 Bft)
19.04.2018 19:46 17,5 °C 48 % 1024,7 hPa 0,0 mm 2,9 km/h (1 Bft) O 92 ° 0 min 0,000 mm 0,0 UV-I 19 W/m² 6,4 °C 17,5 °C 4,8 km/h (1 Bft)
19.04.2018 19:47 17,5 °C 49 % 1024,7 hPa 0,0 mm 3,3 km/h (1 Bft) O 93 ° 0 min 0,000 mm 0,0 UV-I 18 W/m² 6,7 °C 17,5 °C 4,8 km/h (1 Bft)
19.04.2018 19:48 17,6 °C 49 % 1024,7 hPa 0,0 mm 1,9 km/h (1 Bft) O 93 ° 0 min 0,000 mm 0,0 UV-I 18 W/m² 6,8 °C 17,6 °C 3,2 km/h (1 Bft)
19.04.2018 19:49 17,6 °C 50 % 1024,8 hPa 0,0 mm 1,9 km/h (1 Bft) SO 134 ° 0 min 0,000 mm 0,0 UV-I 16 W/m² 7,1 °C 17,6 °C 3,2 km/h (1 Bft)
19.04.2018 19:50 17,5 °C 49 % 1024,7 hPa 0,0 mm 2,4 km/h (1 Bft) SO 134 ° 0 min 0,000 mm 0,0 UV-I 16 W/m² 6,7 °C 17,5 °C 4,8 km/h (1 Bft)
19.04.2018 19:51 17,4 °C 50 % 1024,8 hPa 0,0 mm 0,7 km/h (0 Bft) SO 134 ° 0 min 0,000 mm 0,0 UV-I 14 W/m² 6,9 °C 17,4 °C 1,6 km/h (1 Bft)
19.04.2018 19:52 17,2 °C 51 % 1024,8 hPa 0,0 mm 1,0 km/h (0 Bft) SO 134 ° 0 min 0,000 mm 0,0 UV-I 14 W/m² 7,0 °C 17,2 °C 3,2 km/h (1 Bft)
19.04.2018 19:53 17,3 °C 50 % 1024,7 hPa 0,0 mm 0,2 km/h (0 Bft) SO 134 ° 0 min 0,000 mm 0,0 UV-I 14 W/m² 6,8 °C 17,3 °C 1,6 km/h (1 Bft)
19.04.2018 19:54 17,3 °C 50 % 1024,8 hPa 0,0 mm 0,7 km/h (0 Bft) SO 134 ° 0 min 0,000 mm 0,0 UV-I 12 W/m² 6,8 °C 17,3 °C 3,2 km/h (1 Bft)
19.04.2018 19:55 17,3 °C 51 % 1024,8 hPa 0,0 mm 1,1 km/h (1 Bft) SO 134 ° 0 min 0,000 mm 0,0 UV-I 12 W/m² 7,1 °C 17,3 °C 3,2 km/h (1 Bft)
19.04.2018 19:56 17,2 °C 50 % 1024,8 hPa 0,0 mm 1,5 km/h (1 Bft) SO 134 ° 0 min 0,000 mm 0,0 UV-I 12 W/m² 6,7 °C 17,2 °C 3,2 km/h (1 Bft)
19.04.2018 19:57 17,1 °C 51 % 1024,8 hPa 0,0 mm 1,8 km/h (1 Bft) SO 134 ° 0 min 0,000 mm 0,0 UV-I 11 W/m² 6,9 °C 17,1 °C 3,2 km/h (1 Bft)
19.04.2018 19:58 17,1 °C 50 % 1024,8 hPa 0,0 mm 0,6 km/h (0 Bft) SO 134 ° 0 min 0,000 mm 0,0 UV-I 11 W/m² 6,6 °C 17,1 °C 1,6 km/h (1 Bft)
19.04.2018 19:59 17,1 °C 51 % 1024,8 hPa 0,0 mm 1,2 km/h (1 Bft) SO 134 ° 0 min 0,000 mm 0,0 UV-I 9 W/m² 6,9 °C 17,1 °C 3,2 km/h (1 Bft)
19.04.2018 20:00 17,0 °C 51 % 1024,8 hPa 0,0 mm 0,6 km/h (0 Bft) SO 134 ° 0 min 0,000 mm 0,0 UV-I 9 W/m² 6,8 °C 17,0 °C 1,6 km/h (1 Bft)
19.04.2018 20:01 16,9 °C 52 % 1024,8 hPa 0,0 mm 0,2 km/h (0 Bft) SO 134 ° 0 min 0,051 mm 0,0 UV-I 9 W/m² 7,0 °C 16,9 °C 1,6 km/h (1 Bft)
19.04.2018 20:02 16,8 °C 53 % 1024,8 hPa 0,0 mm 0,0 km/h (0 Bft) SO 134 ° 0 min 0,000 mm 0,0 UV-I 9 W/m² 7,2 °C 16,8 °C 0,0 km/h (0 Bft)
19.04.2018 20:03 16,8 °C 52 % 1024,9 hPa 0,0 mm 0,0 km/h (0 Bft) SO 134 ° 0 min 0,000 mm 0,0 UV-I 7 W/m² 6,9 °C 16,8 °C 0,0 km/h (0 Bft)
19.04.2018 20:04 16,8 °C 52 % 1024,8 hPa 0,0 mm 0,0 km/h (0 Bft) SO 134 ° 0 min 0,000 mm 0,0 UV-I 7 W/m² 6,9 °C 16,8 °C 0,0 km/h (0 Bft)
19.04.2018 20:05 16,6 °C 53 % 1024,8 hPa 0,0 mm 0,3 km/h (0 Bft) SO 134 ° 0 min 0,000 mm 0,0 UV-I 7 W/m² 7,0 °C 16,6 °C 1,6 km/h (1 Bft)
19.04.2018 20:06 16,3 °C 55 % 1024,9 hPa 0,0 mm 0,0 km/h (0 Bft) SO 134 ° 0 min 0,000 mm 0,0 UV-I 5 W/m² 7,2 °C 16,3 °C 0,0 km/h (0 Bft)
19.04.2018 20:07 16,0 °C 55 % 1024,9 hPa 0,0 mm 0,0 km/h (0 Bft) SO 134 ° 0 min 0,000 mm 0,0 UV-I 5 W/m² 7,0 °C 16,0 °C 0,0 km/h (0 Bft)
19.04.2018 20:08 15,6 °C 56 % 1024,9 hPa 0,0 mm 0,0 km/h (0 Bft) SO 134 ° 0 min 0,000 mm 0,0 UV-I 5 W/m² 6,9 °C 15,6 °C 0,0 km/h (0 Bft)
19.04.2018 20:09 15,5 °C 57 % 1024,8 hPa 0,0 mm 0,0 km/h (0 Bft) SO 134 ° 0 min 0,000 mm 0,0 UV-I 5 W/m² 7,0 °C 15,5 °C 0,0 km/h (0 Bft)
19.04.2018 20:10 15,3 °C 58 % 1024,9 hPa 0,0 mm 0,0 km/h (0 Bft) SO 134 ° 0 min 0,000 mm 0,0 UV-I 5 W/m² 7,1 °C 15,3 °C 0,0 km/h (0 Bft)
19.04.2018 20:11 15,3 °C 58 % 1024,9 hPa 0,0 mm 0,0 km/h (0 Bft) SO 134 ° 0 min 0,000 mm 0,0 UV-I 0 W/m² 7,1 °C 15,3 °C 0,0 km/h (0 Bft)
19.04.2018 20:12 15,3 °C 57 % 1024,9 hPa 0,0 mm 0,0 km/h (0 Bft) SO 134 ° 0 min 0,000 mm 0,0 UV-I 0 W/m² 6,8 °C 15,3 °C 0,0 km/h (0 Bft)
19.04.2018 20:13 15,1 °C 59 % 1024,9 hPa 0,0 mm 0,0 km/h (0 Bft) SO 134 ° 0 min 0,000 mm 0,0 UV-I 0 W/m² 7,1 °C 15,1 °C 0,0 km/h (0 Bft)
19.04.2018 20:14 15,0 °C 58 % 1024,9 hPa 0,0 mm 0,0 km/h (0 Bft) SO 134 ° 0 min 0,000 mm 0,0 UV-I 0 W/m² 6,8 °C 15,0 °C 0,0 km/h (0 Bft)
19.04.2018 20:15 15,2 °C 57 % 1024,9 hPa 0,0 mm 0,0 km/h (0 Bft) SO 134 ° 0 min 0,000 mm 0,0 UV-I 0 W/m² 6,7 °C 15,2 °C 0,0 km/h (0 Bft)
19.04.2018 20:16 15,4 °C 57 % 1024,9 hPa 0,0 mm 0,0 km/h (0 Bft) SO 134 ° 0 min 0,000 mm 0,0 UV-I 0 W/m² 6,9 °C 15,4 °C 0,0 km/h (0 Bft)
19.04.2018 20:17 15,7 °C 56 % 1024,9 hPa 0,0 mm 0,3 km/h (0 Bft) SO 134 ° 0 min 0,000 mm 0,0 UV-I 0 W/m² 6,9 °C 15,7 °C 1,6 km/h (1 Bft)
19.04.2018 20:18 15,9 °C 55 % 1024,9 hPa 0,0 mm 1,1 km/h (1 Bft) SO 134 ° 0 min 0,000 mm 0,0 UV-I 0 W/m² 6,9 °C 15,9 °C 1,6 km/h (1 Bft)
19.04.2018 20:19 16,0 °C 55 % 1024,9 hPa 0,0 mm 0,0 km/h (0 Bft) SO 134 ° 0 min 0,000 mm 0,0 UV-I 0 W/m² 7,0 °C 16,0 °C 0,0 km/h (0 Bft)
19.04.2018 20:20 16,1 °C 55 % 1024,9 hPa 0,0 mm 0,0 km/h (0 Bft) SO 134 ° 0 min 0,000 mm 0,0 UV-I 0 W/m² 7,1 °C 16,1 °C 0,0 km/h (0 Bft)
19.04.2018 20:21 16,1 °C 56 % 1024,9 hPa 0,0 mm 0,3 km/h (0 Bft) SO 134 ° 0 min 0,000 mm 0,0 UV-I 0 W/m² 7,3 °C 16,1 °C 1,6 km/h (1 Bft)
19.04.2018 20:22 16,1 °C 55 % 1024,9 hPa 0,0 mm 0,4 km/h (0 Bft) SO 134 ° 0 min 0,000 mm 0,0 UV-I 0 W/m² 7,1 °C 16,1 °C 1,6 km/h (1 Bft)
19.04.2018 20:23 16,1 °C 55 % 1024,9 hPa 0,0 mm 0,4 km/h (0 Bft) SO 134 ° 0 min 0,000 mm 0,0 UV-I 0 W/m² 7,1 °C 16,1 °C 1,6 km/h (1 Bft)
19.04.2018 20:24 16,1 °C 55 % 1024,9 hPa 0,0 mm 1,4 km/h (1 Bft) SO 134 ° 0 min 0,000 mm 0,0 UV-I 0 W/m² 7,1 °C 16,1 °C 3,2 km/h (1 Bft)
19.04.2018 20:25 16,2 °C 55 % 1024,9 hPa 0,0 mm 1,0 km/h (0 Bft) SO 134 ° 0 min 0,000 mm 0,0 UV-I 0 W/m² 7,2 °C 16,2 °C 3,2 km/h (1 Bft)
19.04.2018 20:26 16,2 °C 54 % 1024,9 hPa 0,0 mm 0,8 km/h (0 Bft) SO 134 ° 0 min 0,000 mm 0,0 UV-I 0 W/m² 6,9 °C 16,2 °C 3,2 km/h (1 Bft)
19.04.2018 20:27 16,0 °C 55 % 1024,9 hPa 0,0 mm 0,2 km/h (0 Bft) SO 134 ° 0 min 0,000 mm 0,0 UV-I 0 W/m² 7,0 °C 16,0 °C 1,6 km/h (1 Bft)
19.04.2018 20:28 16,0 °C 55 % 1024,9 hPa 0,0 mm 0,2 km/h (0 Bft) SO 134 ° 0 min 0,000 mm 0,0 UV-I 0 W/m² 7,0 °C 16,0 °C 1,6 km/h (1 Bft)
19.04.2018 20:29 15,9 °C 56 % 1025,0 hPa 0,0 mm 0,8 km/h (0 Bft) SO 134 ° 0 min 0,000 mm 0,0 UV-I 0 W/m² 7,1 °C 15,9 °C 3,2 km/h (1 Bft)
19.04.2018 20:30 15,9 °C 55 % 1025,0 hPa 0,0 mm 1,1 km/h (1 Bft) SO 134 ° 0 min 0,000 mm 0,0 UV-I 0 W/m² 6,9 °C 15,9 °C 1,6 km/h (1 Bft)
19.04.2018 20:31 15,9 °C 55 % 1025,0 hPa 0,0 mm 0,3 km/h (0 Bft) SO 134 ° 0 min 0,000 mm 0,0 UV-I 0 W/m² 6,9 °C 15,9 °C 1,6 km/h (1 Bft)
19.04.2018 20:32 15,8 °C 57 % 1025,0 hPa 0,0 mm 0,0 km/h (0 Bft) SO 134 ° 0 min 0,000 mm 0,0 UV-I 0 W/m² 7,3 °C 15,8 °C 0,0 km/h (0 Bft)
19.04.2018 20:33 15,7 °C 56 % 1025,0 hPa 0,0 mm 0,0 km/h (0 Bft) SO 134 ° 0 min 0,000 mm 0,0 UV-I 0 W/m² 6,9 °C 15,7 °C 0,0 km/h (0 Bft)
19.04.2018 20:34 15,4 °C 58 % 1025,0 hPa 0,0 mm 0,0 km/h (0 Bft) SO 134 ° 0 min 0,000 mm 0,0 UV-I 0 W/m² 7,2 °C 15,4 °C 0,0 km/h (0 Bft)
19.04.2018 20:35 15,1 °C 59 % 1025,0 hPa 0,0 mm 0,0 km/h (0 Bft) SO 134 ° 0 min 0,000 mm 0,0 UV-I 0 W/m² 7,1 °C 15,1 °C 0,0 km/h (0 Bft)
19.04.2018 20:36 14,7 °C 60 % 1025,1 hPa 0,0 mm 0,0 km/h (0 Bft) SO 134 ° 0 min 0,000 mm 0,0 UV-I 0 W/m² 7,0 °C 14,7 °C 0,0 km/h (0 Bft)
19.04.2018 20:37 14,5 °C 61 % 1025,1 hPa 0,0 mm 0,0 km/h (0 Bft) SO 134 ° 0 min 0,000 mm 0,0 UV-I 0 W/m² 7,1 °C 14,5 °C 0,0 km/h (0 Bft)
19.04.2018 20:38 14,3 °C 62 % 1025,1 hPa 0,0 mm 0,0 km/h (0 Bft) SO 134 ° 0 min 0,000 mm 0,0 UV-I 0 W/m² 7,1 °C 14,3 °C 0,0 km/h (0 Bft)
19.04.2018 20:39 14,2 °C 62 % 1025,1 hPa 0,0 mm 0,0 km/h (0 Bft) SO 134 ° 0 min 0,000 mm 0,0 UV-I 0 W/m² 7,0 °C 14,2 °C 0,0 km/h (0 Bft)
19.04.2018 20:40 14,0 °C 63 % 1025,1 hPa 0,0 mm 0,0 km/h (0 Bft) SO 134 ° 0 min 0,000 mm 0,0 UV-I 0 W/m² 7,1 °C 14,0 °C 0,0 km/h (0 Bft)
19.04.2018 20:41 13,8 °C 63 % 1025,1 hPa 0,0 mm 0,0 km/h (0 Bft) SO 134 ° 0 min 0,000 mm 0,0 UV-I 0 W/m² 6,9 °C 13,8 °C 0,0 km/h (0 Bft)
19.04.2018 20:42 13,8 °C 64 % 1025,1 hPa 0,0 mm 0,0 km/h (0 Bft) SO 134 ° 0 min 0,000 mm 0,0 UV-I 0 W/m² 7,1 °C 13,8 °C 0,0 km/h (0 Bft)
19.04.2018 20:43 13,8 °C 64 % 1025,1 hPa 0,0 mm 0,0 km/h (0 Bft) SO 134 ° 0 min 0,000 mm 0,0 UV-I 0 W/m² 7,1 °C 13,8 °C 0,0 km/h (0 Bft)
19.04.2018 20:44 13,8 °C 64 % 1025,1 hPa 0,0 mm 0,0 km/h (0 Bft) SO 134 ° 0 min 0,000 mm 0,0 UV-I 0 W/m² 7,1 °C 13,8 °C 0,0 km/h (0 Bft)
19.04.2018 20:45 13,8 °C 64 % 1025,1 hPa 0,0 mm 0,0 km/h (0 Bft) SO 134 ° 0 min 0,000 mm 0,0 UV-I 0 W/m² 7,1 °C 13,8 °C 0,0 km/h (0 Bft)
19.04.2018 20:46 14,0 °C 63 % 1025,1 hPa 0,0 mm 0,0 km/h (0 Bft) SO 134 ° 0 min 0,000 mm 0,0 UV-I 0 W/m² 7,1 °C 14,0 °C 0,0 km/h (0 Bft)
19.04.2018 20:47 14,0 °C 63 % 1025,1 hPa 0,0 mm 0,0 km/h (0 Bft) SO 134 ° 0 min 0,000 mm 0,0 UV-I 0 W/m² 7,1 °C 14,0 °C 0,0 km/h (0 Bft)
19.04.2018 20:48 13,9 °C 63 % 1025,1 hPa 0,0 mm 0,0 km/h (0 Bft) SO 134 ° 0 min 0,000 mm 0,0 UV-I 0 W/m² 7,0 °C 13,9 °C 0,0 km/h (0 Bft)
19.04.2018 20:49 13,8 °C 65 % 1025,1 hPa 0,0 mm 0,0 km/h (0 Bft) SO 134 ° 0 min 0,000 mm 0,0 UV-I 0 W/m² 7,3 °C 13,8 °C 0,0 km/h (0 Bft)
19.04.2018 20:50 13,7 °C 64 % 1025,2 hPa 0,0 mm 0,0 km/h (0 Bft) SO 134 ° 0 min 0,000 mm 0,0 UV-I 0 W/m² 7,0 °C 13,7 °C 0,0 km/h (0 Bft)
19.04.2018 20:51 13,7 °C 64 % 1025,2 hPa 0,0 mm 0,0 km/h (0 Bft) SO 134 ° 0 min 0,000 mm 0,0 UV-I 0 W/m² 7,0 °C 13,7 °C 0,0 km/h (0 Bft)
19.04.2018 20:52 13,5 °C 64 % 1025,2 hPa 0,0 mm 0,0 km/h (0 Bft) SO 134 ° 0 min 0,000 mm 0,0 UV-I 0 W/m² 6,8 °C 13,5 °C 0,0 km/h (0 Bft)
19.04.2018 20:53 13,4 °C 65 % 1025,2 hPa 0,0 mm 0,0 km/h (0 Bft) SO 134 ° 0 min 0,000 mm 0,0 UV-I 0 W/m² 7,0 °C 13,4 °C 0,0 km/h (0 Bft)
19.04.2018 20:54 13,3 °C 65 % 1025,2 hPa 0,0 mm 0,0 km/h (0 Bft) SO 134 ° 0 min 0,000 mm 0,0 UV-I 0 W/m² 6,9 °C 13,3 °C 0,0 km/h (0 Bft)
19.04.2018 20:55 13,3 °C 65 % 1025,2 hPa 0,0 mm 0,0 km/h (0 Bft) SO 134 ° 0 min 0,000 mm 0,0 UV-I 0 W/m² 6,9 °C 13,3 °C 0,0 km/h (0 Bft)
19.04.2018 20:56 13,2 °C 66 % 1025,2 hPa 0,0 mm 0,0 km/h (0 Bft) SO 134 ° 0 min 0,000 mm 0,0 UV-I 0 W/m² 7,0 °C 13,2 °C 0,0 km/h (0 Bft)
19.04.2018 20:57 13,1 °C 66 % 1025,2 hPa 0,0 mm 0,0 km/h (0 Bft) SO 134 ° 0 min 0,000 mm 0,0 UV-I 0 W/m² 6,9 °C 13,1 °C 0,0 km/h (0 Bft)
19.04.2018 20:58 13,1 °C 66 % 1025,2 hPa 0,0 mm 0,0 km/h (0 Bft) SO 134 ° 0 min 0,000 mm 0,0 UV-I 0 W/m² 6,9 °C 13,1 °C 0,0 km/h (0 Bft)
19.04.2018 20:59 13,1 °C 66 % 1025,2 hPa 0,0 mm 0,0 km/h (0 Bft) SO 134 ° 0 min 0,000 mm 0,0 UV-I 0 W/m² 6,9 °C 13,1 °C 0,0 km/h (0 Bft)
19.04.2018 21:00 12,9 °C 66 % 1025,1 hPa 0,0 mm 0,0 km/h (0 Bft) SO 134 ° 0 min 0,000 mm 0,0 UV-I 0 W/m² 6,7 °C 12,9 °C 0,0 km/h (0 Bft)
19.04.2018 21:01 12,9 °C 67 % 1025,2 hPa 0,0 mm 0,0 km/h (0 Bft) SO 134 ° 0 min 0,000 mm 0,0 UV-I 0 W/m² 6,9 °C 12,9 °C 0,0 km/h (0 Bft)
19.04.2018 21:02 12,9 °C 67 % 1025,2 hPa 0,0 mm 0,0 km/h (0 Bft) SO 134 ° 0 min 0,000 mm 0,0 UV-I 0 W/m² 6,9 °C 12,9 °C 0,0 km/h (0 Bft)
19.04.2018 21:03 12,8 °C 67 % 1025,2 hPa 0,0 mm 0,0 km/h (0 Bft) SO 134 ° 0 min 0,000 mm 0,0 UV-I 0 W/m² 6,8 °C 12,8 °C 0,0 km/h (0 Bft)
19.04.2018 21:04 12,8 °C 67 % 1025,2 hPa 0,0 mm 0,0 km/h (0 Bft) SO 134 ° 0 min 0,000 mm 0,0 UV-I 0 W/m² 6,8 °C 12,8 °C 0,0 km/h (0 Bft)
19.04.2018 21:05 12,8 °C 67 % 1025,2 hPa 0,0 mm 0,0 km/h (0 Bft) SO 134 ° 0 min 0,000 mm 0,0 UV-I 0 W/m² 6,8 °C 12,8 °C 0,0 km/h (0 Bft)
19.04.2018 21:06 12,7 °C 68 % 1025,2 hPa 0,0 mm 0,0 km/h (0 Bft) SO 134 ° 0 min 0,000 mm 0,0 UV-I 0 W/m² 6,9 °C 12,7 °C 0,0 km/h (0 Bft)
19.04.2018 21:07 12,7 °C 67 % 1025,2 hPa 0,0 mm 0,0 km/h (0 Bft) SO 134 ° 0 min 0,000 mm 0,0 UV-I 0 W/m² 6,7 °C 12,7 °C 0,0 km/h (0 Bft)
19.04.2018 21:08 12,6 °C 68 % 1025,2 hPa 0,0 mm 0,0 km/h (0 Bft) SO 134 ° 0 min 0,000 mm 0,0 UV-I 0 W/m² 6,9 °C 12,6 °C 0,0 km/h (0 Bft)
19.04.2018 21:09 12,6 °C 68 % 1025,2 hPa 0,0 mm 0,0 km/h (0 Bft) SO 134 ° 0 min 0,000 mm 0,0 UV-I 0 W/m² 6,9 °C 12,6 °C 0,0 km/h (0 Bft)
19.04.2018 21:10 12,6 °C 69 % 1025,2 hPa 0,0 mm 0,0 km/h (0 Bft) SO 134 ° 0 min 0,000 mm 0,0 UV-I 0 W/m² 7,1 °C 12,6 °C 0,0 km/h (0 Bft)
19.04.2018 21:11 12,5 °C 68 % 1025,2 hPa 0,0 mm 0,0 km/h (0 Bft) SO 134 ° 0 min 0,000 mm 0,0 UV-I 0 W/m² 6,8 °C 12,5 °C 0,0 km/h (0 Bft)
19.04.2018 21:12 12,5 °C 68 % 1025,2 hPa 0,0 mm 0,0 km/h (0 Bft) SO 134 ° 0 min 0,000 mm 0,0 UV-I 0 W/m² 6,8 °C 12,5 °C 0,0 km/h (0 Bft)
19.04.2018 21:13 12,5 °C 68 % 1025,2 hPa 0,0 mm 0,0 km/h (0 Bft) SO 134 ° 0 min 0,000 mm 0,0 UV-I 0 W/m² 6,8 °C 12,5 °C 0,0 km/h (0 Bft)
19.04.2018 21:14 12,5 °C 68 % 1025,2 hPa 0,0 mm 0,0 km/h (0 Bft) SO 134 ° 0 min 0,000 mm 0,0 UV-I 0 W/m² 6,8 °C 12,5 °C 0,0 km/h (0 Bft)
19.04.2018 21:15 12,6 °C 68 % 1025,2 hPa 0,0 mm 0,0 km/h (0 Bft) SO 134 ° 0 min 0,000 mm 0,0 UV-I 0 W/m² 6,9 °C 12,6 °C 0,0 km/h (0 Bft)
19.04.2018 21:16 12,6 °C 68 % 1025,2 hPa 0,0 mm 0,0 km/h (0 Bft) SO 134 ° 0 min 0,000 mm 0,0 UV-I 0 W/m² 6,9 °C 12,6 °C 0,0 km/h (0 Bft)
19.04.2018 21:17 12,7 °C 68 % 1025,2 hPa 0,0 mm 0,0 km/h (0 Bft) SO 134 ° 0 min 0,000 mm 0,0 UV-I 0 W/m² 6,9 °C 12,7 °C 0,0 km/h (0 Bft)
19.04.2018 21:18 12,7 °C 67 % 1025,2 hPa 0,0 mm 0,0 km/h (0 Bft) SO 134 ° 0 min 0,000 mm 0,0 UV-I 0 W/m² 6,7 °C 12,7 °C 0,0 km/h (0 Bft)
19.04.2018 21:19 12,5 °C 68 % 1025,2 hPa 0,0 mm 0,0 km/h (0 Bft) SO 134 ° 0 min 0,000 mm 0,0 UV-I 0 W/m² 6,8 °C 12,5 °C 0,0 km/h (0 Bft)
19.04.2018 21:20 12,4 °C 68 % 1025,3 hPa 0,0 mm 0,0 km/h (0 Bft) SO 134 ° 0 min 0,000 mm 0,0 UV-I 0 W/m² 6,7 °C 12,4 °C 0,0 km/h (0 Bft)
19.04.2018 21:21 12,3 °C 69 % 1025,2 hPa 0,0 mm 0,0 km/h (0 Bft) SO 134 ° 0 min 0,000 mm 0,0 UV-I 0 W/m² 6,8 °C 12,3 °C 0,0 km/h (0 Bft)
19.04.2018 21:22 12,2 °C 70 % 1025,3 hPa 0,0 mm 0,0 km/h (0 Bft) SO 134 ° 0 min 0,000 mm 0,0 UV-I 0 W/m² 6,9 °C 12,2 °C 0,0 km/h (0 Bft)
19.04.2018 21:23 12,3 °C 69 % 1025,3 hPa 0,0 mm 0,0 km/h (0 Bft) SO 134 ° 0 min 0,000 mm 0,0 UV-I 0 W/m² 6,8 °C 12,3 °C 0,0 km/h (0 Bft)
19.04.2018 21:24 12,5 °C 68 % 1025,3 hPa 0,0 mm 0,0 km/h (0 Bft) SO 134 ° 0 min 0,000 mm 0,0 UV-I 0 W/m² 6,8 °C 12,5 °C 0,0 km/h (0 Bft)
19.04.2018 21:25 12,6 °C 68 % 1025,2 hPa 0,0 mm 0,0 km/h (0 Bft) SO 134 ° 0 min 0,000 mm 0,0 UV-I 0 W/m² 6,9 °C 12,6 °C 0,0 km/h (0 Bft)
19.04.2018 21:26 12,5 °C 68 % 1025,3 hPa 0,0 mm 0,0 km/h (0 Bft) SO 134 ° 0 min 0,000 mm 0,0 UV-I 0 W/m² 6,8 °C 12,5 °C 0,0 km/h (0 Bft)
19.04.2018 21:27 12,3 °C 68 % 1025,3 hPa 0,0 mm 0,0 km/h (0 Bft) SO 134 ° 0 min 0,000 mm 0,0 UV-I 0 W/m² 6,6 °C 12,3 °C 0,0 km/h (0 Bft)
19.04.2018 21:28 12,1 °C 69 % 1025,3 hPa 0,0 mm 0,0 km/h (0 Bft) SO 134 ° 0 min 0,000 mm 0,0 UV-I 0 W/m² 6,6 °C 12,1 °C 0,0 km/h (0 Bft)
19.04.2018 21:29 11,9 °C 70 % 1025,2 hPa 0,0 mm 0,0 km/h (0 Bft) SO 134 ° 0 min 0,000 mm 0,0 UV-I 0 W/m² 6,6 °C 11,9 °C 0,0 km/h (0 Bft)
19.04.2018 21:30 11,9 °C 70 % 1025,2 hPa 0,0 mm 0,0 km/h (0 Bft) SO 134 ° 0 min 0,000 mm 0,0 UV-I 0 W/m² 6,6 °C 11,9 °C 0,0 km/h (0 Bft)
19.04.2018 21:31 11,8 °C 70 % 1025,3 hPa 0,0 mm 0,0 km/h (0 Bft) SO 134 ° 0 min 0,000 mm 0,0 UV-I 0 W/m² 6,5 °C 11,8 °C 0,0 km/h (0 Bft)
19.04.2018 21:32 11,8 °C 70 % 1025,3 hPa 0,0 mm 0,0 km/h (0 Bft) SO 134 ° 0 min 0,000 mm 0,0 UV-I 0 W/m² 6,5 °C 11,8 °C 0,0 km/h (0 Bft)
19.04.2018 21:33 11,8 °C 70 % 1025,3 hPa 0,0 mm 0,0 km/h (0 Bft) SO 134 ° 0 min 0,000 mm 0,0 UV-I 0 W/m² 6,5 °C 11,8 °C 0,0 km/h (0 Bft)
19.04.2018 21:34 11,7 °C 71 % 1025,4 hPa 0,0 mm 0,0 km/h (0 Bft) SO 134 ° 0 min 0,000 mm 0,0 UV-I 0 W/m² 6,6 °C 11,7 °C 0,0 km/h (0 Bft)
19.04.2018 21:35 11,7 °C 71 % 1025,3 hPa 0,0 mm 0,0 km/h (0 Bft) SO 134 ° 0 min 0,000 mm 0,0 UV-I 0 W/m² 6,6 °C 11,7 °C 0,0 km/h (0 Bft)
19.04.2018 21:36 11,6 °C 72 % 1025,3 hPa 0,0 mm 0,0 km/h (0 Bft) SO 134 ° 0 min 0,000 mm 0,0 UV-I 0 W/m² 6,7 °C 11,6 °C 0,0 km/h (0 Bft)
19.04.2018 21:37 11,5 °C 72 % 1025,3 hPa 0,0 mm 0,0 km/h (0 Bft) SO 134 ° 0 min 0,000 mm 0,0 UV-I 0 W/m² 6,6 °C 11,5 °C 0,0 km/h (0 Bft)
19.04.2018 21:38 11,5 °C 72 % 1025,4 hPa 0,0 mm 0,0 km/h (0 Bft) SO 134 ° 0 min 0,000 mm 0,0 UV-I 0 W/m² 6,6 °C 11,5 °C 0,0 km/h (0 Bft)
19.04.2018 21:39 11,6 °C 71 % 1025,3 hPa 0,0 mm 0,0 km/h (0 Bft) SO 134 ° 0 min 0,000 mm 0,0 UV-I 0 W/m² 6,5 °C 11,6 °C 0,0 km/h (0 Bft)
19.04.2018 21:40 11,6 °C 71 % 1025,3 hPa 0,0 mm 0,0 km/h (0 Bft) SO 134 ° 0 min 0,000 mm 0,0 UV-I 0 W/m² 6,5 °C 11,6 °C 0,0 km/h (0 Bft)
19.04.2018 21:41 11,6 °C 71 % 1025,3 hPa 0,0 mm 0,0 km/h (0 Bft) SO 134 ° 0 min 0,000 mm 0,0 UV-I 0 W/m² 6,5 °C 11,6 °C 0,0 km/h (0 Bft)
19.04.2018 21:42 11,5 °C 71 % 1025,3 hPa 0,0 mm 0,0 km/h (0 Bft) SO 134 ° 0 min 0,000 mm 0,0 UV-I 0 W/m² 6,4 °C 11,5 °C 0,0 km/h (0 Bft)
19.04.2018 21:43 11,4 °C 72 % 1025,3 hPa 0,0 mm 0,0 km/h (0 Bft) SO 134 ° 0 min 0,000 mm 0,0 UV-I 0 W/m² 6,5 °C 11,4 °C 0,0 km/h (0 Bft)
19.04.2018 21:44 11,4 °C 72 % 1025,3 hPa 0,0 mm 0,0 km/h (0 Bft) SO 134 ° 0 min 0,000 mm 0,0 UV-I 0 W/m² 6,5 °C 11,4 °C 0,0 km/h (0 Bft)
19.04.2018 21:45 11,4 °C 71 % 1025,3 hPa 0,0 mm 0,0 km/h (0 Bft) SO 134 ° 0 min 0,000 mm 0,0 UV-I 0 W/m² 6,3 °C 11,4 °C 0,0 km/h (0 Bft)
19.04.2018 21:46 11,4 °C 71 % 1025,3 hPa 0,0 mm 0,0 km/h (0 Bft) SO 134 ° 0 min 0,000 mm 0,0 UV-I 0 W/m² 6,3 °C 11,4 °C 0,0 km/h (0 Bft)
19.04.2018 21:47 11,4 °C 71 % 1025,3 hPa 0,0 mm 0,0 km/h (0 Bft) SO 134 ° 0 min 0,000 mm 0,0 UV-I 0 W/m² 6,3 °C 11,4 °C 0,0 km/h (0 Bft)
19.04.2018 21:48 11,4 °C 72 % 1025,3 hPa 0,0 mm 0,0 km/h (0 Bft) SO 134 ° 0 min 0,000 mm 0,0 UV-I 0 W/m² 6,5 °C 11,4 °C 0,0 km/h (0 Bft)
19.04.2018 21:49 11,4 °C 72 % 1025,3 hPa 0,0 mm 0,0 km/h (0 Bft) SO 134 ° 0 min 0,000 mm 0,0 UV-I 0 W/m² 6,5 °C 11,4 °C 0,0 km/h (0 Bft)
19.04.2018 21:50 11,3 °C 72 % 1025,3 hPa 0,0 mm 0,0 km/h (0 Bft) SO 134 ° 0 min 0,000 mm 0,0 UV-I 0 W/m² 6,4 °C 11,3 °C 0,0 km/h (0 Bft)
19.04.2018 21:51 11,3 °C 73 % 1025,3 hPa 0,0 mm 0,0 km/h (0 Bft) SO 134 ° 0 min 0,000 mm 0,0 UV-I 0 W/m² 6,6 °C 11,3 °C 0,0 km/h (0 Bft)
19.04.2018 21:52 11,2 °C 72 % 1025,3 hPa 0,0 mm 0,0 km/h (0 Bft) SO 134 ° 0 min 0,000 mm 0,0 UV-I 0 W/m² 6,3 °C 11,2 °C 0,0 km/h (0 Bft)
19.04.2018 21:53 11,2 °C 72 % 1025,3 hPa 0,0 mm 0,0 km/h (0 Bft) SO 134 ° 0 min 0,000 mm 0,0 UV-I 0 W/m² 6,3 °C 11,2 °C 0,0 km/h (0 Bft)
19.04.2018 21:54 11,2 °C 72 % 1025,3 hPa 0,0 mm 0,0 km/h (0 Bft) SO 134 ° 0 min 0,000 mm 0,0 UV-I 0 W/m² 6,3 °C 11,2 °C 0,0 km/h (0 Bft)
19.04.2018 21:55 11,1 °C 73 % 1025,3 hPa 0,0 mm 0,0 km/h (0 Bft) SO 134 ° 0 min 0,000 mm 0,0 UV-I 0 W/m² 6,4 °C 11,1 °C 0,0 km/h (0 Bft)
19.04.2018 21:56 11,1 °C 73 % 1025,3 hPa 0,0 mm 0,0 km/h (0 Bft) SO 134 ° 0 min 0,000 mm 0,0 UV-I 0 W/m² 6,4 °C 11,1 °C 0,0 km/h (0 Bft)
19.04.2018 21:57 11,0 °C 73 % 1025,3 hPa 0,0 mm 0,0 km/h (0 Bft) SO 134 ° 0 min 0,000 mm 0,0 UV-I 0 W/m² 6,4 °C 11,0 °C 0,0 km/h (0 Bft)
19.04.2018 21:58 11,0 °C 73 % 1025,3 hPa 0,0 mm 0,0 km/h (0 Bft) SO 134 ° 0 min 0,000 mm 0,0 UV-I 0 W/m² 6,4 °C 11,0 °C 0,0 km/h (0 Bft)
19.04.2018 21:59 10,9 °C 73 % 1025,3 hPa 0,0 mm 0,0 km/h (0 Bft) SO 134 ° 0 min 0,000 mm 0,0 UV-I 0 W/m² 6,3 °C 10,9 °C 0,0 km/h (0 Bft)
19.04.2018 22:00 10,9 °C 74 % 1025,3 hPa 0,0 mm 0,0 km/h (0 Bft) SO 134 ° 0 min 0,000 mm 0,0 UV-I 0 W/m² 6,5 °C 10,9 °C 0,0 km/h (0 Bft)
19.04.2018 22:01 10,8 °C 73 % 1025,3 hPa 0,0 mm 0,0 km/h (0 Bft) SO 134 ° 0 min 0,025 mm 0,0 UV-I 0 W/m² 6,2 °C 10,8 °C 0,0 km/h (0 Bft)
19.04.2018 22:02 10,8 °C 74 % 1025,3 hPa 0,0 mm 0,0 km/h (0 Bft) SO 134 ° 0 min 0,000 mm 0,0 UV-I 0 W/m² 6,4 °C 10,8 °C 0,0 km/h (0 Bft)
19.04.2018 22:03 10,9 °C 74 % 1025,3 hPa 0,0 mm 0,0 km/h (0 Bft) SO 134 ° 0 min 0,000 mm 0,0 UV-I 0 W/m² 6,5 °C 10,9 °C 0,0 km/h (0 Bft)
19.04.2018 22:04 10,9 °C 74 % 1025,3 hPa 0,0 mm 0,0 km/h (0 Bft) SO 134 ° 0 min 0,000 mm 0,0 UV-I 0 W/m² 6,5 °C 10,9 °C 0,0 km/h (0 Bft)
19.04.2018 22:05 10,9 °C 74 % 1025,3 hPa 0,0 mm 0,0 km/h (0 Bft) SO 134 ° 0 min 0,000 mm 0,0 UV-I 0 W/m² 6,5 °C 10,9 °C 0,0 km/h (0 Bft)
19.04.2018 22:06 10,9 °C 74 % 1025,3 hPa 0,0 mm 0,0 km/h (0 Bft) SO 134 ° 0 min 0,000 mm 0,0 UV-I 0 W/m² 6,5 °C 10,9 °C 0,0 km/h (0 Bft)
19.04.2018 22:07 10,8 °C 74 % 1025,3 hPa 0,0 mm 0,0 km/h (0 Bft) SO 134 ° 0 min 0,000 mm 0,0 UV-I 0 W/m² 6,4 °C 10,8 °C 0,0 km/h (0 Bft)
19.04.2018 22:08 10,8 °C 74 % 1025,3 hPa 0,0 mm 0,0 km/h (0 Bft) SO 134 ° 0 min 0,000 mm 0,0 UV-I 0 W/m² 6,4 °C 10,8 °C 0,0 km/h (0 Bft)
19.04.2018 22:09 10,7 °C 75 % 1025,3 hPa 0,0 mm 0,0 km/h (0 Bft) SO 134 ° 0 min 0,000 mm 0,0 UV-I 0 W/m² 6,5 °C 10,7 °C 0,0 km/h (0 Bft)
19.04.2018 22:10 10,6 °C 75 % 1025,2 hPa 0,0 mm 0,5 km/h (0 Bft) SO 134 ° 0 min 0,000 mm 0,0 UV-I 0 W/m² 6,4 °C 10,6 °C 3,2 km/h (1 Bft)
19.04.2018 22:11 10,4 °C 75 % 1025,2 hPa 0,0 mm 3,5 km/h (1 Bft) SO 134 ° 0 min 0,000 mm 0,0 UV-I 0 W/m² 6,2 °C 10,4 °C 4,8 km/h (1 Bft)
19.04.2018 22:12 10,4 °C 76 % 1025,3 hPa 0,0 mm 2,6 km/h (1 Bft) SO 134 ° 0 min 0,000 mm 0,0 UV-I 0 W/m² 6,4 °C 10,4 °C 6,4 km/h (2 Bft)
19.04.2018 22:13 10,5 °C 76 % 1025,3 hPa 0,0 mm 1,5 km/h (1 Bft) SO 134 ° 0 min 0,000 mm 0,0 UV-I 0 W/m² 6,5 °C 10,5 °C 3,2 km/h (1 Bft)
19.04.2018 22:14 10,6 °C 76 % 1025,3 hPa 0,0 mm 0,0 km/h (0 Bft) SO 134 ° 0 min 0,000 mm 0,0 UV-I 0 W/m² 6,5 °C 10,6 °C 0,0 km/h (0 Bft)
19.04.2018 22:15 10,7 °C 75 % 1025,2 hPa 0,0 mm 0,0 km/h (0 Bft) SO 134 ° 0 min 0,000 mm 0,0 UV-I 0 W/m² 6,5 °C 10,7 °C 0,0 km/h (0 Bft)
19.04.2018 22:16 10,8 °C 75 % 1025,3 hPa 0,0 mm 0,5 km/h (0 Bft) SO 134 ° 0 min 0,000 mm 0,0 UV-I 0 W/m² 6,5 °C 10,8 °C 1,6 km/h (1 Bft)
19.04.2018 22:17 11,0 °C 74 % 1025,3 hPa 0,0 mm 2,2 km/h (1 Bft) SO 134 ° 0 min 0,000 mm 0,0 UV-I 0 W/m² 6,5 °C 11,0 °C 3,2 km/h (1 Bft)
19.04.2018 22:18 11,1 °C 73 % 1025,2 hPa 0,0 mm 0,1 km/h (0 Bft) SO 134 ° 0 min 0,000 mm 0,0 UV-I 0 W/m² 6,4 °C 11,1 °C 1,6 km/h (1 Bft)
19.04.2018 22:19 11,1 °C 73 % 1025,2 hPa 0,0 mm 0,0 km/h (0 Bft) SO 134 ° 0 min 0,000 mm 0,0 UV-I 0 W/m² 6,4 °C 11,1 °C 0,0 km/h (0 Bft)
19.04.2018 22:20 10,9 °C 73 % 1025,2 hPa 0,0 mm 0,0 km/h (0 Bft) SO 134 ° 0 min 0,000 mm 0,0 UV-I 0 W/m² 6,3 °C 10,9 °C 0,0 km/h (0 Bft)
19.04.2018 22:21 10,9 °C 73 % 1025,2 hPa 0,0 mm 0,0 km/h (0 Bft) SO 134 ° 0 min 0,000 mm 0,0 UV-I 0 W/m² 6,3 °C 10,9 °C 0,0 km/h (0 Bft)
19.04.2018 22:22 10,8 °C 74 % 1025,1 hPa 0,0 mm 0,0 km/h (0 Bft) SO 134 ° 0 min 0,000 mm 0,0 UV-I 0 W/m² 6,4 °C 10,8 °C 0,0 km/h (0 Bft)
19.04.2018 22:23 10,8 °C 75 % 1025,1 hPa 0,0 mm 0,0 km/h (0 Bft) SO 134 ° 0 min 0,000 mm 0,0 UV-I 0 W/m² 6,5 °C 10,8 °C 0,0 km/h (0 Bft)
19.04.2018 22:24 10,8 °C 74 % 1025,1 hPa 0,0 mm 0,0 km/h (0 Bft) SO 134 ° 0 min 0,000 mm 0,0 UV-I 0 W/m² 6,4 °C 10,8 °C 0,0 km/h (0 Bft)
19.04.2018 22:25 10,6 °C 74 % 1025,1 hPa 0,0 mm 0,0 km/h (0 Bft) SO 134 ° 0 min 0,000 mm 0,0 UV-I 0 W/m² 6,2 °C 10,6 °C 0,0 km/h (0 Bft)
19.04.2018 22:26 10,3 °C 75 % 1025,1 hPa 0,0 mm 0,0 km/h (0 Bft) SO 134 ° 0 min 0,000 mm 0,0 UV-I 0 W/m² 6,1 °C 10,3 °C 0,0 km/h (0 Bft)
19.04.2018 22:27 10,3 °C 76 % 1025,1 hPa 0,0 mm 0,0 km/h (0 Bft) SO 134 ° 0 min 0,000 mm 0,0 UV-I 0 W/m² 6,3 °C 10,3 °C 0,0 km/h (0 Bft)
19.04.2018 22:28 10,2 °C 77 % 1025,1 hPa 0,0 mm 0,0 km/h (0 Bft) SO 134 ° 0 min 0,000 mm 0,0 UV-I 0 W/m² 6,4 °C 10,2 °C 0,0 km/h (0 Bft)
19.04.2018 22:29 10,1 °C 77 % 1025,1 hPa 0,0 mm 0,0 km/h (0 Bft) SO 134 ° 0 min 0,000 mm 0,0 UV-I 0 W/m² 6,3 °C 10,1 °C 0,0 km/h (0 Bft)
19.04.2018 22:30 10,1 °C 77 % 1025,1 hPa 0,0 mm 0,0 km/h (0 Bft) SO 134 ° 0 min 0,000 mm 0,0 UV-I 0 W/m² 6,3 °C 10,1 °C 0,0 km/h (0 Bft)
19.04.2018 22:31 10,1 °C 77 % 1025,1 hPa 0,0 mm 0,0 km/h (0 Bft) SO 134 ° 0 min 0,000 mm 0,0 UV-I 0 W/m² 6,3 °C 10,1 °C 0,0 km/h (0 Bft)
19.04.2018 22:32 10,0 °C 77 % 1025,1 hPa 0,0 mm 0,0 km/h (0 Bft) SO 134 ° 0 min 0,000 mm 0,0 UV-I 0 W/m² 6,2 °C 10,0 °C 0,0 km/h (0 Bft)
19.04.2018 22:33 9,9 °C 77 % 1025,1 hPa 0,0 mm 0,0 km/h (0 Bft) SO 134 ° 0 min 0,000 mm 0,0 UV-I 0 W/m² 6,1 °C 9,9 °C 0,0 km/h (0 Bft)
19.04.2018 22:34 9,9 °C 78 % 1025,1 hPa 0,0 mm 0,0 km/h (0 Bft) SO 134 ° 0 min 0,000 mm 0,0 UV-I 0 W/m² 6,2 °C 9,9 °C 0,0 km/h (0 Bft)
19.04.2018 22:35 9,9 °C 78 % 1025,1 hPa 0,0 mm 0,0 km/h (0 Bft) SO 134 ° 0 min 0,000 mm 0,0 UV-I 0 W/m² 6,2 °C 9,9 °C 0,0 km/h (0 Bft)
19.04.2018 22:36 9,9 °C 77 % 1025,2 hPa 0,0 mm 0,0 km/h (0 Bft) SO 134 ° 0 min 0,000 mm 0,0 UV-I 0 W/m² 6,1 °C 9,9 °C 0,0 km/h (0 Bft)
19.04.2018 22:37 9,9 °C 78 % 1025,1 hPa 0,0 mm 0,0 km/h (0 Bft) SO 134 ° 0 min 0,000 mm 0,0 UV-I 0 W/m² 6,2 °C 9,9 °C 0,0 km/h (0 Bft)
19.04.2018 22:38 9,9 °C 78 % 1025,0 hPa 0,0 mm 0,0 km/h (0 Bft) SO 134 ° 0 min 0,000 mm 0,0 UV-I 0 W/m² 6,2 °C 9,9 °C 0,0 km/h (0 Bft)
19.04.2018 22:39 9,9 °C 78 % 1025,1 hPa 0,0 mm 0,0 km/h (0 Bft) SO 134 ° 0 min 0,000 mm 0,0 UV-I 0 W/m² 6,2 °C 9,9 °C 0,0 km/h (0 Bft)
19.04.2018 22:40 9,9 °C 78 % 1025,0 hPa 0,0 mm 1,0 km/h (0 Bft) SO 134 ° 0 min 0,000 mm 0,0 UV-I 0 W/m² 6,2 °C 9,9 °C 3,2 km/h (1 Bft)
19.04.2018 22:41 10,1 °C 78 % 1025,0 hPa 0,0 mm 0,5 km/h (0 Bft) SO 134 ° 0 min 0,000 mm 0,0 UV-I 0 W/m² 6,4 °C 10,1 °C 1,6 km/h (1 Bft)
19.04.2018 22:42 10,4 °C 77 % 1025,0 hPa 0,0 mm 0,0 km/h (0 Bft) SO 134 ° 0 min 0,000 mm 0,0 UV-I 0 W/m² 6,5 °C 10,4 °C 0,0 km/h (0 Bft)
19.04.2018 22:43 10,7 °C 76 % 1025,0 hPa 0,0 mm 0,1 km/h (0 Bft) SO 134 ° 0 min 0,000 mm 0,0 UV-I 0 W/m² 6,6 °C 10,7 °C 1,6 km/h (1 Bft)
19.04.2018 22:44 10,9 °C 75 % 1025,0 hPa 0,0 mm 0,0 km/h (0 Bft) SO 134 ° 0 min 0,000 mm 0,0 UV-I 0 W/m² 6,6 °C 10,9 °C 0,0 km/h (0 Bft)
19.04.2018 22:45 11,1 °C 74 % 1025,0 hPa 0,0 mm 0,0 km/h (0 Bft) SO 134 ° 0 min 0,000 mm 0,0 UV-I 0 W/m² 6,6 °C 11,1 °C 0,0 km/h (0 Bft)
19.04.2018 22:46 10,9 °C 73 % 1025,0 hPa 0,0 mm 0,0 km/h (0 Bft) SO 134 ° 0 min 0,000 mm 0,0 UV-I 0 W/m² 6,3 °C 10,9 °C 0,0 km/h (0 Bft)
19.04.2018 22:47 10,8 °C 74 % 1025,1 hPa 0,0 mm 0,0 km/h (0 Bft) SO 134 ° 0 min 0,000 mm 0,0 UV-I 0 W/m² 6,4 °C 10,8 °C 0,0 km/h (0 Bft)
19.04.2018 22:48 10,7 °C 75 % 1025,0 hPa 0,0 mm 0,0 km/h (0 Bft) SO 134 ° 0 min 0,000 mm 0,0 UV-I 0 W/m² 6,5 °C 10,7 °C 0,0 km/h (0 Bft)
19.04.2018 22:49 10,6 °C 75 % 1025,0 hPa 0,0 mm 0,0 km/h (0 Bft) SO 134 ° 0 min 0,000 mm 0,0 UV-I 0 W/m² 6,4 °C 10,6 °C 0,0 km/h (0 Bft)
19.04.2018 22:50 10,4 °C 76 % 1025,0 hPa 0,0 mm 0,0 km/h (0 Bft) SO 134 ° 0 min 0,000 mm 0,0 UV-I 0 W/m² 6,4 °C 10,4 °C 0,0 km/h (0 Bft)
19.04.2018 22:51 10,2 °C 76 % 1025,0 hPa 0,0 mm 0,0 km/h (0 Bft) SO 134 ° 0 min 0,000 mm 0,0 UV-I 0 W/m² 6,2 °C 10,2 °C 0,0 km/h (0 Bft)
19.04.2018 22:52 10,1 °C 77 % 1025,0 hPa 0,0 mm 0,0 km/h (0 Bft) SO 134 ° 0 min 0,000 mm 0,0 UV-I 0 W/m² 6,3 °C 10,1 °C 0,0 km/h (0 Bft)
19.04.2018 22:53 10,1 °C 77 % 1025,0 hPa 0,0 mm 0,0 km/h (0 Bft) SO 134 ° 0 min 0,000 mm 0,0 UV-I 0 W/m² 6,3 °C 10,1 °C 0,0 km/h (0 Bft)
19.04.2018 22:54 10,0 °C 78 % 1025,0 hPa 0,0 mm 0,0 km/h (0 Bft) SO 134 ° 0 min 0,000 mm 0,0 UV-I 0 W/m² 6,3 °C 10,0 °C 0,0 km/h (0 Bft)
19.04.2018 22:55 9,9 °C 78 % 1025,0 hPa 0,0 mm 0,0 km/h (0 Bft) SO 134 ° 0 min 0,000 mm 0,0 UV-I 0 W/m² 6,2 °C 9,9 °C 0,0 km/h (0 Bft)
19.04.2018 22:56 9,9 °C 78 % 1025,0 hPa 0,0 mm 0,0 km/h (0 Bft) SO 134 ° 0 min 0,000 mm 0,0 UV-I 0 W/m² 6,2 °C 9,9 °C 0,0 km/h (0 Bft)
19.04.2018 22:57 9,9 °C 78 % 1025,0 hPa 0,0 mm 0,0 km/h (0 Bft) SO 134 ° 0 min 0,000 mm 0,0 UV-I 0 W/m² 6,2 °C 9,9 °C 0,0 km/h (0 Bft)
19.04.2018 22:58 9,8 °C 78 % 1025,0 hPa 0,0 mm 0,0 km/h (0 Bft) SO 134 ° 0 min 0,000 mm 0,0 UV-I 0 W/m² 6,1 °C 9,8 °C 0,0 km/h (0 Bft)
19.04.2018 22:59 9,8 °C 79 % 1025,0 hPa 0,0 mm 0,0 km/h (0 Bft) SO 134 ° 0 min 0,000 mm 0,0 UV-I 0 W/m² 6,3 °C 9,8 °C 0,0 km/h (0 Bft)
19.04.2018 23:00 9,8 °C 79 % 1024,9 hPa 0,0 mm 0,0 km/h (0 Bft) SO 134 ° 0 min 0,000 mm 0,0 UV-I 0 W/m² 6,3 °C 9,8 °C 0,0 km/h (0 Bft)
19.04.2018 23:01 9,7 °C 79 % 1024,9 hPa 0,0 mm 0,0 km/h (0 Bft) SO 134 ° 0 min 0,025 mm 0,0 UV-I 0 W/m² 6,2 °C 9,7 °C 0,0 km/h (0 Bft)
19.04.2018 23:02 9,8 °C 79 % 1024,9 hPa 0,0 mm 0,0 km/h (0 Bft) SO 134 ° 0 min 0,000 mm 0,0 UV-I 0 W/m² 6,3 °C 9,8 °C 0,0 km/h (0 Bft)
19.04.2018 23:03 9,8 °C 79 % 1024,9 hPa 0,0 mm 0,0 km/h (0 Bft) SO 134 ° 0 min 0,000 mm 0,0 UV-I 0 W/m² 6,3 °C 9,8 °C 0,0 km/h (0 Bft)
19.04.2018 23:04 9,9 °C 79 % 1024,9 hPa 0,0 mm 0,0 km/h (0 Bft) SO 134 ° 0 min 0,000 mm 0,0 UV-I 0 W/m² 6,4 °C 9,9 °C 0,0 km/h (0 Bft)
19.04.2018 23:05 9,9 °C 79 % 1024,9 hPa 0,0 mm 0,0 km/h (0 Bft) SO 134 ° 0 min 0,000 mm 0,0 UV-I 0 W/m² 6,4 °C 9,9 °C 0,0 km/h (0 Bft)
19.04.2018 23:06 9,9 °C 78 % 1024,9 hPa 0,0 mm 0,0 km/h (0 Bft) SO 134 ° 0 min 0,000 mm 0,0 UV-I 0 W/m² 6,2 °C 9,9 °C 0,0 km/h (0 Bft)
19.04.2018 23:07 9,9 °C 78 % 1024,9 hPa 0,0 mm 0,0 km/h (0 Bft) SO 134 ° 0 min 0,000 mm 0,0 UV-I 0 W/m² 6,2 °C 9,9 °C 0,0 km/h (0 Bft)
19.04.2018 23:08 9,8 °C 77 % 1024,9 hPa 0,0 mm 0,0 km/h (0 Bft) SO 134 ° 0 min 0,000 mm 0,0 UV-I 0 W/m² 6,0 °C 9,8 °C 0,0 km/h (0 Bft)
19.04.2018 23:09 9,8 °C 78 % 1024,9 hPa 0,0 mm 0,0 km/h (0 Bft) SO 134 ° 0 min 0,000 mm 0,0 UV-I 0 W/m² 6,1 °C 9,8 °C 0,0 km/h (0 Bft)
19.04.2018 23:10 9,7 °C 79 % 1024,9 hPa 0,0 mm 0,0 km/h (0 Bft) SO 134 ° 0 min 0,000 mm 0,0 UV-I 0 W/m² 6,2 °C 9,7 °C 0,0 km/h (0 Bft)
19.04.2018 23:11 9,7 °C 79 % 1024,9 hPa 0,0 mm 0,0 km/h (0 Bft) SO 134 ° 0 min 0,000 mm 0,0 UV-I 0 W/m² 6,2 °C 9,7 °C 0,0 km/h (0 Bft)
19.04.2018 23:12 9,7 °C 79 % 1024,8 hPa 0,0 mm 0,0 km/h (0 Bft) SO 134 ° 0 min 0,000 mm 0,0 UV-I 0 W/m² 6,2 °C 9,7 °C 0,0 km/h (0 Bft)
19.04.2018 23:13 9,7 °C 79 % 1024,8 hPa 0,0 mm 0,0 km/h (0 Bft) SO 134 ° 0 min 0,000 mm 0,0 UV-I 0 W/m² 6,2 °C 9,7 °C 0,0 km/h (0 Bft)
19.04.2018 23:14 9,6 °C 79 % 1024,8 hPa 0,0 mm 0,0 km/h (0 Bft) SO 134 ° 0 min 0,000 mm 0,0 UV-I 0 W/m² 6,1 °C 9,6 °C 0,0 km/h (0 Bft)
19.04.2018 23:15 9,6 °C 79 % 1024,8 hPa 0,0 mm 0,0 km/h (0 Bft) SO 134 ° 0 min 0,000 mm 0,0 UV-I 0 W/m² 6,1 °C 9,6 °C 0,0 km/h (0 Bft)
19.04.2018 23:16 9,6 °C 79 % 1024,8 hPa 0,0 mm 0,0 km/h (0 Bft) SO 134 ° 0 min 0,000 mm 0,0 UV-I 0 W/m² 6,1 °C 9,6 °C 0,0 km/h (0 Bft)
19.04.2018 23:17 9,6 °C 79 % 1024,8 hPa 0,0 mm 0,0 km/h (0 Bft) SO 134 ° 0 min 0,000 mm 0,0 UV-I 0 W/m² 6,1 °C 9,6 °C 0,0 km/h (0 Bft)
19.04.2018 23:18 9,6 °C 79 % 1024,8 hPa 0,0 mm 0,0 km/h (0 Bft) SO 134 ° 0 min 0,000 mm 0,0 UV-I 0 W/m² 6,1 °C 9,6 °C 0,0 km/h (0 Bft)
19.04.2018 23:19 9,5 °C 79 % 1024,8 hPa 0,0 mm 0,0 km/h (0 Bft) SO 134 ° 0 min 0,000 mm 0,0 UV-I 0 W/m² 6,0 °C 9,5 °C 0,0 km/h (0 Bft)
19.04.2018 23:20 9,4 °C 79 % 1024,8 hPa 0,0 mm 0,0 km/h (0 Bft) SO 134 ° 0 min 0,000 mm 0,0 UV-I 0 W/m² 5,9 °C 9,4 °C 0,0 km/h (0 Bft)
19.04.2018 23:21 9,4 °C 79 % 1024,8 hPa 0,0 mm 0,0 km/h (0 Bft) SO 134 ° 0 min 0,000 mm 0,0 UV-I 0 W/m² 5,9 °C 9,4 °C 0,0 km/h (0 Bft)
19.04.2018 23:22 9,4 °C 80 % 1024,8 hPa 0,0 mm 0,0 km/h (0 Bft) SO 134 ° 0 min 0,000 mm 0,0 UV-I 0 W/m² 6,1 °C 9,4 °C 0,0 km/h (0 Bft)
19.04.2018 23:23 9,4 °C 80 % 1024,8 hPa 0,0 mm 0,0 km/h (0 Bft) SO 134 ° 0 min 0,000 mm 0,0 UV-I 0 W/m² 6,1 °C 9,4 °C 0,0 km/h (0 Bft)
19.04.2018 23:24 9,4 °C 79 % 1024,8 hPa 0,0 mm 0,0 km/h (0 Bft) SO 134 ° 0 min 0,000 mm 0,0 UV-I 0 W/m² 5,9 °C 9,4 °C 0,0 km/h (0 Bft)
19.04.2018 23:25 9,5 °C 79 % 1024,8 hPa 0,0 mm 0,0 km/h (0 Bft) SO 134 ° 0 min 0,000 mm 0,0 UV-I 0 W/m² 6,0 °C 9,5 °C 0,0 km/h (0 Bft)
19.04.2018 23:26 9,5 °C 79 % 1024,8 hPa 0,0 mm 0,0 km/h (0 Bft) SO 134 ° 0 min 0,000 mm 0,0 UV-I 0 W/m² 6,0 °C 9,5 °C 0,0 km/h (0 Bft)
19.04.2018 23:27 9,5 °C 79 % 1024,7 hPa 0,0 mm 0,0 km/h (0 Bft) SO 134 ° 0 min 0,000 mm 0,0 UV-I 0 W/m² 6,0 °C 9,5 °C 0,0 km/h (0 Bft)
19.04.2018 23:28 9,4 °C 79 % 1024,7 hPa 0,0 mm 0,0 km/h (0 Bft) SO 134 ° 0 min 0,000 mm 0,0 UV-I 0 W/m² 5,9 °C 9,4 °C 0,0 km/h (0 Bft)
19.04.2018 23:29 9,4 °C 79 % 1024,8 hPa 0,0 mm 0,0 km/h (0 Bft) SO 134 ° 0 min 0,000 mm 0,0 UV-I 0 W/m² 5,9 °C 9,4 °C 0,0 km/h (0 Bft)
19.04.2018 23:30 9,4 °C 79 % 1024,8 hPa 0,0 mm 0,2 km/h (0 Bft) SO 134 ° 0 min 0,000 mm 0,0 UV-I 0 W/m² 5,9 °C 9,4 °C 1,6 km/h (1 Bft)
19.04.2018 23:31 9,3 °C 79 % 1024,8 hPa 0,0 mm 0,0 km/h (0 Bft) SO 134 ° 0 min 0,000 mm 0,0 UV-I 0 W/m² 5,8 °C 9,3 °C 0,0 km/h (0 Bft)
19.04.2018 23:32 9,3 °C 79 % 1024,8 hPa 0,0 mm 0,0 km/h (0 Bft) SO 134 ° 0 min 0,000 mm 0,0 UV-I 0 W/m² 5,8 °C 9,3 °C 0,0 km/h (0 Bft)
19.04.2018 23:33 9,2 °C 80 % 1024,8 hPa 0,0 mm 0,0 km/h (0 Bft) SO 134 ° 0 min 0,000 mm 0,0 UV-I 0 W/m² 5,9 °C 9,2 °C 0,0 km/h (0 Bft)
19.04.2018 23:34 9,1 °C 80 % 1024,8 hPa 0,0 mm 0,0 km/h (0 Bft) SO 134 ° 0 min 0,000 mm 0,0 UV-I 0 W/m² 5,8 °C 9,1 °C 0,0 km/h (0 Bft)
19.04.2018 23:35 9,1 °C 80 % 1024,8 hPa 0,0 mm 0,0 km/h (0 Bft) SO 134 ° 0 min 0,000 mm 0,0 UV-I 0 W/m² 5,8 °C 9,1 °C 0,0 km/h (0 Bft)
19.04.2018 23:36 8,9 °C 81 % 1024,8 hPa 0,0 mm 0,0 km/h (0 Bft) SO 134 ° 0 min 0,000 mm 0,0 UV-I 0 W/m² 5,8 °C 8,9 °C 0,0 km/h (0 Bft)
19.04.2018 23:37 8,9 °C 81 % 1024,8 hPa 0,0 mm 0,0 km/h (0 Bft) SO 134 ° 0 min 0,000 mm 0,0 UV-I 0 W/m² 5,8 °C 8,9 °C 0,0 km/h (0 Bft)
19.04.2018 23:38 8,8 °C 81 % 1024,8 hPa 0,0 mm 0,0 km/h (0 Bft) SO 134 ° 0 min 0,000 mm 0,0 UV-I 0 W/m² 5,7 °C 8,8 °C 0,0 km/h (0 Bft)
19.04.2018 23:39 8,7 °C 81 % 1024,8 hPa 0,0 mm 0,0 km/h (0 Bft) SO 134 ° 0 min 0,000 mm 0,0 UV-I 0 W/m² 5,6 °C 8,7 °C 0,0 km/h (0 Bft)
19.04.2018 23:40 8,7 °C 82 % 1024,8 hPa 0,0 mm 0,0 km/h (0 Bft) SO 134 ° 0 min 0,000 mm 0,0 UV-I 0 W/m² 5,8 °C 8,7 °C 0,0 km/h (0 Bft)
19.04.2018 23:41 8,7 °C 82 % 1024,8 hPa 0,0 mm 0,0 km/h (0 Bft) SO 134 ° 0 min 0,000 mm 0,0 UV-I 0 W/m² 5,8 °C 8,7 °C 0,0 km/h (0 Bft)
19.04.2018 23:42 8,7 °C 82 % 1024,8 hPa 0,0 mm 0,0 km/h (0 Bft) SO 134 ° 0 min 0,000 mm 0,0 UV-I 0 W/m² 5,8 °C 8,7 °C 0,0 km/h (0 Bft)
19.04.2018 23:43 8,7 °C 82 % 1024,8 hPa 0,0 mm 0,0 km/h (0 Bft) SO 134 ° 0 min 0,000 mm 0,0 UV-I 0 W/m² 5,8 °C 8,7 °C 0,0 km/h (0 Bft)
19.04.2018 23:44 8,8 °C 82 % 1024,8 hPa 0,0 mm 0,0 km/h (0 Bft) SO 134 ° 0 min 0,000 mm 0,0 UV-I 0 W/m² 5,9 °C 8,8 °C 0,0 km/h (0 Bft)
19.04.2018 23:45 8,9 °C 81 % 1024,8 hPa 0,0 mm 0,0 km/h (0 Bft) SO 134 ° 0 min 0,000 mm 0,0 UV-I 0 W/m² 5,8 °C 8,9 °C 0,0 km/h (0 Bft)
19.04.2018 23:46 8,9 °C 81 % 1024,8 hPa 0,0 mm 0,0 km/h (0 Bft) SO 134 ° 0 min 0,000 mm 0,0 UV-I 0 W/m² 5,8 °C 8,9 °C 0,0 km/h (0 Bft)
19.04.2018 23:47 9,0 °C 81 % 1024,7 hPa 0,0 mm 0,0 km/h (0 Bft) SO 134 ° 0 min 0,000 mm 0,0 UV-I 0 W/m² 5,9 °C 9,0 °C 0,0 km/h (0 Bft)
19.04.2018 23:48 9,1 °C 81 % 1024,8 hPa 0,0 mm 0,0 km/h (0 Bft) SO 134 ° 0 min 0,000 mm 0,0 UV-I 0 W/m² 6,0 °C 9,1 °C 0,0 km/h (0 Bft)
19.04.2018 23:49 9,2 °C 81 % 1024,7 hPa 0,0 mm 0,0 km/h (0 Bft) SO 134 ° 0 min 0,000 mm 0,0 UV-I 0 W/m² 6,1 °C 9,2 °C 0,0 km/h (0 Bft)
19.04.2018 23:50 9,3 °C 80 % 1024,7 hPa 0,0 mm 0,0 km/h (0 Bft) SO 134 ° 0 min 0,000 mm 0,0 UV-I 0 W/m² 6,0 °C 9,3 °C 0,0 km/h (0 Bft)
19.04.2018 23:51 9,3 °C 80 % 1024,7 hPa 0,0 mm 0,0 km/h (0 Bft) SO 134 ° 0 min 0,000 mm 0,0 UV-I 0 W/m² 6,0 °C 9,3 °C 0,0 km/h (0 Bft)
19.04.2018 23:52 9,4 °C 79 % 1024,7 hPa 0,0 mm 0,0 km/h (0 Bft) SO 134 ° 0 min 0,000 mm 0,0 UV-I 0 W/m² 5,9 °C 9,4 °C 0,0 km/h (0 Bft)
19.04.2018 23:53 9,6 °C 79 % 1024,7 hPa 0,0 mm 0,0 km/h (0 Bft) SO 134 ° 0 min 0,000 mm 0,0 UV-I 0 W/m² 6,1 °C 9,6 °C 0,0 km/h (0 Bft)
19.04.2018 23:54 9,6 °C 78 % 1024,7 hPa 0,0 mm 0,0 km/h (0 Bft) SO 134 ° 0 min 0,000 mm 0,0 UV-I 0 W/m² 6,0 °C 9,6 °C 0,0 km/h (0 Bft)
19.04.2018 23:55 9,6 °C 78 % 1024,7 hPa 0,0 mm 0,0 km/h (0 Bft) SO 134 ° 0 min 0,000 mm 0,0 UV-I 0 W/m² 6,0 °C 9,6 °C 0,0 km/h (0 Bft)
19.04.2018 23:56 9,3 °C 78 % 1024,7 hPa 0,0 mm 0,0 km/h (0 Bft) SO 134 ° 0 min 0,000 mm 0,0 UV-I 0 W/m² 5,7 °C 9,3 °C 0,0 km/h (0 Bft)
19.04.2018 23:57 9,1 °C 79 % 1024,7 hPa 0,0 mm 0,0 km/h (0 Bft) SO 134 ° 0 min 0,000 mm 0,0 UV-I 0 W/m² 5,7 °C 9,1 °C 0,0 km/h (0 Bft)
19.04.2018 23:58 8,9 °C 79 % 1024,7 hPa 0,0 mm 0,0 km/h (0 Bft) SO 134 ° 0 min 0,000 mm 0,0 UV-I 0 W/m² 5,5 °C 8,9 °C 0,0 km/h (0 Bft)
19.04.2018 23:59 8,8 °C 80 % 1024,7 hPa 0,0 mm 0,0 km/h (0 Bft) SO 134 ° 0 min 0,000 mm 0,0 UV-I 0 W/m² 5,5 °C 8,8 °C 0,0 km/h (0 Bft)
_ Min-Zeit 06:48 16:49 19:10 - 23:59 - - - - - - 06:45 06:48 23:59
Minimum _ 2,6 °C 34 % 1024,5 hPa - 0,0 km/h (0 Bft) - - - - - - 1,1 °C 2,6 °C 0,0 km/h (0 Bft)
_ Max-Zeit 15:27 07:20 00:05 23:59 17:16 - - 17:14 14:01 13:41 13:28 13:47 15:29 17:48
Maximum _ 22,7 °C 92 % 1028,6 hPa 0,0 mm 12,6 km/h
N-NO (3 Bft)
- - 1 min 0,534 mm 6,0 UV-I 823 W/m² 10,8 °C 22,6 °C 22,5 km/h
O-NO (4 Bft)
Durchschnitt _ 12,9 °C 66 % 1026,3 hPa #0,0 mm 2,1 km/h (1 Bft) NO - #7:58 h #3,835 mm 3,6 UV-I 246 W/m² 5,7 °C 12,9 °C 3,6 km/h (1 Bft)